Multibeam Report for HA1501


Ship Name: Hi'ialakai
Chief Scientist: Kelvin Gorospe Leg 1, Bernardo Vargas-Angel Legs 2 and 3, Charles Young Leg 4
Pacific Islands Fisheries Science Center
Source Organization: NOAA/Pacific Island Science Center
Start Date: 2015-01-21
End Date: 2015-05-03


View ISO Metadata

Visit the full NCEI Bathymetry Viewer


Multibeam Bathymetry

Cruise Details

Project: American Samoa Reef Assessment and Monitoring Program (ASRAMP) 2015
Instrument: Simrad EM300

Data Quality

Number of Files: 1976
Number of Records: 1275604
BATHYMETRY DATA Quantity Percentage
Number of Beams 172183185 100%
Number of Good Beams 149145902 86.62%
Number of Zero Beams 17344873 10.07%
Number of Flagged Beams 5692410 3.31%

Navigation Totals

Total Time: 872.8741 hours
Total Track Length: 7287.6351 km
Average Speed: 8.349 km/hr (4.5081 knots)

Cruise Bounds

Northern Extent: 16.855413
Southern Extent: -14.526344
Western Extent: -176.8279
Eastern Extent: -159.8823

Limits

Minimum Sonar Depth 0 Maximum Sonar Depth 7.58
Minimum Altitude 0 Maximum Altitude 3484.0801
Minimum Depth 0 Maximum Depth 3503.73

File Information

Full Resolution Bathymetry as collected (raw): 1612

Files File Size Description
0000_20150208_073525_HIIALAKAI.all.mb56.gz 12.6KB Simrad multibeam vendor format
0000_20150212_082325_HIIALAKAI.all.mb56.gz 68.9KB Simrad multibeam vendor format
0000_20150216_050704_HIIALAKAI.all.mb56.gz 5.5KB Simrad multibeam vendor format
0000_20150409_020928_HIIALAKAI.all.mb56.gz 8.78MB Simrad multibeam vendor format
0001_20150208_091902_HIIALAKAI.all.mb56.gz 4.96MB Simrad multibeam vendor format
0001_20150214_081544_HIIALAKAI.all.mb56.gz 3.69MB Simrad multibeam vendor format
0001_20150217_062131_HIIALAKAI.all.mb56.gz 8.40MB Simrad multibeam vendor format
0001_20150409_023928_HIIALAKAI.all.mb56.gz 7.12MB Simrad multibeam vendor format
0001_20150415_080800_HIIALAKAI.all.mb56.gz 192.5KB Simrad multibeam vendor format
0002_20150208_094903_HIIALAKAI.all.mb56.gz 4.30MB Simrad multibeam vendor format
0002_20150214_084544_HIIALAKAI.all.mb56.gz 71.1KB Simrad multibeam vendor format
0002_20150217_065131_HIIALAKAI.all.mb56.gz 14.96MB Simrad multibeam vendor format
0002_20150409_030928_HIIALAKAI.all.mb56.gz 4.67MB Simrad multibeam vendor format
0002_20150415_081308_HIIALAKAI.all.mb56.gz 4.87MB Simrad multibeam vendor format
0003_20150208_101903_HIIALAKAI.all.mb56.gz 4.39MB Simrad multibeam vendor format
0003_20150215_104112_HIIALAKAI.all.mb56.gz 4.50MB Simrad multibeam vendor format
0003_20150217_072132_HIIALAKAI.all.mb56.gz 15.52MB Simrad multibeam vendor format
0003_20150415_084308_HIIALAKAI.all.mb56.gz 5.11MB Simrad multibeam vendor format
0004_20150126_053502_HIIALAKAI.all.mb56.gz 7.5KB Simrad multibeam vendor format
0004_20150208_104903_HIIALAKAI.all.mb56.gz 4.31MB Simrad multibeam vendor format
0004_20150215_111112_HIIALAKAI.all.mb56.gz 4.31MB Simrad multibeam vendor format
0004_20150217_075132_HIIALAKAI.all.mb56.gz 17.65MB Simrad multibeam vendor format
0004_20150409_063410_HIIALAKAI.all.mb56.gz 5.92MB Simrad multibeam vendor format
0004_20150415_091308_HIIALAKAI.all.mb56.gz 1.10MB Simrad multibeam vendor format
0005_20150126_053505_HIIALAKAI.all.mb56.gz 21.3KB Simrad multibeam vendor format
0005_20150208_111903_HIIALAKAI.all.mb56.gz 4.12MB Simrad multibeam vendor format
0005_20150215_114112_HIIALAKAI.all.mb56.gz 4.42MB Simrad multibeam vendor format
0005_20150217_082132_HIIALAKAI.all.mb56.gz 10.11MB Simrad multibeam vendor format
0005_20150409_070410_HIIALAKAI.all.mb56.gz 5.04MB Simrad multibeam vendor format
0005_20150416_010138_HIIALAKAI.all.mb56.gz 7.72MB Simrad multibeam vendor format
0006_20150126_053510_HIIALAKAI.all.mb56.gz 39.2KB Simrad multibeam vendor format
0006_20150208_114903_HIIALAKAI.all.mb56.gz 4.38MB Simrad multibeam vendor format
0006_20150215_121113_HIIALAKAI.all.mb56.gz 4.21MB Simrad multibeam vendor format
0006_20150217_084535_HIIALAKAI.all.mb56.gz 1.75MB Simrad multibeam vendor format
0006_20150409_073410_HIIALAKAI.all.mb56.gz 4.46MB Simrad multibeam vendor format
0006_20150416_013138_HIIALAKAI.all.mb56.gz 7.71MB Simrad multibeam vendor format
0007_20150126_053520_HIIALAKAI.all.mb56.gz 3.2KB Simrad multibeam vendor format
0007_20150208_121903_HIIALAKAI.all.mb56.gz 4.41MB Simrad multibeam vendor format
0007_20150215_124112_HIIALAKAI.all.mb56.gz 1.01MB Simrad multibeam vendor format
0007_20150217_085355_HIIALAKAI.all.mb56.gz 6.71MB Simrad multibeam vendor format
0007_20150409_080410_HIIALAKAI.all.mb56.gz 6.00MB Simrad multibeam vendor format
0007_20150416_020138_HIIALAKAI.all.mb56.gz 7.77MB Simrad multibeam vendor format
0008_20150126_053520_HIIALAKAI.all.mb56.gz 4.7KB Simrad multibeam vendor format
0008_20150208_124903_HIIALAKAI.all.mb56.gz 4.76MB Simrad multibeam vendor format
0008_20150215_124818_HIIALAKAI.all.mb56.gz 4.15MB Simrad multibeam vendor format
0008_20150217_092355_HIIALAKAI.all.mb56.gz 7.63MB Simrad multibeam vendor format
0008_20150409_083410_HIIALAKAI.all.mb56.gz 5.69MB Simrad multibeam vendor format
0008_20150416_023138_HIIALAKAI.all.mb56.gz 7.55MB Simrad multibeam vendor format
0009_20150126_053521_HIIALAKAI.all.mb56.gz 13.9KB Simrad multibeam vendor format
0009_20150208_131903_HIIALAKAI.all.mb56.gz 4.40MB Simrad multibeam vendor format
0009_20150215_131818_HIIALAKAI.all.mb56.gz 4.19MB Simrad multibeam vendor format
0009_20150217_095356_HIIALAKAI.all.mb56.gz 7.52MB Simrad multibeam vendor format
0009_20150409_090410_HIIALAKAI.all.mb56.gz 4.68MB Simrad multibeam vendor format
0009_20150416_030138_HIIALAKAI.all.mb56.gz 5.61MB Simrad multibeam vendor format
0010_20150126_053522_HIIALAKAI.all.mb56.gz 114.8KB Simrad multibeam vendor format
0010_20150208_134903_HIIALAKAI.all.mb56.gz 4.43MB Simrad multibeam vendor format
0010_20150215_134818_HIIALAKAI.all.mb56.gz 4.32MB Simrad multibeam vendor format
0010_20150217_102356_HIIALAKAI.all.mb56.gz 7.91MB Simrad multibeam vendor format
0010_20150409_093410_HIIALAKAI.all.mb56.gz 4.09MB Simrad multibeam vendor format
0010_20150416_033138_HIIALAKAI.all.mb56.gz 4.60MB Simrad multibeam vendor format
0011_20150126_053611_HIIALAKAI.all.mb56.gz 158.0KB Simrad multibeam vendor format
0011_20150208_141903_HIIALAKAI.all.mb56.gz 5.24MB Simrad multibeam vendor format
0011_20150215_141818_HIIALAKAI.all.mb56.gz 4.30MB Simrad multibeam vendor format
0011_20150217_105356_HIIALAKAI.all.mb56.gz 6.48MB Simrad multibeam vendor format
0011_20150409_100410_HIIALAKAI.all.mb56.gz 4.79MB Simrad multibeam vendor format
0011_20150416_040138_HIIALAKAI.all.mb56.gz 4.72MB Simrad multibeam vendor format
0012_20150126_054224_HIIALAKAI.all.mb56.gz 1.91MB Simrad multibeam vendor format
0012_20150208_144903_HIIALAKAI.all.mb56.gz 4.40MB Simrad multibeam vendor format
0012_20150215_144911_HIIALAKAI.all.mb56.gz 1.60MB Simrad multibeam vendor format
0012_20150217_111857_HIIALAKAI.all.mb56.gz 5.43MB Simrad multibeam vendor format
0012_20150409_103411_HIIALAKAI.all.mb56.gz 5.98MB Simrad multibeam vendor format
0012_20150416_043138_HIIALAKAI.all.mb56.gz 4.74MB Simrad multibeam vendor format
0013_20150126_054924_HIIALAKAI.all.mb56.gz 15.24MB Simrad multibeam vendor format
0013_20150208_151903_HIIALAKAI.all.mb56.gz 4.63MB Simrad multibeam vendor format
0013_20150215_150015_HIIALAKAI.all.mb56.gz 17.4KB Simrad multibeam vendor format
0013_20150217_114857_HIIALAKAI.all.mb56.gz 6.22MB Simrad multibeam vendor format
0013_20150409_110411_HIIALAKAI.all.mb56.gz 4.16MB Simrad multibeam vendor format
0013_20150416_050138_HIIALAKAI.all.mb56.gz 4.52MB Simrad multibeam vendor format
0014_20150126_061924_HIIALAKAI.all.mb56.gz 13.68MB Simrad multibeam vendor format
0014_20150208_154903_HIIALAKAI.all.mb56.gz 5.06MB Simrad multibeam vendor format
0014_20150215_150021_HIIALAKAI.all.mb56.gz 4.36MB Simrad multibeam vendor format
0014_20150217_121857_HIIALAKAI.all.mb56.gz 6.85MB Simrad multibeam vendor format
0014_20150409_113411_HIIALAKAI.all.mb56.gz 4.00MB Simrad multibeam vendor format
0014_20150416_053139_HIIALAKAI.all.mb56.gz 4.55MB Simrad multibeam vendor format
0015_20150126_064925_HIIALAKAI.all.mb56.gz 10.82MB Simrad multibeam vendor format
0015_20150208_161903_HIIALAKAI.all.mb56.gz 4.99MB Simrad multibeam vendor format
0015_20150215_153021_HIIALAKAI.all.mb56.gz 4.37MB Simrad multibeam vendor format
0015_20150217_124857_HIIALAKAI.all.mb56.gz 6.39MB Simrad multibeam vendor format
0015_20150409_120411_HIIALAKAI.all.mb56.gz 5.22MB Simrad multibeam vendor format
0015_20150416_060139_HIIALAKAI.all.mb56.gz 5.74MB Simrad multibeam vendor format
0016_20150126_071924_HIIALAKAI.all.mb56.gz 11.80MB Simrad multibeam vendor format
0016_20150208_164903_HIIALAKAI.all.mb56.gz 8.88MB Simrad multibeam vendor format
0016_20150215_160021_HIIALAKAI.all.mb56.gz 2.46MB Simrad multibeam vendor format
0016_20150217_131857_HIIALAKAI.all.mb56.gz 1.29MB Simrad multibeam vendor format
0016_20150409_123411_HIIALAKAI.all.mb56.gz 4.73MB Simrad multibeam vendor format
0016_20150416_063139_HIIALAKAI.all.mb56.gz 5.15MB Simrad multibeam vendor format
0017_20150126_074924_HIIALAKAI.all.mb56.gz 0.97MB Simrad multibeam vendor format
0017_20150208_171903_HIIALAKAI.all.mb56.gz 9.89MB Simrad multibeam vendor format
0017_20150215_162304_HIIALAKAI.all.mb56.gz 61.5KB Simrad multibeam vendor format
0017_20150217_132605_HIIALAKAI.all.mb56.gz 2.25MB Simrad multibeam vendor format
0017_20150409_130411_HIIALAKAI.all.mb56.gz 3.43MB Simrad multibeam vendor format
0017_20150416_070139_HIIALAKAI.all.mb56.gz 4.77MB Simrad multibeam vendor format
0018_20150126_075551_HIIALAKAI.all.mb56.gz 9.16MB Simrad multibeam vendor format
0018_20150208_174903_HIIALAKAI.all.mb56.gz 7.09MB Simrad multibeam vendor format
0018_20150215_162326_HIIALAKAI.all.mb56.gz 5.56MB Simrad multibeam vendor format
0018_20150217_133747_HIIALAKAI.all.mb56.gz 5.87MB Simrad multibeam vendor format
0018_20150409_133411_HIIALAKAI.all.mb56.gz 4.40MB Simrad multibeam vendor format
0018_20150416_073139_HIIALAKAI.all.mb56.gz 4.70MB Simrad multibeam vendor format
0019_20150126_083658_HIIALAKAI.all.mb56.gz 8.11MB Simrad multibeam vendor format
0019_20150208_181903_HIIALAKAI.all.mb56.gz 10.07MB Simrad multibeam vendor format
0019_20150215_165326_HIIALAKAI.all.mb56.gz 409.2KB Simrad multibeam vendor format
0019_20150217_140747_HIIALAKAI.all.mb56.gz 5.62MB Simrad multibeam vendor format
0019_20150409_140411_HIIALAKAI.all.mb56.gz 4.74MB Simrad multibeam vendor format
0019_20150416_080139_HIIALAKAI.all.mb56.gz 4.66MB Simrad multibeam vendor format
0020_20150126_090658_HIIALAKAI.all.mb56.gz 8.51MB Simrad multibeam vendor format
0020_20150208_184903_HIIALAKAI.all.mb56.gz 8.40MB Simrad multibeam vendor format
0020_20150215_165512_HIIALAKAI.all.mb56.gz 15.0KB Simrad multibeam vendor format
0020_20150217_143747_HIIALAKAI.all.mb56.gz 5.70MB Simrad multibeam vendor format
0020_20150409_143411_HIIALAKAI.all.mb56.gz 4.84MB Simrad multibeam vendor format
0020_20150416_083139_HIIALAKAI.all.mb56.gz 5.70MB Simrad multibeam vendor format
0021_20150126_093658_HIIALAKAI.all.mb56.gz 8.44MB Simrad multibeam vendor format
0021_20150208_191903_HIIALAKAI.all.mb56.gz 8.41MB Simrad multibeam vendor format
0021_20150215_165514_HIIALAKAI.all.mb56.gz 2.84MB Simrad multibeam vendor format
0021_20150217_150747_HIIALAKAI.all.mb56.gz 1.98MB Simrad multibeam vendor format
0021_20150409_150411_HIIALAKAI.all.mb56.gz 5.64MB Simrad multibeam vendor format
0021_20150416_090139_HIIALAKAI.all.mb56.gz 6.11MB Simrad multibeam vendor format
0022_20150126_100659_HIIALAKAI.all.mb56.gz 2.36MB Simrad multibeam vendor format
0022_20150208_194903_HIIALAKAI.all.mb56.gz 8.33MB Simrad multibeam vendor format
0022_20150215_170532_HIIALAKAI.all.mb56.gz 9.34MB Simrad multibeam vendor format
0022_20150217_151814_HIIALAKAI.all.mb56.gz 5.55MB Simrad multibeam vendor format
0022_20150409_153411_HIIALAKAI.all.mb56.gz 7.50MB Simrad multibeam vendor format
0022_20150416_093139_HIIALAKAI.all.mb56.gz 6.13MB Simrad multibeam vendor format
0023_20150126_101630_HIIALAKAI.all.mb56.gz 184.1KB Simrad multibeam vendor format
0023_20150208_201903_HIIALAKAI.all.mb56.gz 7.14MB Simrad multibeam vendor format
0023_20150215_173532_HIIALAKAI.all.mb56.gz 7.37MB Simrad multibeam vendor format
0023_20150217_154814_HIIALAKAI.all.mb56.gz 4.13MB Simrad multibeam vendor format
0023_20150409_160411_HIIALAKAI.all.mb56.gz 8.61MB Simrad multibeam vendor format
0023_20150416_100139_HIIALAKAI.all.mb56.gz 5.62MB Simrad multibeam vendor format
0024_20150126_102104_HIIALAKAI.all.mb56.gz 7.32MB Simrad multibeam vendor format
0024_20150208_204903_HIIALAKAI.all.mb56.gz 6.67MB Simrad multibeam vendor format
0024_20150215_180532_HIIALAKAI.all.mb56.gz 9.09MB Simrad multibeam vendor format
0024_20150217_161130_HIIALAKAI.all.mb56.gz 348.2KB Simrad multibeam vendor format
0024_20150409_163411_HIIALAKAI.all.mb56.gz 7.86MB Simrad multibeam vendor format
0024_20150416_103139_HIIALAKAI.all.mb56.gz 5.40MB Simrad multibeam vendor format
0025_20150126_105104_HIIALAKAI.all.mb56.gz 6.52MB Simrad multibeam vendor format
0025_20150208_211903_HIIALAKAI.all.mb56.gz 7.49MB Simrad multibeam vendor format
0025_20150215_183532_HIIALAKAI.all.mb56.gz 7.73MB Simrad multibeam vendor format
0025_20150217_161327_HIIALAKAI.all.mb56.gz 10.2KB Simrad multibeam vendor format
0025_20150409_170411_HIIALAKAI.all.mb56.gz 9.08MB Simrad multibeam vendor format
0025_20150416_110139_HIIALAKAI.all.mb56.gz 5.05MB Simrad multibeam vendor format
0026_20150126_112104_HIIALAKAI.all.mb56.gz 6.31MB Simrad multibeam vendor format
0026_20150208_214903_HIIALAKAI.all.mb56.gz 6.45MB Simrad multibeam vendor format
0026_20150215_190532_HIIALAKAI.all.mb56.gz 1.07MB Simrad multibeam vendor format
0026_20150217_161333_HIIALAKAI.all.mb56.gz 450.1KB Simrad multibeam vendor format
0026_20150409_173411_HIIALAKAI.all.mb56.gz 7.93MB Simrad multibeam vendor format
0026_20150416_113139_HIIALAKAI.all.mb56.gz 5.55MB Simrad multibeam vendor format
0027_20150126_115105_HIIALAKAI.all.mb56.gz 6.28MB Simrad multibeam vendor format
0027_20150208_221904_HIIALAKAI.all.mb56.gz 7.90MB Simrad multibeam vendor format
0027_20150217_161605_HIIALAKAI.all.mb56.gz 18.1KB Simrad multibeam vendor format
0027_20150219_030257_HIIALAKAI.all.mb56.gz 33.7KB Simrad multibeam vendor format
0027_20150409_180411_HIIALAKAI.all.mb56.gz 7.83MB Simrad multibeam vendor format
0027_20150416_120139_HIIALAKAI.all.mb56.gz 5.57MB Simrad multibeam vendor format
0028_20150126_122105_HIIALAKAI.all.mb56.gz 6.36MB Simrad multibeam vendor format
0028_20150208_224904_HIIALAKAI.all.mb56.gz 2.20MB Simrad multibeam vendor format
0028_20150217_161612_HIIALAKAI.all.mb56.gz 5.37MB Simrad multibeam vendor format
0028_20150219_031152_HIIALAKAI.all.mb56.gz 7.32MB Simrad multibeam vendor format
0028_20150409_183411_HIIALAKAI.all.mb56.gz 8.19MB Simrad multibeam vendor format
0028_20150416_123139_HIIALAKAI.all.mb56.gz 5.86MB Simrad multibeam vendor format
0029_20150126_125105_HIIALAKAI.all.mb56.gz 1.35MB Simrad multibeam vendor format
0029_20150208_225844_HIIALAKAI.all.mb56.gz 7.33MB Simrad multibeam vendor format
0029_20150217_164612_HIIALAKAI.all.mb56.gz 5.85MB Simrad multibeam vendor format
0029_20150219_034152_HIIALAKAI.all.mb56.gz 1.62MB Simrad multibeam vendor format
0029_20150409_190411_HIIALAKAI.all.mb56.gz 8.08MB Simrad multibeam vendor format
0029_20150416_130139_HIIALAKAI.all.mb56.gz 6.10MB Simrad multibeam vendor format
0030_20150126_130149_HIIALAKAI.all.mb56.gz 6.89MB Simrad multibeam vendor format
0030_20150208_232844_HIIALAKAI.all.mb56.gz 7.58MB Simrad multibeam vendor format
0030_20150217_171612_HIIALAKAI.all.mb56.gz 3.86MB Simrad multibeam vendor format
0030_20150219_034953_HIIALAKAI.all.mb56.gz 4.49MB Simrad multibeam vendor format
0030_20150409_193411_HIIALAKAI.all.mb56.gz 7.49MB Simrad multibeam vendor format
0030_20150416_133139_HIIALAKAI.all.mb56.gz 6.06MB Simrad multibeam vendor format
0031_20150126_133149_HIIALAKAI.all.mb56.gz 6.66MB Simrad multibeam vendor format
0031_20150208_235844_HIIALAKAI.all.mb56.gz 6.88MB Simrad multibeam vendor format
0031_20150217_174612_HIIALAKAI.all.mb56.gz 3.87MB Simrad multibeam vendor format
0031_20150219_040606_HIIALAKAI.all.mb56.gz 6.21MB Simrad multibeam vendor format
0031_20150409_200411_HIIALAKAI.all.mb56.gz 6.76MB Simrad multibeam vendor format
0031_20150416_140139_HIIALAKAI.all.mb56.gz 5.10MB Simrad multibeam vendor format
0032_20150126_140149_HIIALAKAI.all.mb56.gz 6.41MB Simrad multibeam vendor format
0032_20150209_002844_HIIALAKAI.all.mb56.gz 7.65MB Simrad multibeam vendor format
0032_20150217_181612_HIIALAKAI.all.mb56.gz 4.53MB Simrad multibeam vendor format
0032_20150219_043606_HIIALAKAI.all.mb56.gz 6.25MB Simrad multibeam vendor format
0032_20150409_203411_HIIALAKAI.all.mb56.gz 9.03MB Simrad multibeam vendor format
0032_20150416_143139_HIIALAKAI.all.mb56.gz 4.99MB Simrad multibeam vendor format
0033_20150126_143149_HIIALAKAI.all.mb56.gz 5.23MB Simrad multibeam vendor format
0033_20150209_005844_HIIALAKAI.all.mb56.gz 6.94MB Simrad multibeam vendor format
0033_20150217_184612_HIIALAKAI.all.mb56.gz 4.24MB Simrad multibeam vendor format
0033_20150219_050606_HIIALAKAI.all.mb56.gz 2.14MB Simrad multibeam vendor format
0033_20150409_210411_HIIALAKAI.all.mb56.gz 8.23MB Simrad multibeam vendor format
0033_20150416_150139_HIIALAKAI.all.mb56.gz 5.47MB Simrad multibeam vendor format
0034_20150126_145613_HIIALAKAI.all.mb56.gz 1.09MB Simrad multibeam vendor format
0034_20150209_012844_HIIALAKAI.all.mb56.gz 7.55MB Simrad multibeam vendor format
0034_20150217_191612_HIIALAKAI.all.mb56.gz 4.15MB Simrad multibeam vendor format
0034_20150219_051745_HIIALAKAI.all.mb56.gz 17.6KB Simrad multibeam vendor format
0034_20150409_213411_HIIALAKAI.all.mb56.gz 6.95MB Simrad multibeam vendor format
0034_20150416_153139_HIIALAKAI.all.mb56.gz 5.94MB Simrad multibeam vendor format
0035_20150126_150120_HIIALAKAI.all.mb56.gz 6.80MB Simrad multibeam vendor format
0035_20150209_015844_HIIALAKAI.all.mb56.gz 8.29MB Simrad multibeam vendor format
0035_20150217_194612_HIIALAKAI.all.mb56.gz 4.01MB Simrad multibeam vendor format
0035_20150219_051749_HIIALAKAI.all.mb56.gz 2.03MB Simrad multibeam vendor format
0035_20150409_220411_HIIALAKAI.all.mb56.gz 11.02MB Simrad multibeam vendor format
0035_20150416_160139_HIIALAKAI.all.mb56.gz 6.16MB Simrad multibeam vendor format
0036_20150126_153120_HIIALAKAI.all.mb56.gz 5.77MB Simrad multibeam vendor format
0036_20150209_022844_HIIALAKAI.all.mb56.gz 7.71MB Simrad multibeam vendor format
0036_20150217_201612_HIIALAKAI.all.mb56.gz 4.45MB Simrad multibeam vendor format
0036_20150219_053026_HIIALAKAI.all.mb56.gz 14.9KB Simrad multibeam vendor format
0036_20150409_223411_HIIALAKAI.all.mb56.gz 7.89MB Simrad multibeam vendor format
0036_20150416_163139_HIIALAKAI.all.mb56.gz 3.54MB Simrad multibeam vendor format
0037_20150126_160120_HIIALAKAI.all.mb56.gz 4.85MB Simrad multibeam vendor format
0037_20150209_025844_HIIALAKAI.all.mb56.gz 8.86MB Simrad multibeam vendor format
0037_20150217_204612_HIIALAKAI.all.mb56.gz 5.55MB Simrad multibeam vendor format
0037_20150219_053033_HIIALAKAI.all.mb56.gz 4.20MB Simrad multibeam vendor format
0037_20150409_230411_HIIALAKAI.all.mb56.gz 7.77MB Simrad multibeam vendor format
0037_20150417_010200_HIIALAKAI.all.mb56.gz 11.14MB Simrad multibeam vendor format
0038_20150126_162639_HIIALAKAI.all.mb56.gz 0.62MB Simrad multibeam vendor format
0038_20150209_032844_HIIALAKAI.all.mb56.gz 7.14MB Simrad multibeam vendor format
0038_20150217_211612_HIIALAKAI.all.mb56.gz 6.85MB Simrad multibeam vendor format
0038_20150219_060033_HIIALAKAI.all.mb56.gz 2.52MB Simrad multibeam vendor format
0038_20150409_233412_HIIALAKAI.all.mb56.gz 8.67MB Simrad multibeam vendor format
0038_20150417_013200_HIIALAKAI.all.mb56.gz 12.58MB Simrad multibeam vendor format
0039_20150127_023250_HIIALAKAI.all.mb56.gz 7.75MB Simrad multibeam vendor format
0039_20150209_035844_HIIALAKAI.all.mb56.gz 6.86MB Simrad multibeam vendor format
0039_20150217_214612_HIIALAKAI.all.mb56.gz 4.54MB Simrad multibeam vendor format
0039_20150219_061820_HIIALAKAI.all.mb56.gz 4.30MB Simrad multibeam vendor format
0039_20150410_000411_HIIALAKAI.all.mb56.gz 10.75MB Simrad multibeam vendor format
0039_20150417_020200_HIIALAKAI.all.mb56.gz 12.08MB Simrad multibeam vendor format
0040_20150127_030250_HIIALAKAI.all.mb56.gz 7.74MB Simrad multibeam vendor format
0040_20150209_042844_HIIALAKAI.all.mb56.gz 7.91MB Simrad multibeam vendor format
0040_20150217_221612_HIIALAKAI.all.mb56.gz 4.25MB Simrad multibeam vendor format
0040_20150219_064820_HIIALAKAI.all.mb56.gz 4.24MB Simrad multibeam vendor format
0040_20150410_003411_HIIALAKAI.all.mb56.gz 10.59MB Simrad multibeam vendor format
0040_20150417_023200_HIIALAKAI.all.mb56.gz 11.56MB Simrad multibeam vendor format
0041_20150127_033251_HIIALAKAI.all.mb56.gz 7.66MB Simrad multibeam vendor format
0041_20150209_045845_HIIALAKAI.all.mb56.gz 5.77MB Simrad multibeam vendor format
0041_20150217_224612_HIIALAKAI.all.mb56.gz 4.78MB Simrad multibeam vendor format
0041_20150219_071820_HIIALAKAI.all.mb56.gz 4.57MB Simrad multibeam vendor format
0041_20150410_010411_HIIALAKAI.all.mb56.gz 9.11MB Simrad multibeam vendor format
0041_20150417_030200_HIIALAKAI.all.mb56.gz 7.61MB Simrad multibeam vendor format
0042_20150127_040251_HIIALAKAI.all.mb56.gz 6.09MB Simrad multibeam vendor format
0042_20150209_052844_HIIALAKAI.all.mb56.gz 4.80MB Simrad multibeam vendor format
0042_20150217_231612_HIIALAKAI.all.mb56.gz 4.52MB Simrad multibeam vendor format
0042_20150219_074820_HIIALAKAI.all.mb56.gz 4.42MB Simrad multibeam vendor format
0042_20150410_013411_HIIALAKAI.all.mb56.gz 8.25MB Simrad multibeam vendor format
0042_20150417_033200_HIIALAKAI.all.mb56.gz 6.54MB Simrad multibeam vendor format
0043_20150127_043251_HIIALAKAI.all.mb56.gz 4.89MB Simrad multibeam vendor format
0043_20150209_055845_HIIALAKAI.all.mb56.gz 4.24MB Simrad multibeam vendor format
0043_20150217_234612_HIIALAKAI.all.mb56.gz 4.71MB Simrad multibeam vendor format
0043_20150219_081820_HIIALAKAI.all.mb56.gz 4.34MB Simrad multibeam vendor format
0043_20150410_020412_HIIALAKAI.all.mb56.gz 8.46MB Simrad multibeam vendor format
0043_20150417_040200_HIIALAKAI.all.mb56.gz 5.01MB Simrad multibeam vendor format
0044_20150127_050251_HIIALAKAI.all.mb56.gz 1.75MB Simrad multibeam vendor format
0044_20150209_062845_HIIALAKAI.all.mb56.gz 4.53MB Simrad multibeam vendor format
0044_20150218_001612_HIIALAKAI.all.mb56.gz 4.79MB Simrad multibeam vendor format
0044_20150219_084820_HIIALAKAI.all.mb56.gz 1.88MB Simrad multibeam vendor format
0044_20150410_023412_HIIALAKAI.all.mb56.gz 8.97MB Simrad multibeam vendor format
0044_20150417_043200_HIIALAKAI.all.mb56.gz 4.71MB Simrad multibeam vendor format
0045_20150127_072111_HIIALAKAI.all.mb56.gz 6.13MB Simrad multibeam vendor format
0045_20150209_065845_HIIALAKAI.all.mb56.gz 4.51MB Simrad multibeam vendor format
0045_20150218_004612_HIIALAKAI.all.mb56.gz 4.84MB Simrad multibeam vendor format
0045_20150219_090041_HIIALAKAI.all.mb56.gz 4.23MB Simrad multibeam vendor format
0045_20150410_030412_HIIALAKAI.all.mb56.gz 4.73MB Simrad multibeam vendor format
0045_20150417_050200_HIIALAKAI.all.mb56.gz 4.89MB Simrad multibeam vendor format
0046_20150127_075111_HIIALAKAI.all.mb56.gz 7.33MB Simrad multibeam vendor format
0046_20150209_072845_HIIALAKAI.all.mb56.gz 4.57MB Simrad multibeam vendor format
0046_20150218_011612_HIIALAKAI.all.mb56.gz 5.14MB Simrad multibeam vendor format
0046_20150219_093040_HIIALAKAI.all.mb56.gz 4.35MB Simrad multibeam vendor format
0046_20150417_053201_HIIALAKAI.all.mb56.gz 4.73MB Simrad multibeam vendor format
0047_20150127_081643_HIIALAKAI.all.mb56.gz 12.03MB Simrad multibeam vendor format
0047_20150209_075845_HIIALAKAI.all.mb56.gz 4.62MB Simrad multibeam vendor format
0047_20150218_014612_HIIALAKAI.all.mb56.gz 3.54MB Simrad multibeam vendor format
0047_20150219_100041_HIIALAKAI.all.mb56.gz 4.24MB Simrad multibeam vendor format
0047_20150417_060201_HIIALAKAI.all.mb56.gz 4.55MB Simrad multibeam vendor format
0048_20150127_084643_HIIALAKAI.all.mb56.gz 9.08MB Simrad multibeam vendor format
0048_20150209_082845_HIIALAKAI.all.mb56.gz 4.21MB Simrad multibeam vendor format
0048_20150218_020744_HIIALAKAI.all.mb56.gz 67.1KB Simrad multibeam vendor format
0048_20150219_103041_HIIALAKAI.all.mb56.gz 3.96MB Simrad multibeam vendor format
0048_20150417_063201_HIIALAKAI.all.mb56.gz 4.84MB Simrad multibeam vendor format
0049_20150127_091643_HIIALAKAI.all.mb56.gz 2.50MB Simrad multibeam vendor format
0049_20150209_085845_HIIALAKAI.all.mb56.gz 4.60MB Simrad multibeam vendor format
0049_20150218_024549_HIIALAKAI.all.mb56.gz 19.97MB Simrad multibeam vendor format
0049_20150219_110041_HIIALAKAI.all.mb56.gz 4.09MB Simrad multibeam vendor format
0049_20150410_055815_HIIALAKAI.all.mb56.gz 5.03MB Simrad multibeam vendor format
0049_20150417_070201_HIIALAKAI.all.mb56.gz 4.49MB Simrad multibeam vendor format
0050_20150127_092539_HIIALAKAI.all.mb56.gz 0.59MB Simrad multibeam vendor format
0050_20150209_092845_HIIALAKAI.all.mb56.gz 4.71MB Simrad multibeam vendor format
0050_20150218_031549_HIIALAKAI.all.mb56.gz 19.58MB Simrad multibeam vendor format
0050_20150219_113041_HIIALAKAI.all.mb56.gz 4.20MB Simrad multibeam vendor format
0050_20150410_062815_HIIALAKAI.all.mb56.gz 4.34MB Simrad multibeam vendor format
0050_20150417_073201_HIIALAKAI.all.mb56.gz 4.49MB Simrad multibeam vendor format
0051_20150127_093029_HIIALAKAI.all.mb56.gz 7.31MB Simrad multibeam vendor format
0051_20150209_095845_HIIALAKAI.all.mb56.gz 4.58MB Simrad multibeam vendor format
0051_20150218_034549_HIIALAKAI.all.mb56.gz 19.95MB Simrad multibeam vendor format
0051_20150219_120041_HIIALAKAI.all.mb56.gz 4.12MB Simrad multibeam vendor format
0051_20150410_065815_HIIALAKAI.all.mb56.gz 3.79MB Simrad multibeam vendor format
0051_20150417_080201_HIIALAKAI.all.mb56.gz 4.80MB Simrad multibeam vendor format
0052_20150127_100029_HIIALAKAI.all.mb56.gz 7.34MB Simrad multibeam vendor format
0052_20150209_102845_HIIALAKAI.all.mb56.gz 4.04MB Simrad multibeam vendor format
0052_20150218_041549_HIIALAKAI.all.mb56.gz 12.77MB Simrad multibeam vendor format
0052_20150219_123041_HIIALAKAI.all.mb56.gz 4.45MB Simrad multibeam vendor format
0052_20150410_072815_HIIALAKAI.all.mb56.gz 4.34MB Simrad multibeam vendor format
0052_20150417_083201_HIIALAKAI.all.mb56.gz 5.24MB Simrad multibeam vendor format
0053_20150127_103029_HIIALAKAI.all.mb56.gz 5.15MB Simrad multibeam vendor format
0053_20150209_105845_HIIALAKAI.all.mb56.gz 4.31MB Simrad multibeam vendor format
0053_20150218_044549_HIIALAKAI.all.mb56.gz 3.01MB Simrad multibeam vendor format
0053_20150219_130041_HIIALAKAI.all.mb56.gz 4.43MB Simrad multibeam vendor format
0053_20150410_075815_HIIALAKAI.all.mb56.gz 3.97MB Simrad multibeam vendor format
0053_20150417_090201_HIIALAKAI.all.mb56.gz 4.76MB Simrad multibeam vendor format
0054_20150127_105132_HIIALAKAI.all.mb56.gz 0.65MB Simrad multibeam vendor format
0054_20150209_112845_HIIALAKAI.all.mb56.gz 4.67MB Simrad multibeam vendor format
0054_20150218_050628_HIIALAKAI.all.mb56.gz 4.7KB Simrad multibeam vendor format
0054_20150219_133041_HIIALAKAI.all.mb56.gz 4.20MB Simrad multibeam vendor format
0054_20150410_082815_HIIALAKAI.all.mb56.gz 4.41MB Simrad multibeam vendor format
0054_20150417_093201_HIIALAKAI.all.mb56.gz 5.15MB Simrad multibeam vendor format
0055_20150127_105830_HIIALAKAI.all.mb56.gz 142.3KB Simrad multibeam vendor format
0055_20150209_115845_HIIALAKAI.all.mb56.gz 4.18MB Simrad multibeam vendor format
0055_20150219_140041_HIIALAKAI.all.mb56.gz 4.18MB Simrad multibeam vendor format
0055_20150221_173143_HIIALAKAI.all.mb56.gz 3.47MB Simrad multibeam vendor format
0055_20150410_085815_HIIALAKAI.all.mb56.gz 3.88MB Simrad multibeam vendor format
0055_20150417_100201_HIIALAKAI.all.mb56.gz 5.35MB Simrad multibeam vendor format
0056_20150127_110324_HIIALAKAI.all.mb56.gz 7.18MB Simrad multibeam vendor format
0056_20150209_122845_HIIALAKAI.all.mb56.gz 4.62MB Simrad multibeam vendor format
0056_20150219_143041_HIIALAKAI.all.mb56.gz 3.97MB Simrad multibeam vendor format
0056_20150221_180143_HIIALAKAI.all.mb56.gz 3.46MB Simrad multibeam vendor format
0056_20150410_092815_HIIALAKAI.all.mb56.gz 4.61MB Simrad multibeam vendor format
0056_20150417_103201_HIIALAKAI.all.mb56.gz 4.92MB Simrad multibeam vendor format
0057_20150127_113324_HIIALAKAI.all.mb56.gz 6.05MB Simrad multibeam vendor format
0057_20150209_125845_HIIALAKAI.all.mb56.gz 4.40MB Simrad multibeam vendor format
0057_20150219_150041_HIIALAKAI.all.mb56.gz 4.23MB Simrad multibeam vendor format
0057_20150221_183143_HIIALAKAI.all.mb56.gz 3.55MB Simrad multibeam vendor format
0057_20150410_095815_HIIALAKAI.all.mb56.gz 4.40MB Simrad multibeam vendor format
0057_20150417_110201_HIIALAKAI.all.mb56.gz 4.12MB Simrad multibeam vendor format
0058_20150127_120325_HIIALAKAI.all.mb56.gz 5.96MB Simrad multibeam vendor format
0058_20150209_132845_HIIALAKAI.all.mb56.gz 4.07MB Simrad multibeam vendor format
0058_20150219_153041_HIIALAKAI.all.mb56.gz 3.97MB Simrad multibeam vendor format
0058_20150221_190143_HIIALAKAI.all.mb56.gz 3.88MB Simrad multibeam vendor format
0058_20150410_102815_HIIALAKAI.all.mb56.gz 4.62MB Simrad multibeam vendor format
0058_20150417_113201_HIIALAKAI.all.mb56.gz 4.21MB Simrad multibeam vendor format
0059_20150127_123325_HIIALAKAI.all.mb56.gz 421.3KB Simrad multibeam vendor format
0059_20150209_135845_HIIALAKAI.all.mb56.gz 4.39MB Simrad multibeam vendor format
0059_20150219_160041_HIIALAKAI.all.mb56.gz 3.77MB Simrad multibeam vendor format
0059_20150221_193143_HIIALAKAI.all.mb56.gz 9.65MB Simrad multibeam vendor format
0059_20150410_105815_HIIALAKAI.all.mb56.gz 3.87MB Simrad multibeam vendor format
0059_20150417_120201_HIIALAKAI.all.mb56.gz 4.79MB Simrad multibeam vendor format
0060_20150127_123911_HIIALAKAI.all.mb56.gz 5.78MB Simrad multibeam vendor format
0060_20150209_142845_HIIALAKAI.all.mb56.gz 4.69MB Simrad multibeam vendor format
0060_20150219_163041_HIIALAKAI.all.mb56.gz 4.28MB Simrad multibeam vendor format
0060_20150221_200143_HIIALAKAI.all.mb56.gz 19.56MB Simrad multibeam vendor format
0060_20150410_112816_HIIALAKAI.all.mb56.gz 3.77MB Simrad multibeam vendor format
0060_20150417_123201_HIIALAKAI.all.mb56.gz 5.11MB Simrad multibeam vendor format
0061_20150127_130911_HIIALAKAI.all.mb56.gz 0.97MB Simrad multibeam vendor format
0061_20150209_145845_HIIALAKAI.all.mb56.gz 4.22MB Simrad multibeam vendor format
0061_20150219_170041_HIIALAKAI.all.mb56.gz 6.62MB Simrad multibeam vendor format
0061_20150221_203143_HIIALAKAI.all.mb56.gz 7.38MB Simrad multibeam vendor format
0061_20150410_115816_HIIALAKAI.all.mb56.gz 4.21MB Simrad multibeam vendor format
0061_20150417_130201_HIIALAKAI.all.mb56.gz 4.53MB Simrad multibeam vendor format
0062_20150127_131723_HIIALAKAI.all.mb56.gz 6.03MB Simrad multibeam vendor format
0062_20150209_152845_HIIALAKAI.all.mb56.gz 4.40MB Simrad multibeam vendor format
0062_20150219_173041_HIIALAKAI.all.mb56.gz 7.94MB Simrad multibeam vendor format
0062_20150221_210143_HIIALAKAI.all.mb56.gz 6.24MB Simrad multibeam vendor format
0062_20150410_122816_HIIALAKAI.all.mb56.gz 3.99MB Simrad multibeam vendor format
0062_20150417_133201_HIIALAKAI.all.mb56.gz 5.08MB Simrad multibeam vendor format
0063_20150127_134723_HIIALAKAI.all.mb56.gz 5.90MB Simrad multibeam vendor format
0063_20150209_155846_HIIALAKAI.all.mb56.gz 4.11MB Simrad multibeam vendor format
0063_20150219_180041_HIIALAKAI.all.mb56.gz 7.93MB Simrad multibeam vendor format
0063_20150221_213143_HIIALAKAI.all.mb56.gz 7.80MB Simrad multibeam vendor format
0063_20150410_125816_HIIALAKAI.all.mb56.gz 3.93MB Simrad multibeam vendor format
0063_20150417_140201_HIIALAKAI.all.mb56.gz 4.65MB Simrad multibeam vendor format
0064_20150127_141723_HIIALAKAI.all.mb56.gz 5.71MB Simrad multibeam vendor format
0064_20150209_162845_HIIALAKAI.all.mb56.gz 5.21MB Simrad multibeam vendor format
0064_20150219_183041_HIIALAKAI.all.mb56.gz 8.19MB Simrad multibeam vendor format
0064_20150221_220143_HIIALAKAI.all.mb56.gz 18.73MB Simrad multibeam vendor format
0064_20150410_132816_HIIALAKAI.all.mb56.gz 4.19MB Simrad multibeam vendor format
0064_20150417_143201_HIIALAKAI.all.mb56.gz 4.95MB Simrad multibeam vendor format
0065_20150127_144723_HIIALAKAI.all.mb56.gz 5.90MB Simrad multibeam vendor format
0065_20150209_165845_HIIALAKAI.all.mb56.gz 7.52MB Simrad multibeam vendor format
0065_20150219_190041_HIIALAKAI.all.mb56.gz 7.85MB Simrad multibeam vendor format
0065_20150221_223143_HIIALAKAI.all.mb56.gz 20.56MB Simrad multibeam vendor format
0065_20150410_135816_HIIALAKAI.all.mb56.gz 4.33MB Simrad multibeam vendor format
0065_20150417_150201_HIIALAKAI.all.mb56.gz 6.32MB Simrad multibeam vendor format
0066_20150127_151723_HIIALAKAI.all.mb56.gz 5.89MB Simrad multibeam vendor format
0066_20150209_172845_HIIALAKAI.all.mb56.gz 7.93MB Simrad multibeam vendor format
0066_20150219_193041_HIIALAKAI.all.mb56.gz 7.57MB Simrad multibeam vendor format
0066_20150221_230143_HIIALAKAI.all.mb56.gz 21.73MB Simrad multibeam vendor format
0066_20150410_142816_HIIALAKAI.all.mb56.gz 8.02MB Simrad multibeam vendor format
0066_20150417_153201_HIIALAKAI.all.mb56.gz 9.99MB Simrad multibeam vendor format
0067_20150127_154723_HIIALAKAI.all.mb56.gz 5.75MB Simrad multibeam vendor format
0067_20150209_175845_HIIALAKAI.all.mb56.gz 7.78MB Simrad multibeam vendor format
0067_20150219_200041_HIIALAKAI.all.mb56.gz 6.98MB Simrad multibeam vendor format
0067_20150221_233143_HIIALAKAI.all.mb56.gz 7.14MB Simrad multibeam vendor format
0067_20150410_145816_HIIALAKAI.all.mb56.gz 15.45MB Simrad multibeam vendor format
0067_20150417_160201_HIIALAKAI.all.mb56.gz 7.98MB Simrad multibeam vendor format
0068_20150127_161723_HIIALAKAI.all.mb56.gz 6.19MB Simrad multibeam vendor format
0068_20150209_182845_HIIALAKAI.all.mb56.gz 7.73MB Simrad multibeam vendor format
0068_20150219_203041_HIIALAKAI.all.mb56.gz 8.99MB Simrad multibeam vendor format
0068_20150227_045925_HIIALAKAI.all.mb56.gz 5.05MB Simrad multibeam vendor format
0068_20150410_152816_HIIALAKAI.all.mb56.gz 10.71MB Simrad multibeam vendor format
0068_20150417_163201_HIIALAKAI.all.mb56.gz 8.59MB Simrad multibeam vendor format
0069_20150127_164723_HIIALAKAI.all.mb56.gz 7.63MB Simrad multibeam vendor format
0069_20150209_185845_HIIALAKAI.all.mb56.gz 8.24MB Simrad multibeam vendor format
0069_20150219_210041_HIIALAKAI.all.mb56.gz 7.25MB Simrad multibeam vendor format
0069_20150227_052925_HIIALAKAI.all.mb56.gz 4.72MB Simrad multibeam vendor format
0069_20150410_155816_HIIALAKAI.all.mb56.gz 0.73MB Simrad multibeam vendor format
0069_20150417_170201_HIIALAKAI.all.mb56.gz 8.18MB Simrad multibeam vendor format
0070_20150127_171723_HIIALAKAI.all.mb56.gz 7.60MB Simrad multibeam vendor format
0070_20150209_192845_HIIALAKAI.all.mb56.gz 7.66MB Simrad multibeam vendor format
0070_20150219_213041_HIIALAKAI.all.mb56.gz 8.15MB Simrad multibeam vendor format
0070_20150227_055925_HIIALAKAI.all.mb56.gz 4.87MB Simrad multibeam vendor format
0070_20150410_160102_HIIALAKAI.all.mb56.gz 28.6KB Simrad multibeam vendor format
0070_20150417_173201_HIIALAKAI.all.mb56.gz 9.45MB Simrad multibeam vendor format
0071_20150127_174723_HIIALAKAI.all.mb56.gz 7.60MB Simrad multibeam vendor format
0071_20150209_195845_HIIALAKAI.all.mb56.gz 7.82MB Simrad multibeam vendor format
0071_20150219_220041_HIIALAKAI.all.mb56.gz 8.40MB Simrad multibeam vendor format
0071_20150227_062925_HIIALAKAI.all.mb56.gz 5.19MB Simrad multibeam vendor format
0071_20150411_062434_HIIALAKAI.all.mb56.gz 6.80MB Simrad multibeam vendor format
0071_20150417_180201_HIIALAKAI.all.mb56.gz 12.59MB Simrad multibeam vendor format
0072_20150127_181723_HIIALAKAI.all.mb56.gz 7.25MB Simrad multibeam vendor format
0072_20150209_202846_HIIALAKAI.all.mb56.gz 6.82MB Simrad multibeam vendor format
0072_20150219_223041_HIIALAKAI.all.mb56.gz 7.25MB Simrad multibeam vendor format
0072_20150227_065828_HIIALAKAI.all.mb56.gz 2.95MB Simrad multibeam vendor format
0072_20150411_065434_HIIALAKAI.all.mb56.gz 1.04MB Simrad multibeam vendor format
0072_20150417_183201_HIIALAKAI.all.mb56.gz 11.44MB Simrad multibeam vendor format
0073_20150127_184723_HIIALAKAI.all.mb56.gz 2.78MB Simrad multibeam vendor format
0073_20150209_205846_HIIALAKAI.all.mb56.gz 6.25MB Simrad multibeam vendor format
0073_20150219_230041_HIIALAKAI.all.mb56.gz 7.82MB Simrad multibeam vendor format
0073_20150227_071747_HIIALAKAI.all.mb56.gz 4.81MB Simrad multibeam vendor format
0073_20150411_065939_HIIALAKAI.all.mb56.gz 14.8KB Simrad multibeam vendor format
0073_20150417_190201_HIIALAKAI.all.mb56.gz 11.87MB Simrad multibeam vendor format
0074_20150128_020614_HIIALAKAI.all.mb56.gz 0.73MB Simrad multibeam vendor format
0074_20150209_212846_HIIALAKAI.all.mb56.gz 8.12MB Simrad multibeam vendor format
0074_20150219_233041_HIIALAKAI.all.mb56.gz 8.38MB Simrad multibeam vendor format
0074_20150227_074747_HIIALAKAI.all.mb56.gz 4.76MB Simrad multibeam vendor format
0074_20150411_065943_HIIALAKAI.all.mb56.gz 6.66MB Simrad multibeam vendor format
0074_20150417_193201_HIIALAKAI.all.mb56.gz 10.84MB Simrad multibeam vendor format
0075_20150128_021028_HIIALAKAI.all.mb56.gz 5.39MB Simrad multibeam vendor format
0075_20150209_215846_HIIALAKAI.all.mb56.gz 7.94MB Simrad multibeam vendor format
0075_20150220_000041_HIIALAKAI.all.mb56.gz 6.85MB Simrad multibeam vendor format
0075_20150227_081747_HIIALAKAI.all.mb56.gz 4.50MB Simrad multibeam vendor format
0075_20150411_072943_HIIALAKAI.all.mb56.gz 8.34MB Simrad multibeam vendor format
0075_20150417_200201_HIIALAKAI.all.mb56.gz 8.85MB Simrad multibeam vendor format
0076_20150128_024028_HIIALAKAI.all.mb56.gz 6.87MB Simrad multibeam vendor format
0076_20150209_222846_HIIALAKAI.all.mb56.gz 6.67MB Simrad multibeam vendor format
0076_20150220_003042_HIIALAKAI.all.mb56.gz 8.72MB Simrad multibeam vendor format
0076_20150227_084747_HIIALAKAI.all.mb56.gz 4.42MB Simrad multibeam vendor format
0076_20150411_075943_HIIALAKAI.all.mb56.gz 6.90MB Simrad multibeam vendor format
0076_20150417_203202_HIIALAKAI.all.mb56.gz 7.77MB Simrad multibeam vendor format
0077_20150128_031028_HIIALAKAI.all.mb56.gz 6.69MB Simrad multibeam vendor format
0077_20150209_225846_HIIALAKAI.all.mb56.gz 7.91MB Simrad multibeam vendor format
0077_20150220_010042_HIIALAKAI.all.mb56.gz 7.64MB Simrad multibeam vendor format
0077_20150227_091747_HIIALAKAI.all.mb56.gz 4.44MB Simrad multibeam vendor format
0077_20150411_082943_HIIALAKAI.all.mb56.gz 4.83MB Simrad multibeam vendor format
0077_20150417_210202_HIIALAKAI.all.mb56.gz 7.50MB Simrad multibeam vendor format
0078_20150128_034028_HIIALAKAI.all.mb56.gz 7.56MB Simrad multibeam vendor format
0078_20150209_232846_HIIALAKAI.all.mb56.gz 8.30MB Simrad multibeam vendor format
0078_20150220_013042_HIIALAKAI.all.mb56.gz 8.11MB Simrad multibeam vendor format
0078_20150227_094747_HIIALAKAI.all.mb56.gz 1.62MB Simrad multibeam vendor format
0078_20150411_085943_HIIALAKAI.all.mb56.gz 4.54MB Simrad multibeam vendor format
0078_20150417_213202_HIIALAKAI.all.mb56.gz 7.93MB Simrad multibeam vendor format
0079_20150128_041028_HIIALAKAI.all.mb56.gz 6.55MB Simrad multibeam vendor format
0079_20150209_235846_HIIALAKAI.all.mb56.gz 8.08MB Simrad multibeam vendor format
0079_20150220_020042_HIIALAKAI.all.mb56.gz 7.64MB Simrad multibeam vendor format
0079_20150227_095902_HIIALAKAI.all.mb56.gz 1.26MB Simrad multibeam vendor format
0079_20150411_092943_HIIALAKAI.all.mb56.gz 6.33MB Simrad multibeam vendor format
0079_20150417_220202_HIIALAKAI.all.mb56.gz 9.46MB Simrad multibeam vendor format
0080_20150128_044028_HIIALAKAI.all.mb56.gz 6.23MB Simrad multibeam vendor format
0080_20150210_002846_HIIALAKAI.all.mb56.gz 7.59MB Simrad multibeam vendor format
0080_20150220_023042_HIIALAKAI.all.mb56.gz 2.71MB Simrad multibeam vendor format
0080_20150227_100749_HIIALAKAI.all.mb56.gz 2.01MB Simrad multibeam vendor format
0080_20150411_095943_HIIALAKAI.all.mb56.gz 6.07MB Simrad multibeam vendor format
0080_20150417_223202_HIIALAKAI.all.mb56.gz 9.73MB Simrad multibeam vendor format
0081_20150128_051029_HIIALAKAI.all.mb56.gz 5.81MB Simrad multibeam vendor format
0081_20150210_005846_HIIALAKAI.all.mb56.gz 6.80MB Simrad multibeam vendor format
0081_20150220_030534_HIIALAKAI.all.mb56.gz 8.35MB Simrad multibeam vendor format
0081_20150227_102116_HIIALAKAI.all.mb56.gz 4.39MB Simrad multibeam vendor format
0081_20150411_102943_HIIALAKAI.all.mb56.gz 4.62MB Simrad multibeam vendor format
0081_20150417_230202_HIIALAKAI.all.mb56.gz 9.40MB Simrad multibeam vendor format
0082_20150128_054028_HIIALAKAI.all.mb56.gz 5.08MB Simrad multibeam vendor format
0082_20150210_012846_HIIALAKAI.all.mb56.gz 7.35MB Simrad multibeam vendor format
0082_20150220_033534_HIIALAKAI.all.mb56.gz 8.03MB Simrad multibeam vendor format
0082_20150227_105116_HIIALAKAI.all.mb56.gz 4.50MB Simrad multibeam vendor format
0082_20150411_105943_HIIALAKAI.all.mb56.gz 2.64MB Simrad multibeam vendor format
0082_20150417_233202_HIIALAKAI.all.mb56.gz 9.18MB Simrad multibeam vendor format
0083_20150128_061028_HIIALAKAI.all.mb56.gz 4.99MB Simrad multibeam vendor format
0083_20150210_015846_HIIALAKAI.all.mb56.gz 4.87MB Simrad multibeam vendor format
0083_20150220_040534_HIIALAKAI.all.mb56.gz 3.93MB Simrad multibeam vendor format
0083_20150227_112116_HIIALAKAI.all.mb56.gz 4.57MB Simrad multibeam vendor format
0083_20150411_112944_HIIALAKAI.all.mb56.gz 2.56MB Simrad multibeam vendor format
0083_20150418_000202_HIIALAKAI.all.mb56.gz 8.23MB Simrad multibeam vendor format
0084_20150128_064028_HIIALAKAI.all.mb56.gz 5.11MB Simrad multibeam vendor format
0084_20150210_024054_HIIALAKAI.all.mb56.gz 8.95MB Simrad multibeam vendor format
0084_20150227_115116_HIIALAKAI.all.mb56.gz 4.62MB Simrad multibeam vendor format
0084_20150411_115944_HIIALAKAI.all.mb56.gz 2.53MB Simrad multibeam vendor format
0084_20150418_003202_HIIALAKAI.all.mb56.gz 7.48MB Simrad multibeam vendor format
0085_20150128_071028_HIIALAKAI.all.mb56.gz 7.37MB Simrad multibeam vendor format
0085_20150210_031054_HIIALAKAI.all.mb56.gz 7.87MB Simrad multibeam vendor format
0085_20150227_122116_HIIALAKAI.all.mb56.gz 4.90MB Simrad multibeam vendor format
0085_20150411_122944_HIIALAKAI.all.mb56.gz 2.53MB Simrad multibeam vendor format
0085_20150418_010202_HIIALAKAI.all.mb56.gz 1.26MB Simrad multibeam vendor format
0086_20150128_074028_HIIALAKAI.all.mb56.gz 9.89MB Simrad multibeam vendor format
0086_20150210_034054_HIIALAKAI.all.mb56.gz 8.03MB Simrad multibeam vendor format
0086_20150220_062650_HIIALAKAI.all.mb56.gz 4.3KB Simrad multibeam vendor format
0086_20150227_125116_HIIALAKAI.all.mb56.gz 6.11MB Simrad multibeam vendor format
0086_20150411_125944_HIIALAKAI.all.mb56.gz 2.53MB Simrad multibeam vendor format
0086_20150418_011352_HIIALAKAI.all.mb56.gz 10.76MB Simrad multibeam vendor format
0087_20150128_081029_HIIALAKAI.all.mb56.gz 1.41MB Simrad multibeam vendor format
0087_20150210_041054_HIIALAKAI.all.mb56.gz 6.36MB Simrad multibeam vendor format
0087_20150227_132116_HIIALAKAI.all.mb56.gz 5.86MB Simrad multibeam vendor format
0087_20150411_132944_HIIALAKAI.all.mb56.gz 2.53MB Simrad multibeam vendor format
0087_20150418_014352_HIIALAKAI.all.mb56.gz 10.90MB Simrad multibeam vendor format
0088_20150128_081410_HIIALAKAI.all.mb56.gz 7.07MB Simrad multibeam vendor format
0088_20150210_044054_HIIALAKAI.all.mb56.gz 5.25MB Simrad multibeam vendor format
0088_20150227_135116_HIIALAKAI.all.mb56.gz 5.65MB Simrad multibeam vendor format
0088_20150411_135944_HIIALAKAI.all.mb56.gz 2.53MB Simrad multibeam vendor format
0088_20150418_021352_HIIALAKAI.all.mb56.gz 8.39MB Simrad multibeam vendor format
0089_20150128_084410_HIIALAKAI.all.mb56.gz 4.83MB Simrad multibeam vendor format
0089_20150210_051054_HIIALAKAI.all.mb56.gz 48.8KB Simrad multibeam vendor format
0089_20150220_063226_HIIALAKAI.all.mb56.gz 4.64MB Simrad multibeam vendor format
0089_20150227_142116_HIIALAKAI.all.mb56.gz 5.28MB Simrad multibeam vendor format
0089_20150411_142944_HIIALAKAI.all.mb56.gz 2.53MB Simrad multibeam vendor format
0089_20150418_024352_HIIALAKAI.all.mb56.gz 7.00MB Simrad multibeam vendor format
0090_20150128_091410_HIIALAKAI.all.mb56.gz 3.67MB Simrad multibeam vendor format
0090_20150210_051114_HIIALAKAI.all.mb56.gz 4.52MB Simrad multibeam vendor format
0090_20150220_070226_HIIALAKAI.all.mb56.gz 5.33MB Simrad multibeam vendor format
0090_20150227_145117_HIIALAKAI.all.mb56.gz 5.31MB Simrad multibeam vendor format
0090_20150411_145944_HIIALAKAI.all.mb56.gz 2.52MB Simrad multibeam vendor format
0090_20150418_031352_HIIALAKAI.all.mb56.gz 4.69MB Simrad multibeam vendor format
0091_20150128_094410_HIIALAKAI.all.mb56.gz 4.81MB Simrad multibeam vendor format
0091_20150210_054114_HIIALAKAI.all.mb56.gz 3.89MB Simrad multibeam vendor format
0091_20150220_073226_HIIALAKAI.all.mb56.gz 5.73MB Simrad multibeam vendor format
0091_20150227_152117_HIIALAKAI.all.mb56.gz 5.21MB Simrad multibeam vendor format
0091_20150411_152944_HIIALAKAI.all.mb56.gz 223.9KB Simrad multibeam vendor format
0091_20150418_034353_HIIALAKAI.all.mb56.gz 2.81MB Simrad multibeam vendor format
0092_20150128_101410_HIIALAKAI.all.mb56.gz 7.53MB Simrad multibeam vendor format
0092_20150210_061114_HIIALAKAI.all.mb56.gz 0.94MB Simrad multibeam vendor format
0092_20150220_080226_HIIALAKAI.all.mb56.gz 5.53MB Simrad multibeam vendor format
0092_20150227_155117_HIIALAKAI.all.mb56.gz 5.16MB Simrad multibeam vendor format
0092_20150412_031912_HIIALAKAI.all.mb56.gz 3.65MB Simrad multibeam vendor format
0093_20150128_104410_HIIALAKAI.all.mb56.gz 6.39MB Simrad multibeam vendor format
0093_20150210_061816_HIIALAKAI.all.mb56.gz 4.51MB Simrad multibeam vendor format
0093_20150220_083226_HIIALAKAI.all.mb56.gz 5.82MB Simrad multibeam vendor format
0093_20150227_162117_HIIALAKAI.all.mb56.gz 5.63MB Simrad multibeam vendor format
0093_20150418_060436_HIIALAKAI.all.mb56.gz 1.44MB Simrad multibeam vendor format
0094_20150128_110930_HIIALAKAI.all.mb56.gz 125.8KB Simrad multibeam vendor format
0094_20150210_064816_HIIALAKAI.all.mb56.gz 4.14MB Simrad multibeam vendor format
0094_20150220_090226_HIIALAKAI.all.mb56.gz 6.80MB Simrad multibeam vendor format
0094_20150227_165117_HIIALAKAI.all.mb56.gz 5.83MB Simrad multibeam vendor format
0094_20150412_055459_HIIALAKAI.all.mb56.gz 4.55MB Simrad multibeam vendor format
0094_20150418_061832_HIIALAKAI.all.mb56.gz 99.9KB Simrad multibeam vendor format
0095_20150128_111105_HIIALAKAI.all.mb56.gz 6.88MB Simrad multibeam vendor format
0095_20150210_071816_HIIALAKAI.all.mb56.gz 4.40MB Simrad multibeam vendor format
0095_20150220_093226_HIIALAKAI.all.mb56.gz 5.88MB Simrad multibeam vendor format
0095_20150227_172117_HIIALAKAI.all.mb56.gz 4.49MB Simrad multibeam vendor format
0095_20150412_062459_HIIALAKAI.all.mb56.gz 4.71MB Simrad multibeam vendor format
0095_20150418_062028_HIIALAKAI.all.mb56.gz 2.78MB Simrad multibeam vendor format
0096_20150128_114105_HIIALAKAI.all.mb56.gz 6.24MB Simrad multibeam vendor format
0096_20150210_074816_HIIALAKAI.all.mb56.gz 4.33MB Simrad multibeam vendor format
0096_20150220_100412_HIIALAKAI.all.mb56.gz 33.3KB Simrad multibeam vendor format
0096_20150227_175117_HIIALAKAI.all.mb56.gz 4.41MB Simrad multibeam vendor format
0096_20150412_065459_HIIALAKAI.all.mb56.gz 4.93MB Simrad multibeam vendor format
0096_20150418_064446_HIIALAKAI.all.mb56.gz 5.89MB Simrad multibeam vendor format
0097_20150128_121105_HIIALAKAI.all.mb56.gz 5.29MB Simrad multibeam vendor format
0097_20150210_081816_HIIALAKAI.all.mb56.gz 4.02MB Simrad multibeam vendor format
0097_20150220_100426_HIIALAKAI.all.mb56.gz 79.7KB Simrad multibeam vendor format
0097_20150227_182117_HIIALAKAI.all.mb56.gz 4.30MB Simrad multibeam vendor format
0097_20150412_072459_HIIALAKAI.all.mb56.gz 5.27MB Simrad multibeam vendor format
0097_20150418_071447_HIIALAKAI.all.mb56.gz 4.53MB Simrad multibeam vendor format
0098_20150128_124105_HIIALAKAI.all.mb56.gz 5.60MB Simrad multibeam vendor format
0098_20150210_084816_HIIALAKAI.all.mb56.gz 4.12MB Simrad multibeam vendor format
0098_20150220_100610_HIIALAKAI.all.mb56.gz 147.0KB Simrad multibeam vendor format
0098_20150227_185117_HIIALAKAI.all.mb56.gz 4.11MB Simrad multibeam vendor format
0098_20150412_075459_HIIALAKAI.all.mb56.gz 5.30MB Simrad multibeam vendor format
0098_20150418_074447_HIIALAKAI.all.mb56.gz 2.88MB Simrad multibeam vendor format
0099_20150128_131105_HIIALAKAI.all.mb56.gz 5.69MB Simrad multibeam vendor format
0099_20150210_091816_HIIALAKAI.all.mb56.gz 4.56MB Simrad multibeam vendor format
0099_20150220_100927_HIIALAKAI.all.mb56.gz 13.4KB Simrad multibeam vendor format
0099_20150227_192117_HIIALAKAI.all.mb56.gz 4.37MB Simrad multibeam vendor format
0099_20150412_082459_HIIALAKAI.all.mb56.gz 5.45MB Simrad multibeam vendor format
0099_20150418_080531_HIIALAKAI.all.mb56.gz 4.48MB Simrad multibeam vendor format
0100_20150128_134105_HIIALAKAI.all.mb56.gz 6.20MB Simrad multibeam vendor format
0100_20150210_094816_HIIALAKAI.all.mb56.gz 4.12MB Simrad multibeam vendor format
0100_20150220_100930_HIIALAKAI.all.mb56.gz 5.26MB Simrad multibeam vendor format
0100_20150227_195117_HIIALAKAI.all.mb56.gz 4.58MB Simrad multibeam vendor format
0100_20150412_085459_HIIALAKAI.all.mb56.gz 4.50MB Simrad multibeam vendor format
0100_20150418_083531_HIIALAKAI.all.mb56.gz 4.37MB Simrad multibeam vendor format
0101_20150128_141105_HIIALAKAI.all.mb56.gz 6.18MB Simrad multibeam vendor format
0101_20150210_101816_HIIALAKAI.all.mb56.gz 4.30MB Simrad multibeam vendor format
0101_20150220_103930_HIIALAKAI.all.mb56.gz 5.24MB Simrad multibeam vendor format
0101_20150227_202117_HIIALAKAI.all.mb56.gz 4.33MB Simrad multibeam vendor format
0101_20150412_092459_HIIALAKAI.all.mb56.gz 4.83MB Simrad multibeam vendor format
0101_20150418_090531_HIIALAKAI.all.mb56.gz 4.78MB Simrad multibeam vendor format
0102_20150128_144105_HIIALAKAI.all.mb56.gz 3.96MB Simrad multibeam vendor format
0102_20150210_104816_HIIALAKAI.all.mb56.gz 3.88MB Simrad multibeam vendor format
0102_20150220_110930_HIIALAKAI.all.mb56.gz 4.92MB Simrad multibeam vendor format
0102_20150227_205117_HIIALAKAI.all.mb56.gz 4.43MB Simrad multibeam vendor format
0102_20150412_095459_HIIALAKAI.all.mb56.gz 4.63MB Simrad multibeam vendor format
0102_20150418_093531_HIIALAKAI.all.mb56.gz 5.38MB Simrad multibeam vendor format
0103_20150129_015905_HIIALAKAI.all.mb56.gz 6.89MB Simrad multibeam vendor format
0103_20150210_111816_HIIALAKAI.all.mb56.gz 3.78MB Simrad multibeam vendor format
0103_20150220_113930_HIIALAKAI.all.mb56.gz 5.27MB Simrad multibeam vendor format
0103_20150227_212117_HIIALAKAI.all.mb56.gz 4.28MB Simrad multibeam vendor format
0103_20150412_102459_HIIALAKAI.all.mb56.gz 4.65MB Simrad multibeam vendor format
0103_20150418_100531_HIIALAKAI.all.mb56.gz 6.29MB Simrad multibeam vendor format
0104_20150129_022905_HIIALAKAI.all.mb56.gz 6.17MB Simrad multibeam vendor format
0104_20150210_114816_HIIALAKAI.all.mb56.gz 4.27MB Simrad multibeam vendor format
0104_20150220_120930_HIIALAKAI.all.mb56.gz 5.51MB Simrad multibeam vendor format
0104_20150227_215117_HIIALAKAI.all.mb56.gz 4.38MB Simrad multibeam vendor format
0104_20150412_105459_HIIALAKAI.all.mb56.gz 4.98MB Simrad multibeam vendor format
0104_20150418_103531_HIIALAKAI.all.mb56.gz 5.45MB Simrad multibeam vendor format
0105_20150129_025905_HIIALAKAI.all.mb56.gz 7.60MB Simrad multibeam vendor format
0105_20150210_121816_HIIALAKAI.all.mb56.gz 4.05MB Simrad multibeam vendor format
0105_20150220_123930_HIIALAKAI.all.mb56.gz 5.94MB Simrad multibeam vendor format
0105_20150227_222117_HIIALAKAI.all.mb56.gz 4.45MB Simrad multibeam vendor format
0105_20150412_112459_HIIALAKAI.all.mb56.gz 5.60MB Simrad multibeam vendor format
0105_20150418_110531_HIIALAKAI.all.mb56.gz 5.15MB Simrad multibeam vendor format
0106_20150129_032905_HIIALAKAI.all.mb56.gz 6.52MB Simrad multibeam vendor format
0106_20150210_124816_HIIALAKAI.all.mb56.gz 3.93MB Simrad multibeam vendor format
0106_20150220_130930_HIIALAKAI.all.mb56.gz 5.06MB Simrad multibeam vendor format
0106_20150227_225117_HIIALAKAI.all.mb56.gz 4.48MB Simrad multibeam vendor format
0106_20150412_115459_HIIALAKAI.all.mb56.gz 4.89MB Simrad multibeam vendor format
0106_20150418_113531_HIIALAKAI.all.mb56.gz 5.12MB Simrad multibeam vendor format
0107_20150129_035906_HIIALAKAI.all.mb56.gz 339.2KB Simrad multibeam vendor format
0107_20150210_131816_HIIALAKAI.all.mb56.gz 4.37MB Simrad multibeam vendor format
0107_20150220_133930_HIIALAKAI.all.mb56.gz 4.43MB Simrad multibeam vendor format
0107_20150227_232117_HIIALAKAI.all.mb56.gz 4.31MB Simrad multibeam vendor format
0107_20150412_122459_HIIALAKAI.all.mb56.gz 4.76MB Simrad multibeam vendor format
0107_20150418_120531_HIIALAKAI.all.mb56.gz 5.44MB Simrad multibeam vendor format
0108_20150129_080140_HIIALAKAI.all.mb56.gz 154.5KB Simrad multibeam vendor format
0108_20150210_134816_HIIALAKAI.all.mb56.gz 3.92MB Simrad multibeam vendor format
0108_20150220_140930_HIIALAKAI.all.mb56.gz 4.49MB Simrad multibeam vendor format
0108_20150227_235117_HIIALAKAI.all.mb56.gz 4.39MB Simrad multibeam vendor format
0108_20150412_125500_HIIALAKAI.all.mb56.gz 3.70MB Simrad multibeam vendor format
0108_20150418_123531_HIIALAKAI.all.mb56.gz 4.54MB Simrad multibeam vendor format
0109_20150129_083353_HIIALAKAI.all.mb56.gz 6.60MB Simrad multibeam vendor format
0109_20150210_141816_HIIALAKAI.all.mb56.gz 3.90MB Simrad multibeam vendor format
0109_20150220_143930_HIIALAKAI.all.mb56.gz 4.50MB Simrad multibeam vendor format
0109_20150228_002117_HIIALAKAI.all.mb56.gz 4.43MB Simrad multibeam vendor format
0109_20150412_132500_HIIALAKAI.all.mb56.gz 3.89MB Simrad multibeam vendor format
0109_20150418_130531_HIIALAKAI.all.mb56.gz 4.08MB Simrad multibeam vendor format
0110_20150129_090353_HIIALAKAI.all.mb56.gz 7.06MB Simrad multibeam vendor format
0110_20150210_144816_HIIALAKAI.all.mb56.gz 4.19MB Simrad multibeam vendor format
0110_20150220_150930_HIIALAKAI.all.mb56.gz 4.48MB Simrad multibeam vendor format
0110_20150228_005117_HIIALAKAI.all.mb56.gz 4.30MB Simrad multibeam vendor format
0110_20150412_135500_HIIALAKAI.all.mb56.gz 3.50MB Simrad multibeam vendor format
0110_20150418_133531_HIIALAKAI.all.mb56.gz 4.28MB Simrad multibeam vendor format
0111_20150129_093353_HIIALAKAI.all.mb56.gz 7.49MB Simrad multibeam vendor format
0111_20150210_151817_HIIALAKAI.all.mb56.gz 4.41MB Simrad multibeam vendor format
0111_20150220_153930_HIIALAKAI.all.mb56.gz 4.63MB Simrad multibeam vendor format
0111_20150228_012117_HIIALAKAI.all.mb56.gz 4.48MB Simrad multibeam vendor format
0111_20150412_142500_HIIALAKAI.all.mb56.gz 3.62MB Simrad multibeam vendor format
0111_20150418_140531_HIIALAKAI.all.mb56.gz 5.34MB Simrad multibeam vendor format
0112_20150129_100353_HIIALAKAI.all.mb56.gz 7.80MB Simrad multibeam vendor format
0112_20150210_154817_HIIALAKAI.all.mb56.gz 3.91MB Simrad multibeam vendor format
0112_20150220_160930_HIIALAKAI.all.mb56.gz 5.26MB Simrad multibeam vendor format
0112_20150228_015117_HIIALAKAI.all.mb56.gz 4.27MB Simrad multibeam vendor format
0112_20150412_145500_HIIALAKAI.all.mb56.gz 4.61MB Simrad multibeam vendor format
0112_20150418_143531_HIIALAKAI.all.mb56.gz 7.97MB Simrad multibeam vendor format
0113_20150129_103353_HIIALAKAI.all.mb56.gz 443.3KB Simrad multibeam vendor format
0113_20150210_161817_HIIALAKAI.all.mb56.gz 5.23MB Simrad multibeam vendor format
0113_20150220_163930_HIIALAKAI.all.mb56.gz 5.59MB Simrad multibeam vendor format
0113_20150228_022117_HIIALAKAI.all.mb56.gz 4.09MB Simrad multibeam vendor format
0113_20150412_152500_HIIALAKAI.all.mb56.gz 6.43MB Simrad multibeam vendor format
0113_20150418_150531_HIIALAKAI.all.mb56.gz 7.68MB Simrad multibeam vendor format
0114_20150129_103536_HIIALAKAI.all.mb56.gz 1.46MB Simrad multibeam vendor format
0114_20150210_164817_HIIALAKAI.all.mb56.gz 7.69MB Simrad multibeam vendor format
0114_20150220_170930_HIIALAKAI.all.mb56.gz 8.11MB Simrad multibeam vendor format
0114_20150228_025117_HIIALAKAI.all.mb56.gz 4.04MB Simrad multibeam vendor format
0114_20150412_155500_HIIALAKAI.all.mb56.gz 7.87MB Simrad multibeam vendor format
0114_20150418_153531_HIIALAKAI.all.mb56.gz 8.14MB Simrad multibeam vendor format
0115_20150129_104136_HIIALAKAI.all.mb56.gz 1.8KB Simrad multibeam vendor format
0115_20150210_171817_HIIALAKAI.all.mb56.gz 7.95MB Simrad multibeam vendor format
0115_20150220_173930_HIIALAKAI.all.mb56.gz 7.67MB Simrad multibeam vendor format
0115_20150228_032117_HIIALAKAI.all.mb56.gz 4.33MB Simrad multibeam vendor format
0115_20150413_010519_HIIALAKAI.all.mb56.gz 10.38MB Simrad multibeam vendor format
0115_20150418_160531_HIIALAKAI.all.mb56.gz 8.33MB Simrad multibeam vendor format
0116_20150129_104139_HIIALAKAI.all.mb56.gz 7.53MB Simrad multibeam vendor format
0116_20150210_174817_HIIALAKAI.all.mb56.gz 8.47MB Simrad multibeam vendor format
0116_20150220_180930_HIIALAKAI.all.mb56.gz 8.45MB Simrad multibeam vendor format
0116_20150228_035117_HIIALAKAI.all.mb56.gz 4.18MB Simrad multibeam vendor format
0116_20150413_013519_HIIALAKAI.all.mb56.gz 10.38MB Simrad multibeam vendor format
0116_20150418_163531_HIIALAKAI.all.mb56.gz 10.95MB Simrad multibeam vendor format
0117_20150129_111139_HIIALAKAI.all.mb56.gz 6.85MB Simrad multibeam vendor format
0117_20150210_181817_HIIALAKAI.all.mb56.gz 9.33MB Simrad multibeam vendor format
0117_20150220_183930_HIIALAKAI.all.mb56.gz 7.41MB Simrad multibeam vendor format
0117_20150228_042117_HIIALAKAI.all.mb56.gz 4.18MB Simrad multibeam vendor format
0117_20150413_020519_HIIALAKAI.all.mb56.gz 12.27MB Simrad multibeam vendor format
0117_20150418_170531_HIIALAKAI.all.mb56.gz 10.17MB Simrad multibeam vendor format
0118_20150129_114139_HIIALAKAI.all.mb56.gz 6.98MB Simrad multibeam vendor format
0118_20150210_184817_HIIALAKAI.all.mb56.gz 7.13MB Simrad multibeam vendor format
0118_20150220_190931_HIIALAKAI.all.mb56.gz 9.17MB Simrad multibeam vendor format
0118_20150228_045117_HIIALAKAI.all.mb56.gz 3.57MB Simrad multibeam vendor format
0118_20150413_023519_HIIALAKAI.all.mb56.gz 13.15MB Simrad multibeam vendor format
0118_20150418_173531_HIIALAKAI.all.mb56.gz 9.09MB Simrad multibeam vendor format
0119_20150129_121139_HIIALAKAI.all.mb56.gz 5.99MB Simrad multibeam vendor format
0119_20150210_191817_HIIALAKAI.all.mb56.gz 9.06MB Simrad multibeam vendor format
0119_20150220_193931_HIIALAKAI.all.mb56.gz 9.19MB Simrad multibeam vendor format
0119_20150228_061029_HIIALAKAI.all.mb56.gz 8.8KB Simrad multibeam vendor format
0119_20150413_030519_HIIALAKAI.all.mb56.gz 12.35MB Simrad multibeam vendor format
0119_20150418_180531_HIIALAKAI.all.mb56.gz 10.96MB Simrad multibeam vendor format
0120_20150129_124139_HIIALAKAI.all.mb56.gz 6.10MB Simrad multibeam vendor format
0120_20150210_194817_HIIALAKAI.all.mb56.gz 6.99MB Simrad multibeam vendor format
0120_20150220_200931_HIIALAKAI.all.mb56.gz 8.11MB Simrad multibeam vendor format
0120_20150228_061033_HIIALAKAI.all.mb56.gz 57.6KB Simrad multibeam vendor format
0120_20150413_033519_HIIALAKAI.all.mb56.gz 4.62MB Simrad multibeam vendor format
0120_20150418_183532_HIIALAKAI.all.mb56.gz 4.83MB Simrad multibeam vendor format
0121_20150129_131139_HIIALAKAI.all.mb56.gz 6.46MB Simrad multibeam vendor format
0121_20150210_201817_HIIALAKAI.all.mb56.gz 7.09MB Simrad multibeam vendor format
0121_20150220_203931_HIIALAKAI.all.mb56.gz 8.44MB Simrad multibeam vendor format
0121_20150228_085937_HIIALAKAI.all.mb56.gz 5.97MB Simrad multibeam vendor format
0121_20150413_040125_HIIALAKAI.all.mb56.gz 400.6KB Simrad multibeam vendor format
0121_20150419_025615_HIIALAKAI.all.mb56.gz 4.94MB Simrad multibeam vendor format
0122_20150129_134139_HIIALAKAI.all.mb56.gz 5.84MB Simrad multibeam vendor format
0122_20150210_204817_HIIALAKAI.all.mb56.gz 6.30MB Simrad multibeam vendor format
0122_20150220_210931_HIIALAKAI.all.mb56.gz 7.63MB Simrad multibeam vendor format
0122_20150228_092937_HIIALAKAI.all.mb56.gz 5.64MB Simrad multibeam vendor format
0122_20150413_072616_HIIALAKAI.all.mb56.gz 4.58MB Simrad multibeam vendor format
0122_20150419_032615_HIIALAKAI.all.mb56.gz 4.30MB Simrad multibeam vendor format
0123_20150129_141139_HIIALAKAI.all.mb56.gz 5.61MB Simrad multibeam vendor format
0123_20150210_211817_HIIALAKAI.all.mb56.gz 7.40MB Simrad multibeam vendor format
0123_20150220_213931_HIIALAKAI.all.mb56.gz 9.05MB Simrad multibeam vendor format
0123_20150228_095937_HIIALAKAI.all.mb56.gz 2.83MB Simrad multibeam vendor format
0123_20150413_075616_HIIALAKAI.all.mb56.gz 4.83MB Simrad multibeam vendor format
0124_20150129_144139_HIIALAKAI.all.mb56.gz 4.50MB Simrad multibeam vendor format
0124_20150210_214817_HIIALAKAI.all.mb56.gz 7.60MB Simrad multibeam vendor format
0124_20150220_220931_HIIALAKAI.all.mb56.gz 7.50MB Simrad multibeam vendor format
0124_20150228_101530_HIIALAKAI.all.mb56.gz 7.07MB Simrad multibeam vendor format
0124_20150413_082616_HIIALAKAI.all.mb56.gz 5.06MB Simrad multibeam vendor format
0124_20150419_062518_HIIALAKAI.all.mb56.gz 4.70MB Simrad multibeam vendor format
0125_20150130_050056_HIIALAKAI.all.mb56.gz 6.34MB Simrad multibeam vendor format
0125_20150210_221817_HIIALAKAI.all.mb56.gz 6.94MB Simrad multibeam vendor format
0125_20150220_223931_HIIALAKAI.all.mb56.gz 7.99MB Simrad multibeam vendor format
0125_20150228_104530_HIIALAKAI.all.mb56.gz 5.75MB Simrad multibeam vendor format
0125_20150413_085616_HIIALAKAI.all.mb56.gz 5.45MB Simrad multibeam vendor format
0125_20150419_065518_HIIALAKAI.all.mb56.gz 4.90MB Simrad multibeam vendor format
0126_20150130_053056_HIIALAKAI.all.mb56.gz 7.21MB Simrad multibeam vendor format
0126_20150210_224817_HIIALAKAI.all.mb56.gz 7.09MB Simrad multibeam vendor format
0126_20150220_230931_HIIALAKAI.all.mb56.gz 8.22MB Simrad multibeam vendor format
0126_20150228_105952_HIIALAKAI.all.mb56.gz 4.37MB Simrad multibeam vendor format
0126_20150413_092616_HIIALAKAI.all.mb56.gz 5.57MB Simrad multibeam vendor format
0126_20150419_072518_HIIALAKAI.all.mb56.gz 4.79MB Simrad multibeam vendor format
0127_20150130_060056_HIIALAKAI.all.mb56.gz 6.40MB Simrad multibeam vendor format
0127_20150210_231817_HIIALAKAI.all.mb56.gz 6.79MB Simrad multibeam vendor format
0127_20150220_233931_HIIALAKAI.all.mb56.gz 7.49MB Simrad multibeam vendor format
0127_20150228_111117_HIIALAKAI.all.mb56.gz 12.88MB Simrad multibeam vendor format
0127_20150413_095616_HIIALAKAI.all.mb56.gz 6.05MB Simrad multibeam vendor format
0127_20150419_075519_HIIALAKAI.all.mb56.gz 4.53MB Simrad multibeam vendor format
0128_20150130_063056_HIIALAKAI.all.mb56.gz 29.3KB Simrad multibeam vendor format
0128_20150210_234817_HIIALAKAI.all.mb56.gz 7.62MB Simrad multibeam vendor format
0128_20150221_000931_HIIALAKAI.all.mb56.gz 7.38MB Simrad multibeam vendor format
0128_20150228_114117_HIIALAKAI.all.mb56.gz 11.94MB Simrad multibeam vendor format
0128_20150413_102616_HIIALAKAI.all.mb56.gz 4.88MB Simrad multibeam vendor format
0128_20150419_082519_HIIALAKAI.all.mb56.gz 4.64MB Simrad multibeam vendor format
0129_20150130_063103_HIIALAKAI.all.mb56.gz 151.1KB Simrad multibeam vendor format
0129_20150211_001817_HIIALAKAI.all.mb56.gz 7.54MB Simrad multibeam vendor format
0129_20150221_003931_HIIALAKAI.all.mb56.gz 7.44MB Simrad multibeam vendor format
0129_20150228_121117_HIIALAKAI.all.mb56.gz 6.19MB Simrad multibeam vendor format
0129_20150413_105616_HIIALAKAI.all.mb56.gz 5.08MB Simrad multibeam vendor format
0129_20150419_085519_HIIALAKAI.all.mb56.gz 4.76MB Simrad multibeam vendor format
0130_20150130_063144_HIIALAKAI.all.mb56.gz 4.53MB Simrad multibeam vendor format
0130_20150211_004817_HIIALAKAI.all.mb56.gz 7.16MB Simrad multibeam vendor format
0130_20150221_010931_HIIALAKAI.all.mb56.gz 8.56MB Simrad multibeam vendor format
0130_20150228_124117_HIIALAKAI.all.mb56.gz 11.94MB Simrad multibeam vendor format
0130_20150413_112616_HIIALAKAI.all.mb56.gz 5.58MB Simrad multibeam vendor format
0130_20150419_092519_HIIALAKAI.all.mb56.gz 3.83MB Simrad multibeam vendor format
0131_20150130_065419_HIIALAKAI.all.mb56.gz 310.9KB Simrad multibeam vendor format
0131_20150211_011817_HIIALAKAI.all.mb56.gz 6.87MB Simrad multibeam vendor format
0131_20150221_013931_HIIALAKAI.all.mb56.gz 5.85MB Simrad multibeam vendor format
0131_20150228_131117_HIIALAKAI.all.mb56.gz 18.29MB Simrad multibeam vendor format
0131_20150413_115616_HIIALAKAI.all.mb56.gz 6.14MB Simrad multibeam vendor format
0131_20150419_095634_HIIALAKAI.all.mb56.gz 340.3KB Simrad multibeam vendor format
0132_20150130_070114_HIIALAKAI.all.mb56.gz 5.77MB Simrad multibeam vendor format
0132_20150211_014817_HIIALAKAI.all.mb56.gz 3.25MB Simrad multibeam vendor format
0132_20150221_020319_HIIALAKAI.all.mb56.gz 2.15MB Simrad multibeam vendor format
0132_20150228_134117_HIIALAKAI.all.mb56.gz 20.69MB Simrad multibeam vendor format
0132_20150413_122616_HIIALAKAI.all.mb56.gz 7.26MB Simrad multibeam vendor format
0132_20150419_095853_HIIALAKAI.all.mb56.gz 4.67MB Simrad multibeam vendor format
0133_20150130_073115_HIIALAKAI.all.mb56.gz 6.38MB Simrad multibeam vendor format
0133_20150211_023030_HIIALAKAI.all.mb56.gz 8.47MB Simrad multibeam vendor format
0133_20150228_141117_HIIALAKAI.all.mb56.gz 15.94MB Simrad multibeam vendor format
0133_20150413_125616_HIIALAKAI.all.mb56.gz 6.92MB Simrad multibeam vendor format
0133_20150419_102853_HIIALAKAI.all.mb56.gz 4.61MB Simrad multibeam vendor format
0134_20150130_080115_HIIALAKAI.all.mb56.gz 6.05MB Simrad multibeam vendor format
0134_20150211_030030_HIIALAKAI.all.mb56.gz 6.02MB Simrad multibeam vendor format
0134_20150228_144117_HIIALAKAI.all.mb56.gz 8.57MB Simrad multibeam vendor format
0134_20150413_132617_HIIALAKAI.all.mb56.gz 7.02MB Simrad multibeam vendor format
0134_20150419_105853_HIIALAKAI.all.mb56.gz 4.78MB Simrad multibeam vendor format
0135_20150130_083115_HIIALAKAI.all.mb56.gz 5.38MB Simrad multibeam vendor format
0135_20150211_032530_HIIALAKAI.all.mb56.gz 1.7KB Simrad multibeam vendor format
0135_20150228_151117_HIIALAKAI.all.mb56.gz 20.49MB Simrad multibeam vendor format
0135_20150413_135617_HIIALAKAI.all.mb56.gz 6.95MB Simrad multibeam vendor format
0135_20150419_112853_HIIALAKAI.all.mb56.gz 4.33MB Simrad multibeam vendor format
0136_20150130_090115_HIIALAKAI.all.mb56.gz 5.08MB Simrad multibeam vendor format
0136_20150211_032804_HIIALAKAI.all.mb56.gz 6.21MB Simrad multibeam vendor format
0136_20150228_154117_HIIALAKAI.all.mb56.gz 21.78MB Simrad multibeam vendor format
0136_20150413_142617_HIIALAKAI.all.mb56.gz 7.17MB Simrad multibeam vendor format
0136_20150419_115854_HIIALAKAI.all.mb56.gz 4.01MB Simrad multibeam vendor format
0137_20150130_093115_HIIALAKAI.all.mb56.gz 5.12MB Simrad multibeam vendor format
0137_20150211_035445_HIIALAKAI.all.mb56.gz 30.4KB Simrad multibeam vendor format
0137_20150228_161117_HIIALAKAI.all.mb56.gz 20.31MB Simrad multibeam vendor format
0137_20150413_145617_HIIALAKAI.all.mb56.gz 7.08MB Simrad multibeam vendor format
0137_20150419_122854_HIIALAKAI.all.mb56.gz 4.47MB Simrad multibeam vendor format
0138_20150130_100115_HIIALAKAI.all.mb56.gz 1.69MB Simrad multibeam vendor format
0138_20150211_035452_HIIALAKAI.all.mb56.gz 8.41MB Simrad multibeam vendor format
0138_20150228_164117_HIIALAKAI.all.mb56.gz 20.79MB Simrad multibeam vendor format
0138_20150413_152617_HIIALAKAI.all.mb56.gz 7.15MB Simrad multibeam vendor format
0138_20150419_125854_HIIALAKAI.all.mb56.gz 4.11MB Simrad multibeam vendor format
0139_20150130_101318_HIIALAKAI.all.mb56.gz 2.01MB Simrad multibeam vendor format
0139_20150211_042452_HIIALAKAI.all.mb56.gz 3.73MB Simrad multibeam vendor format
0139_20150228_171117_HIIALAKAI.all.mb56.gz 21.39MB Simrad multibeam vendor format
0139_20150413_155617_HIIALAKAI.all.mb56.gz 7.18MB Simrad multibeam vendor format
0139_20150419_132854_HIIALAKAI.all.mb56.gz 4.23MB Simrad multibeam vendor format
0140_20150130_102756_HIIALAKAI.all.mb56.gz 4.25MB Simrad multibeam vendor format
0140_20150211_044610_HIIALAKAI.all.mb56.gz 4.02MB Simrad multibeam vendor format
0140_20150228_174117_HIIALAKAI.all.mb56.gz 10.99MB Simrad multibeam vendor format
0140_20150414_025541_HIIALAKAI.all.mb56.gz 5.10MB Simrad multibeam vendor format
0140_20150419_135854_HIIALAKAI.all.mb56.gz 4.79MB Simrad multibeam vendor format
0141_20150130_105756_HIIALAKAI.all.mb56.gz 4.41MB Simrad multibeam vendor format
0141_20150211_051329_HIIALAKAI.all.mb56.gz 14.7KB Simrad multibeam vendor format
0141_20150228_181117_HIIALAKAI.all.mb56.gz 18.86MB Simrad multibeam vendor format
0141_20150419_142854_HIIALAKAI.all.mb56.gz 5.43MB Simrad multibeam vendor format
0142_20150130_112756_HIIALAKAI.all.mb56.gz 4.08MB Simrad multibeam vendor format
0142_20150211_051334_HIIALAKAI.all.mb56.gz 5.01MB Simrad multibeam vendor format
0142_20150228_184118_HIIALAKAI.all.mb56.gz 18.35MB Simrad multibeam vendor format
0142_20150419_145854_HIIALAKAI.all.mb56.gz 7.76MB Simrad multibeam vendor format
0143_20150130_115756_HIIALAKAI.all.mb56.gz 4.27MB Simrad multibeam vendor format
0143_20150211_054334_HIIALAKAI.all.mb56.gz 3.18MB Simrad multibeam vendor format
0143_20150228_191117_HIIALAKAI.all.mb56.gz 16.67MB Simrad multibeam vendor format
0143_20150419_152854_HIIALAKAI.all.mb56.gz 7.29MB Simrad multibeam vendor format
0144_20150130_122756_HIIALAKAI.all.mb56.gz 4.84MB Simrad multibeam vendor format
0144_20150211_060607_HIIALAKAI.all.mb56.gz 4.09MB Simrad multibeam vendor format
0144_20150228_194117_HIIALAKAI.all.mb56.gz 4.41MB Simrad multibeam vendor format
0144_20150419_155854_HIIALAKAI.all.mb56.gz 8.27MB Simrad multibeam vendor format
0145_20150130_125756_HIIALAKAI.all.mb56.gz 5.77MB Simrad multibeam vendor format
0145_20150211_063607_HIIALAKAI.all.mb56.gz 3.75MB Simrad multibeam vendor format
0145_20150228_201118_HIIALAKAI.all.mb56.gz 4.40MB Simrad multibeam vendor format
0145_20150419_162854_HIIALAKAI.all.mb56.gz 5.00MB Simrad multibeam vendor format
0146_20150130_132756_HIIALAKAI.all.mb56.gz 5.51MB Simrad multibeam vendor format
0146_20150211_070607_HIIALAKAI.all.mb56.gz 3.45MB Simrad multibeam vendor format
0146_20150228_204118_HIIALAKAI.all.mb56.gz 4.52MB Simrad multibeam vendor format
0146_20150420_013931_HIIALAKAI.all.mb56.gz 6.92MB Simrad multibeam vendor format
0147_20150130_135756_HIIALAKAI.all.mb56.gz 4.74MB Simrad multibeam vendor format
0147_20150211_073607_HIIALAKAI.all.mb56.gz 3.83MB Simrad multibeam vendor format
0147_20150228_211118_HIIALAKAI.all.mb56.gz 4.52MB Simrad multibeam vendor format
0147_20150420_020931_HIIALAKAI.all.mb56.gz 7.47MB Simrad multibeam vendor format
0148_20150130_142756_HIIALAKAI.all.mb56.gz 4.62MB Simrad multibeam vendor format
0148_20150211_080607_HIIALAKAI.all.mb56.gz 4.05MB Simrad multibeam vendor format
0148_20150228_214118_HIIALAKAI.all.mb56.gz 4.35MB Simrad multibeam vendor format
0148_20150420_023931_HIIALAKAI.all.mb56.gz 6.28MB Simrad multibeam vendor format
0149_20150130_145756_HIIALAKAI.all.mb56.gz 5.51MB Simrad multibeam vendor format
0149_20150211_083607_HIIALAKAI.all.mb56.gz 3.83MB Simrad multibeam vendor format
0149_20150228_221118_HIIALAKAI.all.mb56.gz 4.43MB Simrad multibeam vendor format
0149_20150420_030931_HIIALAKAI.all.mb56.gz 4.80MB Simrad multibeam vendor format
0150_20150130_152756_HIIALAKAI.all.mb56.gz 5.65MB Simrad multibeam vendor format
0150_20150211_090607_HIIALAKAI.all.mb56.gz 4.13MB Simrad multibeam vendor format
0150_20150228_224118_HIIALAKAI.all.mb56.gz 4.49MB Simrad multibeam vendor format
0151_20150130_155756_HIIALAKAI.all.mb56.gz 4.99MB Simrad multibeam vendor format
0151_20150211_093607_HIIALAKAI.all.mb56.gz 4.05MB Simrad multibeam vendor format
0151_20150228_231118_HIIALAKAI.all.mb56.gz 4.53MB Simrad multibeam vendor format
0151_20150420_055554_HIIALAKAI.all.mb56.gz 4.40MB Simrad multibeam vendor format
0152_20150130_162756_HIIALAKAI.all.mb56.gz 5.71MB Simrad multibeam vendor format
0152_20150211_100607_HIIALAKAI.all.mb56.gz 508.4KB Simrad multibeam vendor format
0152_20150228_234118_HIIALAKAI.all.mb56.gz 4.44MB Simrad multibeam vendor format
0152_20150420_062554_HIIALAKAI.all.mb56.gz 4.54MB Simrad multibeam vendor format
0153_20150130_165756_HIIALAKAI.all.mb56.gz 6.26MB Simrad multibeam vendor format
0153_20150211_102812_HIIALAKAI.all.mb56.gz 50.6KB Simrad multibeam vendor format
0153_20150301_001118_HIIALAKAI.all.mb56.gz 4.37MB Simrad multibeam vendor format
0153_20150420_065554_HIIALAKAI.all.mb56.gz 4.69MB Simrad multibeam vendor format
0154_20150130_172756_HIIALAKAI.all.mb56.gz 5.12MB Simrad multibeam vendor format
0154_20150211_102832_HIIALAKAI.all.mb56.gz 45.6KB Simrad multibeam vendor format
0154_20150301_004118_HIIALAKAI.all.mb56.gz 4.50MB Simrad multibeam vendor format
0154_20150420_072554_HIIALAKAI.all.mb56.gz 4.81MB Simrad multibeam vendor format
0155_20150204_022106_HIIALAKAI.all.mb56.gz 1.52MB Simrad multibeam vendor format
0155_20150211_102850_HIIALAKAI.all.mb56.gz 128.4KB Simrad multibeam vendor format
0155_20150301_011118_HIIALAKAI.all.mb56.gz 4.59MB Simrad multibeam vendor format
0155_20150420_075554_HIIALAKAI.all.mb56.gz 5.10MB Simrad multibeam vendor format
0156_20150204_022658_HIIALAKAI.all.mb56.gz 2.45MB Simrad multibeam vendor format
0156_20150211_102941_HIIALAKAI.all.mb56.gz 18.4KB Simrad multibeam vendor format
0156_20150301_014118_HIIALAKAI.all.mb56.gz 2.91MB Simrad multibeam vendor format
0156_20150420_082554_HIIALAKAI.all.mb56.gz 5.75MB Simrad multibeam vendor format
0157_20150204_024120_HIIALAKAI.all.mb56.gz 2.34MB Simrad multibeam vendor format
0157_20150211_103001_HIIALAKAI.all.mb56.gz 208.6KB Simrad multibeam vendor format
0157_20150301_050443_HIIALAKAI.all.mb56.gz 4.67MB Simrad multibeam vendor format
0157_20150420_085554_HIIALAKAI.all.mb56.gz 5.40MB Simrad multibeam vendor format
0158_20150204_025238_HIIALAKAI.all.mb56.gz 8.04MB Simrad multibeam vendor format
0158_20150211_103137_HIIALAKAI.all.mb56.gz 2.02MB Simrad multibeam vendor format
0158_20150301_053443_HIIALAKAI.all.mb56.gz 0.66MB Simrad multibeam vendor format
0158_20150420_092555_HIIALAKAI.all.mb56.gz 2.76MB Simrad multibeam vendor format
0159_20150204_032238_HIIALAKAI.all.mb56.gz 7.20MB Simrad multibeam vendor format
0159_20150211_104423_HIIALAKAI.all.mb56.gz 56.3KB Simrad multibeam vendor format
0159_20150301_055421_HIIALAKAI.all.mb56.gz 4.69MB Simrad multibeam vendor format
0159_20150421_045231_HIIALAKAI.all.mb56.gz 4.37MB Simrad multibeam vendor format
0160_20150204_035239_HIIALAKAI.all.mb56.gz 6.83MB Simrad multibeam vendor format
0160_20150211_104450_HIIALAKAI.all.mb56.gz 167.5KB Simrad multibeam vendor format
0160_20150301_062421_HIIALAKAI.all.mb56.gz 4.44MB Simrad multibeam vendor format
0160_20150421_052231_HIIALAKAI.all.mb56.gz 5.29MB Simrad multibeam vendor format
0161_20150204_042239_HIIALAKAI.all.mb56.gz 7.11MB Simrad multibeam vendor format
0161_20150211_104635_HIIALAKAI.all.mb56.gz 4.61MB Simrad multibeam vendor format
0161_20150301_065421_HIIALAKAI.all.mb56.gz 4.40MB Simrad multibeam vendor format
0161_20150421_055231_HIIALAKAI.all.mb56.gz 6.44MB Simrad multibeam vendor format
0162_20150204_045239_HIIALAKAI.all.mb56.gz 6.09MB Simrad multibeam vendor format
0162_20150211_111635_HIIALAKAI.all.mb56.gz 4.28MB Simrad multibeam vendor format
0162_20150301_072421_HIIALAKAI.all.mb56.gz 4.60MB Simrad multibeam vendor format
0162_20150421_062231_HIIALAKAI.all.mb56.gz 5.87MB Simrad multibeam vendor format
0163_20150204_052239_HIIALAKAI.all.mb56.gz 6.26MB Simrad multibeam vendor format
0163_20150211_114635_HIIALAKAI.all.mb56.gz 4.05MB Simrad multibeam vendor format
0163_20150301_075422_HIIALAKAI.all.mb56.gz 5.06MB Simrad multibeam vendor format
0163_20150421_065231_HIIALAKAI.all.mb56.gz 5.92MB Simrad multibeam vendor format
0164_20150204_055239_HIIALAKAI.all.mb56.gz 3.49MB Simrad multibeam vendor format
0164_20150211_121635_HIIALAKAI.all.mb56.gz 4.61MB Simrad multibeam vendor format
0164_20150301_082422_HIIALAKAI.all.mb56.gz 13.59MB Simrad multibeam vendor format
0164_20150421_072231_HIIALAKAI.all.mb56.gz 6.00MB Simrad multibeam vendor format
0165_20150204_060804_HIIALAKAI.all.mb56.gz 0.53MB Simrad multibeam vendor format
0165_20150211_124635_HIIALAKAI.all.mb56.gz 4.31MB Simrad multibeam vendor format
0165_20150301_085422_HIIALAKAI.all.mb56.gz 20.10MB Simrad multibeam vendor format
0165_20150421_075231_HIIALAKAI.all.mb56.gz 5.90MB Simrad multibeam vendor format
0166_20150204_061036_HIIALAKAI.all.mb56.gz 0.58MB Simrad multibeam vendor format
0166_20150211_131635_HIIALAKAI.all.mb56.gz 3.88MB Simrad multibeam vendor format
0166_20150301_092422_HIIALAKAI.all.mb56.gz 12.30MB Simrad multibeam vendor format
0166_20150421_082231_HIIALAKAI.all.mb56.gz 5.76MB Simrad multibeam vendor format
0167_20150204_061257_HIIALAKAI.all.mb56.gz 5.88MB Simrad multibeam vendor format
0167_20150211_134635_HIIALAKAI.all.mb56.gz 3.71MB Simrad multibeam vendor format
0167_20150301_095422_HIIALAKAI.all.mb56.gz 6.80MB Simrad multibeam vendor format
0167_20150421_085231_HIIALAKAI.all.mb56.gz 5.27MB Simrad multibeam vendor format
0168_20150204_064257_HIIALAKAI.all.mb56.gz 4.12MB Simrad multibeam vendor format
0168_20150211_141635_HIIALAKAI.all.mb56.gz 4.58MB Simrad multibeam vendor format
0168_20150301_102422_HIIALAKAI.all.mb56.gz 6.45MB Simrad multibeam vendor format
0168_20150421_092231_HIIALAKAI.all.mb56.gz 5.81MB Simrad multibeam vendor format
0169_20150204_071249_HIIALAKAI.all.mb56.gz 7.7KB Simrad multibeam vendor format
0169_20150211_144635_HIIALAKAI.all.mb56.gz 4.12MB Simrad multibeam vendor format
0169_20150301_105422_HIIALAKAI.all.mb56.gz 5.28MB Simrad multibeam vendor format
0169_20150421_095231_HIIALAKAI.all.mb56.gz 6.67MB Simrad multibeam vendor format
0170_20150204_074212_HIIALAKAI.all.mb56.gz 4.96MB Simrad multibeam vendor format
0170_20150211_151635_HIIALAKAI.all.mb56.gz 3.85MB Simrad multibeam vendor format
0170_20150301_112422_HIIALAKAI.all.mb56.gz 5.00MB Simrad multibeam vendor format
0170_20150421_102231_HIIALAKAI.all.mb56.gz 6.41MB Simrad multibeam vendor format
0171_20150204_081212_HIIALAKAI.all.mb56.gz 5.11MB Simrad multibeam vendor format
0171_20150211_154635_HIIALAKAI.all.mb56.gz 4.78MB Simrad multibeam vendor format
0171_20150301_115422_HIIALAKAI.all.mb56.gz 4.98MB Simrad multibeam vendor format
0171_20150421_105231_HIIALAKAI.all.mb56.gz 5.62MB Simrad multibeam vendor format
0172_20150204_084212_HIIALAKAI.all.mb56.gz 5.63MB Simrad multibeam vendor format
0172_20150211_161635_HIIALAKAI.all.mb56.gz 6.06MB Simrad multibeam vendor format
0172_20150301_122422_HIIALAKAI.all.mb56.gz 5.38MB Simrad multibeam vendor format
0172_20150421_112231_HIIALAKAI.all.mb56.gz 6.60MB Simrad multibeam vendor format
0173_20150204_091212_HIIALAKAI.all.mb56.gz 3.52MB Simrad multibeam vendor format
0173_20150211_164635_HIIALAKAI.all.mb56.gz 8.03MB Simrad multibeam vendor format
0173_20150301_125422_HIIALAKAI.all.mb56.gz 4.72MB Simrad multibeam vendor format
0173_20150421_115231_HIIALAKAI.all.mb56.gz 5.38MB Simrad multibeam vendor format
0174_20150204_095133_HIIALAKAI.all.mb56.gz 4.91MB Simrad multibeam vendor format
0174_20150211_171635_HIIALAKAI.all.mb56.gz 7.24MB Simrad multibeam vendor format
0174_20150301_132422_HIIALAKAI.all.mb56.gz 4.47MB Simrad multibeam vendor format
0174_20150421_122231_HIIALAKAI.all.mb56.gz 7.28MB Simrad multibeam vendor format
0175_20150204_102133_HIIALAKAI.all.mb56.gz 4.36MB Simrad multibeam vendor format
0175_20150211_174635_HIIALAKAI.all.mb56.gz 7.06MB Simrad multibeam vendor format
0175_20150301_135422_HIIALAKAI.all.mb56.gz 5.10MB Simrad multibeam vendor format
0175_20150421_125231_HIIALAKAI.all.mb56.gz 7.35MB Simrad multibeam vendor format
0176_20150204_105133_HIIALAKAI.all.mb56.gz 4.08MB Simrad multibeam vendor format
0176_20150211_181635_HIIALAKAI.all.mb56.gz 7.60MB Simrad multibeam vendor format
0176_20150301_142422_HIIALAKAI.all.mb56.gz 4.46MB Simrad multibeam vendor format
0176_20150421_132231_HIIALAKAI.all.mb56.gz 7.06MB Simrad multibeam vendor format
0177_20150204_112133_HIIALAKAI.all.mb56.gz 0.72MB Simrad multibeam vendor format
0177_20150211_184635_HIIALAKAI.all.mb56.gz 7.16MB Simrad multibeam vendor format
0177_20150301_145422_HIIALAKAI.all.mb56.gz 4.54MB Simrad multibeam vendor format
0177_20150421_135231_HIIALAKAI.all.mb56.gz 6.98MB Simrad multibeam vendor format
0178_20150204_122449_HIIALAKAI.all.mb56.gz 4.22MB Simrad multibeam vendor format
0178_20150211_191635_HIIALAKAI.all.mb56.gz 6.94MB Simrad multibeam vendor format
0178_20150301_152422_HIIALAKAI.all.mb56.gz 4.88MB Simrad multibeam vendor format
0178_20150421_142231_HIIALAKAI.all.mb56.gz 5.77MB Simrad multibeam vendor format
0179_20150204_125449_HIIALAKAI.all.mb56.gz 4.41MB Simrad multibeam vendor format
0179_20150211_194635_HIIALAKAI.all.mb56.gz 6.90MB Simrad multibeam vendor format
0179_20150301_155422_HIIALAKAI.all.mb56.gz 6.17MB Simrad multibeam vendor format
0179_20150421_145231_HIIALAKAI.all.mb56.gz 5.52MB Simrad multibeam vendor format
0180_20150204_132449_HIIALAKAI.all.mb56.gz 4.38MB Simrad multibeam vendor format
0180_20150211_201636_HIIALAKAI.all.mb56.gz 6.78MB Simrad multibeam vendor format
0180_20150301_162422_HIIALAKAI.all.mb56.gz 9.91MB Simrad multibeam vendor format
0180_20150421_152232_HIIALAKAI.all.mb56.gz 5.34MB Simrad multibeam vendor format
0181_20150204_135449_HIIALAKAI.all.mb56.gz 4.56MB Simrad multibeam vendor format
0181_20150211_204636_HIIALAKAI.all.mb56.gz 7.23MB Simrad multibeam vendor format
0181_20150301_165422_HIIALAKAI.all.mb56.gz 21.70MB Simrad multibeam vendor format
0181_20150421_155232_HIIALAKAI.all.mb56.gz 7.54MB Simrad multibeam vendor format
0182_20150204_142449_HIIALAKAI.all.mb56.gz 5.53MB Simrad multibeam vendor format
0182_20150211_211636_HIIALAKAI.all.mb56.gz 7.24MB Simrad multibeam vendor format
0182_20150301_172422_HIIALAKAI.all.mb56.gz 21.21MB Simrad multibeam vendor format
0182_20150421_162232_HIIALAKAI.all.mb56.gz 7.44MB Simrad multibeam vendor format
0183_20150204_145449_HIIALAKAI.all.mb56.gz 6.18MB Simrad multibeam vendor format
0183_20150211_214636_HIIALAKAI.all.mb56.gz 6.90MB Simrad multibeam vendor format
0183_20150301_175422_HIIALAKAI.all.mb56.gz 20.62MB Simrad multibeam vendor format
0183_20150421_165232_HIIALAKAI.all.mb56.gz 8.66MB Simrad multibeam vendor format
0184_20150204_152449_HIIALAKAI.all.mb56.gz 6.85MB Simrad multibeam vendor format
0184_20150211_221636_HIIALAKAI.all.mb56.gz 8.53MB Simrad multibeam vendor format
0184_20150301_182422_HIIALAKAI.all.mb56.gz 21.14MB Simrad multibeam vendor format
0184_20150421_172232_HIIALAKAI.all.mb56.gz 9.21MB Simrad multibeam vendor format
0185_20150204_155449_HIIALAKAI.all.mb56.gz 7.24MB Simrad multibeam vendor format
0185_20150211_224636_HIIALAKAI.all.mb56.gz 6.79MB Simrad multibeam vendor format
0185_20150301_185422_HIIALAKAI.all.mb56.gz 21.20MB Simrad multibeam vendor format
0185_20150421_175232_HIIALAKAI.all.mb56.gz 6.67MB Simrad multibeam vendor format
0186_20150204_162449_HIIALAKAI.all.mb56.gz 7.28MB Simrad multibeam vendor format
0186_20150211_231636_HIIALAKAI.all.mb56.gz 7.09MB Simrad multibeam vendor format
0186_20150301_192422_HIIALAKAI.all.mb56.gz 22.58MB Simrad multibeam vendor format
0186_20150422_044500_HIIALAKAI.all.mb56.gz 4.77MB Simrad multibeam vendor format
0187_20150204_165449_HIIALAKAI.all.mb56.gz 7.20MB Simrad multibeam vendor format
0187_20150211_234636_HIIALAKAI.all.mb56.gz 6.93MB Simrad multibeam vendor format
0187_20150301_195422_HIIALAKAI.all.mb56.gz 17.90MB Simrad multibeam vendor format
0187_20150422_051501_HIIALAKAI.all.mb56.gz 4.77MB Simrad multibeam vendor format
0188_20150204_172449_HIIALAKAI.all.mb56.gz 6.90MB Simrad multibeam vendor format
0188_20150212_001636_HIIALAKAI.all.mb56.gz 6.97MB Simrad multibeam vendor format
0188_20150301_202422_HIIALAKAI.all.mb56.gz 5.87MB Simrad multibeam vendor format
0188_20150422_054501_HIIALAKAI.all.mb56.gz 5.15MB Simrad multibeam vendor format
0189_20150204_175449_HIIALAKAI.all.mb56.gz 7.47MB Simrad multibeam vendor format
0189_20150212_004636_HIIALAKAI.all.mb56.gz 6.82MB Simrad multibeam vendor format
0189_20150301_205422_HIIALAKAI.all.mb56.gz 5.04MB Simrad multibeam vendor format
0189_20150422_061501_HIIALAKAI.all.mb56.gz 4.71MB Simrad multibeam vendor format
0190_20150204_182449_HIIALAKAI.all.mb56.gz 7.50MB Simrad multibeam vendor format
0190_20150212_011636_HIIALAKAI.all.mb56.gz 6.62MB Simrad multibeam vendor format
0190_20150301_212422_HIIALAKAI.all.mb56.gz 4.70MB Simrad multibeam vendor format
0190_20150422_064501_HIIALAKAI.all.mb56.gz 4.67MB Simrad multibeam vendor format
0191_20150204_185449_HIIALAKAI.all.mb56.gz 6.79MB Simrad multibeam vendor format
0191_20150212_014636_HIIALAKAI.all.mb56.gz 3.18MB Simrad multibeam vendor format
0191_20150301_215422_HIIALAKAI.all.mb56.gz 6.88MB Simrad multibeam vendor format
0191_20150422_071501_HIIALAKAI.all.mb56.gz 4.61MB Simrad multibeam vendor format
0192_20150204_192449_HIIALAKAI.all.mb56.gz 6.79MB Simrad multibeam vendor format
0192_20150212_034940_HIIALAKAI.all.mb56.gz 6.57MB Simrad multibeam vendor format
0192_20150301_222422_HIIALAKAI.all.mb56.gz 24.70MB Simrad multibeam vendor format
0192_20150422_074501_HIIALAKAI.all.mb56.gz 4.06MB Simrad multibeam vendor format
0193_20150204_195449_HIIALAKAI.all.mb56.gz 7.12MB Simrad multibeam vendor format
0193_20150212_041940_HIIALAKAI.all.mb56.gz 8.21MB Simrad multibeam vendor format
0193_20150301_225422_HIIALAKAI.all.mb56.gz 23.57MB Simrad multibeam vendor format
0193_20150422_081501_HIIALAKAI.all.mb56.gz 3.53MB Simrad multibeam vendor format
0194_20150204_202449_HIIALAKAI.all.mb56.gz 5.91MB Simrad multibeam vendor format
0194_20150212_044940_HIIALAKAI.all.mb56.gz 5.56MB Simrad multibeam vendor format
0194_20150301_232423_HIIALAKAI.all.mb56.gz 22.47MB Simrad multibeam vendor format
0194_20150422_084501_HIIALAKAI.all.mb56.gz 3.48MB Simrad multibeam vendor format
0195_20150204_205449_HIIALAKAI.all.mb56.gz 4.86MB Simrad multibeam vendor format
0195_20150212_051940_HIIALAKAI.all.mb56.gz 2.21MB Simrad multibeam vendor format
0195_20150301_235423_HIIALAKAI.all.mb56.gz 16.82MB Simrad multibeam vendor format
0195_20150422_091501_HIIALAKAI.all.mb56.gz 3.55MB Simrad multibeam vendor format
0196_20150204_212449_HIIALAKAI.all.mb56.gz 5.33MB Simrad multibeam vendor format
0196_20150212_053655_HIIALAKAI.all.mb56.gz 13.1KB Simrad multibeam vendor format
0196_20150302_002423_HIIALAKAI.all.mb56.gz 5.86MB Simrad multibeam vendor format
0196_20150422_094501_HIIALAKAI.all.mb56.gz 3.51MB Simrad multibeam vendor format
0197_20150204_215449_HIIALAKAI.all.mb56.gz 4.45MB Simrad multibeam vendor format
0197_20150212_053659_HIIALAKAI.all.mb56.gz 0.52MB Simrad multibeam vendor format
0197_20150302_005423_HIIALAKAI.all.mb56.gz 5.26MB Simrad multibeam vendor format
0197_20150422_101501_HIIALAKAI.all.mb56.gz 3.87MB Simrad multibeam vendor format
0198_20150204_222449_HIIALAKAI.all.mb56.gz 3.16MB Simrad multibeam vendor format
0198_20150302_012423_HIIALAKAI.all.mb56.gz 5.19MB Simrad multibeam vendor format
0198_20150422_104501_HIIALAKAI.all.mb56.gz 4.13MB Simrad multibeam vendor format
0199_20150205_021325_HIIALAKAI.all.mb56.gz 1.23MB Simrad multibeam vendor format
0199_20150302_015423_HIIALAKAI.all.mb56.gz 5.32MB Simrad multibeam vendor format
0199_20150422_111501_HIIALAKAI.all.mb56.gz 4.50MB Simrad multibeam vendor format
0200_20150205_035535_HIIALAKAI.all.mb56.gz 5.22MB Simrad multibeam vendor format
0200_20150302_022423_HIIALAKAI.all.mb56.gz 9.13MB Simrad multibeam vendor format
0200_20150422_114501_HIIALAKAI.all.mb56.gz 5.04MB Simrad multibeam vendor format
0201_20150205_042535_HIIALAKAI.all.mb56.gz 3.54MB Simrad multibeam vendor format
0201_20150302_025423_HIIALAKAI.all.mb56.gz 24.19MB Simrad multibeam vendor format
0201_20150422_121501_HIIALAKAI.all.mb56.gz 5.52MB Simrad multibeam vendor format
0202_20150205_045535_HIIALAKAI.all.mb56.gz 0.75MB Simrad multibeam vendor format
0202_20150302_032423_HIIALAKAI.all.mb56.gz 23.29MB Simrad multibeam vendor format
0202_20150422_124501_HIIALAKAI.all.mb56.gz 6.39MB Simrad multibeam vendor format
0203_20150205_075554_HIIALAKAI.all.mb56.gz 4.85MB Simrad multibeam vendor format
0203_20150302_035423_HIIALAKAI.all.mb56.gz 23.43MB Simrad multibeam vendor format
0203_20150422_131501_HIIALAKAI.all.mb56.gz 6.85MB Simrad multibeam vendor format
0204_20150205_082554_HIIALAKAI.all.mb56.gz 4.97MB Simrad multibeam vendor format
0204_20150302_042423_HIIALAKAI.all.mb56.gz 16.55MB Simrad multibeam vendor format
0204_20150422_134501_HIIALAKAI.all.mb56.gz 6.92MB Simrad multibeam vendor format
0205_20150205_085555_HIIALAKAI.all.mb56.gz 0.79MB Simrad multibeam vendor format
0205_20150302_045423_HIIALAKAI.all.mb56.gz 6.80MB Simrad multibeam vendor format
0205_20150422_141501_HIIALAKAI.all.mb56.gz 5.45MB Simrad multibeam vendor format
0206_20150205_090101_HIIALAKAI.all.mb56.gz 460.0KB Simrad multibeam vendor format
0206_20150302_052423_HIIALAKAI.all.mb56.gz 6.07MB Simrad multibeam vendor format
0206_20150422_144501_HIIALAKAI.all.mb56.gz 7.57MB Simrad multibeam vendor format
0207_20150205_091238_HIIALAKAI.all.mb56.gz 4.79MB Simrad multibeam vendor format
0207_20150302_055423_HIIALAKAI.all.mb56.gz 2.70MB Simrad multibeam vendor format
0207_20150422_151501_HIIALAKAI.all.mb56.gz 7.85MB Simrad multibeam vendor format
0208_20150205_094238_HIIALAKAI.all.mb56.gz 4.71MB Simrad multibeam vendor format
0208_20150302_060724_HIIALAKAI.all.mb56.gz 6.01MB Simrad multibeam vendor format
0208_20150422_154501_HIIALAKAI.all.mb56.gz 8.00MB Simrad multibeam vendor format
0209_20150205_101238_HIIALAKAI.all.mb56.gz 0.58MB Simrad multibeam vendor format
0209_20150302_063724_HIIALAKAI.all.mb56.gz 2.40MB Simrad multibeam vendor format
0209_20150422_161501_HIIALAKAI.all.mb56.gz 2.88MB Simrad multibeam vendor format
0210_20150205_104913_HIIALAKAI.all.mb56.gz 4.57MB Simrad multibeam vendor format
0210_20150302_064930_HIIALAKAI.all.mb56.gz 2.76MB Simrad multibeam vendor format
0210_20150423_040004_HIIALAKAI.all.mb56.gz 4.92MB Simrad multibeam vendor format
0211_20150205_111913_HIIALAKAI.all.mb56.gz 4.50MB Simrad multibeam vendor format
0211_20150302_070412_HIIALAKAI.all.mb56.gz 5.34MB Simrad multibeam vendor format
0211_20150423_043004_HIIALAKAI.all.mb56.gz 4.21MB Simrad multibeam vendor format
0212_20150205_114913_HIIALAKAI.all.mb56.gz 1.90MB Simrad multibeam vendor format
0212_20150302_073413_HIIALAKAI.all.mb56.gz 5.55MB Simrad multibeam vendor format
0212_20150423_050004_HIIALAKAI.all.mb56.gz 394.9KB Simrad multibeam vendor format
0213_20150205_120501_HIIALAKAI.all.mb56.gz 2.26MB Simrad multibeam vendor format
0213_20150302_080413_HIIALAKAI.all.mb56.gz 5.47MB Simrad multibeam vendor format
0213_20150423_082701_HIIALAKAI.all.mb56.gz 4.43MB Simrad multibeam vendor format
0214_20150205_121958_HIIALAKAI.all.mb56.gz 5.03MB Simrad multibeam vendor format
0214_20150302_083413_HIIALAKAI.all.mb56.gz 5.91MB Simrad multibeam vendor format
0214_20150423_085701_HIIALAKAI.all.mb56.gz 4.49MB Simrad multibeam vendor format
0215_20150205_124958_HIIALAKAI.all.mb56.gz 4.77MB Simrad multibeam vendor format
0215_20150302_090413_HIIALAKAI.all.mb56.gz 5.90MB Simrad multibeam vendor format
0215_20150423_092701_HIIALAKAI.all.mb56.gz 2.11MB Simrad multibeam vendor format
0216_20150205_131958_HIIALAKAI.all.mb56.gz 4.60MB Simrad multibeam vendor format
0216_20150302_093413_HIIALAKAI.all.mb56.gz 1.65MB Simrad multibeam vendor format
0217_20150205_134958_HIIALAKAI.all.mb56.gz 4.91MB Simrad multibeam vendor format
0217_20150302_094326_HIIALAKAI.all.mb56.gz 4.92MB Simrad multibeam vendor format
0218_20150205_141959_HIIALAKAI.all.mb56.gz 5.47MB Simrad multibeam vendor format
0218_20150302_101327_HIIALAKAI.all.mb56.gz 5.16MB Simrad multibeam vendor format
0219_20150205_144959_HIIALAKAI.all.mb56.gz 6.49MB Simrad multibeam vendor format
0219_20150302_104327_HIIALAKAI.all.mb56.gz 4.72MB Simrad multibeam vendor format
0220_20150205_151959_HIIALAKAI.all.mb56.gz 6.54MB Simrad multibeam vendor format
0220_20150302_111327_HIIALAKAI.all.mb56.gz 4.81MB Simrad multibeam vendor format
0221_20150205_154959_HIIALAKAI.all.mb56.gz 6.42MB Simrad multibeam vendor format
0221_20150302_114327_HIIALAKAI.all.mb56.gz 4.97MB Simrad multibeam vendor format
0222_20150205_161959_HIIALAKAI.all.mb56.gz 6.82MB Simrad multibeam vendor format
0222_20150302_121327_HIIALAKAI.all.mb56.gz 4.95MB Simrad multibeam vendor format
0223_20150205_164959_HIIALAKAI.all.mb56.gz 6.58MB Simrad multibeam vendor format
0223_20150302_124327_HIIALAKAI.all.mb56.gz 5.38MB Simrad multibeam vendor format
0224_20150205_171959_HIIALAKAI.all.mb56.gz 7.40MB Simrad multibeam vendor format
0224_20150302_131327_HIIALAKAI.all.mb56.gz 4.48MB Simrad multibeam vendor format
0225_20150205_174959_HIIALAKAI.all.mb56.gz 8.02MB Simrad multibeam vendor format
0225_20150302_134327_HIIALAKAI.all.mb56.gz 4.47MB Simrad multibeam vendor format
0226_20150205_181959_HIIALAKAI.all.mb56.gz 7.58MB Simrad multibeam vendor format
0226_20150302_141327_HIIALAKAI.all.mb56.gz 4.22MB Simrad multibeam vendor format
0227_20150205_184959_HIIALAKAI.all.mb56.gz 7.63MB Simrad multibeam vendor format
0227_20150302_144327_HIIALAKAI.all.mb56.gz 4.41MB Simrad multibeam vendor format
0228_20150205_191959_HIIALAKAI.all.mb56.gz 7.33MB Simrad multibeam vendor format
0228_20150302_151327_HIIALAKAI.all.mb56.gz 4.48MB Simrad multibeam vendor format
0229_20150205_194959_HIIALAKAI.all.mb56.gz 7.30MB Simrad multibeam vendor format
0229_20150302_154327_HIIALAKAI.all.mb56.gz 4.38MB Simrad multibeam vendor format
0230_20150205_201959_HIIALAKAI.all.mb56.gz 7.26MB Simrad multibeam vendor format
0230_20150302_161327_HIIALAKAI.all.mb56.gz 4.80MB Simrad multibeam vendor format
0231_20150206_044438_HIIALAKAI.all.mb56.gz 54.3KB Simrad multibeam vendor format
0231_20150302_164327_HIIALAKAI.all.mb56.gz 4.82MB Simrad multibeam vendor format
0232_20150206_044457_HIIALAKAI.all.mb56.gz 0.84MB Simrad multibeam vendor format
0232_20150302_171327_HIIALAKAI.all.mb56.gz 4.40MB Simrad multibeam vendor format
0233_20150206_045004_HIIALAKAI.all.mb56.gz 152.9KB Simrad multibeam vendor format
0233_20150302_174327_HIIALAKAI.all.mb56.gz 4.23MB Simrad multibeam vendor format
0234_20150206_045226_HIIALAKAI.all.mb56.gz 1.7KB Simrad multibeam vendor format
0234_20150302_181327_HIIALAKAI.all.mb56.gz 4.26MB Simrad multibeam vendor format
0235_20150206_045229_HIIALAKAI.all.mb56.gz 5.68MB Simrad multibeam vendor format
0235_20150302_184327_HIIALAKAI.all.mb56.gz 4.24MB Simrad multibeam vendor format
0236_20150206_052229_HIIALAKAI.all.mb56.gz 4.33MB Simrad multibeam vendor format
0236_20150302_191327_HIIALAKAI.all.mb56.gz 3.99MB Simrad multibeam vendor format
0237_20150206_054855_HIIALAKAI.all.mb56.gz 20.6KB Simrad multibeam vendor format
0237_20150302_194327_HIIALAKAI.all.mb56.gz 4.29MB Simrad multibeam vendor format
0238_20150206_055205_HIIALAKAI.all.mb56.gz 4.33MB Simrad multibeam vendor format
0238_20150302_201327_HIIALAKAI.all.mb56.gz 4.15MB Simrad multibeam vendor format
0239_20150206_062205_HIIALAKAI.all.mb56.gz 0.81MB Simrad multibeam vendor format
0239_20150302_204327_HIIALAKAI.all.mb56.gz 4.63MB Simrad multibeam vendor format
0240_20150206_062900_HIIALAKAI.all.mb56.gz 1.7KB Simrad multibeam vendor format
0240_20150302_211327_HIIALAKAI.all.mb56.gz 4.03MB Simrad multibeam vendor format
0241_20150206_062901_HIIALAKAI.all.mb56.gz 5.14MB Simrad multibeam vendor format
0241_20150302_214327_HIIALAKAI.all.mb56.gz 3.93MB Simrad multibeam vendor format
0242_20150206_065901_HIIALAKAI.all.mb56.gz 6.75MB Simrad multibeam vendor format
0242_20150302_221327_HIIALAKAI.all.mb56.gz 4.16MB Simrad multibeam vendor format
0243_20150206_072901_HIIALAKAI.all.mb56.gz 4.74MB Simrad multibeam vendor format
0243_20150302_224327_HIIALAKAI.all.mb56.gz 4.43MB Simrad multibeam vendor format
0244_20150206_075901_HIIALAKAI.all.mb56.gz 4.48MB Simrad multibeam vendor format
0244_20150302_231327_HIIALAKAI.all.mb56.gz 3.84MB Simrad multibeam vendor format
0245_20150206_082901_HIIALAKAI.all.mb56.gz 3.49MB Simrad multibeam vendor format
0245_20150302_234328_HIIALAKAI.all.mb56.gz 3.79MB Simrad multibeam vendor format
0246_20150206_085335_HIIALAKAI.all.mb56.gz 4.88MB Simrad multibeam vendor format
0246_20150303_001328_HIIALAKAI.all.mb56.gz 3.73MB Simrad multibeam vendor format
0247_20150206_092335_HIIALAKAI.all.mb56.gz 4.74MB Simrad multibeam vendor format
0247_20150303_004328_HIIALAKAI.all.mb56.gz 3.92MB Simrad multibeam vendor format
0248_20150206_095335_HIIALAKAI.all.mb56.gz 5.12MB Simrad multibeam vendor format
0248_20150303_011328_HIIALAKAI.all.mb56.gz 3.88MB Simrad multibeam vendor format
0249_20150206_102335_HIIALAKAI.all.mb56.gz 5.33MB Simrad multibeam vendor format
0249_20150303_014328_HIIALAKAI.all.mb56.gz 3.77MB Simrad multibeam vendor format
0250_20150206_105335_HIIALAKAI.all.mb56.gz 2.08MB Simrad multibeam vendor format
0250_20150303_050423_HIIALAKAI.all.mb56.gz 83.8KB Simrad multibeam vendor format
0251_20150206_110838_HIIALAKAI.all.mb56.gz 0.59MB Simrad multibeam vendor format
0251_20150303_053517_HIIALAKAI.all.mb56.gz 4.4KB Simrad multibeam vendor format
0252_20150206_111211_HIIALAKAI.all.mb56.gz 2.19MB Simrad multibeam vendor format
0252_20150303_053518_HIIALAKAI.all.mb56.gz 4.26MB Simrad multibeam vendor format
0253_20150206_112646_HIIALAKAI.all.mb56.gz 1.20MB Simrad multibeam vendor format
0253_20150303_060518_HIIALAKAI.all.mb56.gz 4.28MB Simrad multibeam vendor format
0254_20150206_113338_HIIALAKAI.all.mb56.gz 2.44MB Simrad multibeam vendor format
0254_20150303_063518_HIIALAKAI.all.mb56.gz 4.72MB Simrad multibeam vendor format
0255_20150206_115124_HIIALAKAI.all.mb56.gz 5.26MB Simrad multibeam vendor format
0255_20150303_070518_HIIALAKAI.all.mb56.gz 6.26MB Simrad multibeam vendor format
0256_20150206_122124_HIIALAKAI.all.mb56.gz 4.66MB Simrad multibeam vendor format
0256_20150303_073518_HIIALAKAI.all.mb56.gz 6.40MB Simrad multibeam vendor format
0257_20150206_125124_HIIALAKAI.all.mb56.gz 4.82MB Simrad multibeam vendor format
0257_20150303_080519_HIIALAKAI.all.mb56.gz 6.98MB Simrad multibeam vendor format
0258_20150206_132124_HIIALAKAI.all.mb56.gz 5.27MB Simrad multibeam vendor format
0258_20150303_083519_HIIALAKAI.all.mb56.gz 5.89MB Simrad multibeam vendor format
0259_20150206_135124_HIIALAKAI.all.mb56.gz 4.98MB Simrad multibeam vendor format
0259_20150303_090519_HIIALAKAI.all.mb56.gz 3.20MB Simrad multibeam vendor format
0260_20150206_142124_HIIALAKAI.all.mb56.gz 3.49MB Simrad multibeam vendor format
0260_20150303_092204_HIIALAKAI.all.mb56.gz 18.7KB Simrad multibeam vendor format
0261_20150206_145124_HIIALAKAI.all.mb56.gz 3.43MB Simrad multibeam vendor format
0261_20150303_092209_HIIALAKAI.all.mb56.gz 2.06MB Simrad multibeam vendor format
0262_20150206_152124_HIIALAKAI.all.mb56.gz 3.32MB Simrad multibeam vendor format
0262_20150303_093403_HIIALAKAI.all.mb56.gz 4.79MB Simrad multibeam vendor format
0263_20150206_155124_HIIALAKAI.all.mb56.gz 3.39MB Simrad multibeam vendor format
0263_20150303_100404_HIIALAKAI.all.mb56.gz 5.60MB Simrad multibeam vendor format
0264_20150206_162124_HIIALAKAI.all.mb56.gz 3.56MB Simrad multibeam vendor format
0264_20150303_103404_HIIALAKAI.all.mb56.gz 5.79MB Simrad multibeam vendor format
0265_20150206_165124_HIIALAKAI.all.mb56.gz 4.13MB Simrad multibeam vendor format
0265_20150303_110404_HIIALAKAI.all.mb56.gz 5.51MB Simrad multibeam vendor format
0266_20150206_172124_HIIALAKAI.all.mb56.gz 7.05MB Simrad multibeam vendor format
0266_20150303_113404_HIIALAKAI.all.mb56.gz 5.31MB Simrad multibeam vendor format
0267_20150206_175124_HIIALAKAI.all.mb56.gz 8.34MB Simrad multibeam vendor format
0267_20150303_120404_HIIALAKAI.all.mb56.gz 5.09MB Simrad multibeam vendor format
0268_20150207_033744_HIIALAKAI.all.mb56.gz 8.33MB Simrad multibeam vendor format
0268_20150303_123404_HIIALAKAI.all.mb56.gz 4.35MB Simrad multibeam vendor format
0269_20150207_040744_HIIALAKAI.all.mb56.gz 4.83MB Simrad multibeam vendor format
0269_20150303_130404_HIIALAKAI.all.mb56.gz 4.38MB Simrad multibeam vendor format
0270_20150207_043744_HIIALAKAI.all.mb56.gz 3.95MB Simrad multibeam vendor format
0270_20150303_133404_HIIALAKAI.all.mb56.gz 4.32MB Simrad multibeam vendor format
0271_20150207_051012_HIIALAKAI.all.mb56.gz 473.0KB Simrad multibeam vendor format
0271_20150303_140404_HIIALAKAI.all.mb56.gz 4.36MB Simrad multibeam vendor format
0272_20150207_051338_HIIALAKAI.all.mb56.gz 4.21MB Simrad multibeam vendor format
0272_20150303_143404_HIIALAKAI.all.mb56.gz 4.91MB Simrad multibeam vendor format
0273_20150207_054338_HIIALAKAI.all.mb56.gz 0.81MB Simrad multibeam vendor format
0273_20150303_150404_HIIALAKAI.all.mb56.gz 4.88MB Simrad multibeam vendor format
0274_20150207_055810_HIIALAKAI.all.mb56.gz 173.7KB Simrad multibeam vendor format
0274_20150303_153404_HIIALAKAI.all.mb56.gz 4.91MB Simrad multibeam vendor format
0275_20150207_055926_HIIALAKAI.all.mb56.gz 105.4KB Simrad multibeam vendor format
0275_20150303_160404_HIIALAKAI.all.mb56.gz 6.81MB Simrad multibeam vendor format
0276_20150207_060013_HIIALAKAI.all.mb56.gz 130.1KB Simrad multibeam vendor format
0276_20150303_163404_HIIALAKAI.all.mb56.gz 18.58MB Simrad multibeam vendor format
0277_20150207_060214_HIIALAKAI.all.mb56.gz 5.9KB Simrad multibeam vendor format
0277_20150303_170404_HIIALAKAI.all.mb56.gz 18.52MB Simrad multibeam vendor format
0278_20150207_060218_HIIALAKAI.all.mb56.gz 4.00MB Simrad multibeam vendor format
0278_20150303_173404_HIIALAKAI.all.mb56.gz 19.00MB Simrad multibeam vendor format
0279_20150207_063218_HIIALAKAI.all.mb56.gz 1.65MB Simrad multibeam vendor format
0279_20150303_180404_HIIALAKAI.all.mb56.gz 19.03MB Simrad multibeam vendor format
0280_20150207_064528_HIIALAKAI.all.mb56.gz 1.9KB Simrad multibeam vendor format
0280_20150303_183404_HIIALAKAI.all.mb56.gz 19.07MB Simrad multibeam vendor format
0281_20150207_064530_HIIALAKAI.all.mb56.gz 1.17MB Simrad multibeam vendor format
0281_20150303_190404_HIIALAKAI.all.mb56.gz 19.61MB Simrad multibeam vendor format
0282_20150207_070903_HIIALAKAI.all.mb56.gz 4.39MB Simrad multibeam vendor format
0282_20150303_193404_HIIALAKAI.all.mb56.gz 19.08MB Simrad multibeam vendor format
0283_20150207_073904_HIIALAKAI.all.mb56.gz 4.48MB Simrad multibeam vendor format
0283_20150303_200404_HIIALAKAI.all.mb56.gz 19.44MB Simrad multibeam vendor format
0284_20150207_080904_HIIALAKAI.all.mb56.gz 4.37MB Simrad multibeam vendor format
0284_20150303_203404_HIIALAKAI.all.mb56.gz 18.50MB Simrad multibeam vendor format
0285_20150207_083904_HIIALAKAI.all.mb56.gz 1.00MB Simrad multibeam vendor format
0285_20150303_210404_HIIALAKAI.all.mb56.gz 19.33MB Simrad multibeam vendor format
0286_20150207_084639_HIIALAKAI.all.mb56.gz 508.6KB Simrad multibeam vendor format
0286_20150303_213404_HIIALAKAI.all.mb56.gz 18.41MB Simrad multibeam vendor format
0287_20150207_085001_HIIALAKAI.all.mb56.gz 3.59MB Simrad multibeam vendor format
0287_20150303_220404_HIIALAKAI.all.mb56.gz 19.30MB Simrad multibeam vendor format
0288_20150207_094117_HIIALAKAI.all.mb56.gz 4.42MB Simrad multibeam vendor format
0288_20150303_223404_HIIALAKAI.all.mb56.gz 20.31MB Simrad multibeam vendor format
0289_20150207_101117_HIIALAKAI.all.mb56.gz 1.73MB Simrad multibeam vendor format
0289_20150303_230404_HIIALAKAI.all.mb56.gz 20.49MB Simrad multibeam vendor format
0290_20150207_103053_HIIALAKAI.all.mb56.gz 2.37MB Simrad multibeam vendor format
0290_20150303_233404_HIIALAKAI.all.mb56.gz 19.78MB Simrad multibeam vendor format
0291_20150207_104653_HIIALAKAI.all.mb56.gz 4.40MB Simrad multibeam vendor format
0291_20150304_000404_HIIALAKAI.all.mb56.gz 20.82MB Simrad multibeam vendor format
0292_20150207_111653_HIIALAKAI.all.mb56.gz 4.54MB Simrad multibeam vendor format
0292_20150304_003405_HIIALAKAI.all.mb56.gz 23.59MB Simrad multibeam vendor format
0293_20150207_114653_HIIALAKAI.all.mb56.gz 4.71MB Simrad multibeam vendor format
0293_20150304_010404_HIIALAKAI.all.mb56.gz 23.96MB Simrad multibeam vendor format
0294_20150207_121653_HIIALAKAI.all.mb56.gz 4.80MB Simrad multibeam vendor format
0294_20150304_013404_HIIALAKAI.all.mb56.gz 20.04MB Simrad multibeam vendor format
0295_20150207_124653_HIIALAKAI.all.mb56.gz 4.54MB Simrad multibeam vendor format
0295_20150304_020405_HIIALAKAI.all.mb56.gz 20.64MB Simrad multibeam vendor format
0296_20150207_131653_HIIALAKAI.all.mb56.gz 4.56MB Simrad multibeam vendor format
0296_20150304_023405_HIIALAKAI.all.mb56.gz 18.94MB Simrad multibeam vendor format
0297_20150207_134653_HIIALAKAI.all.mb56.gz 4.30MB Simrad multibeam vendor format
0297_20150304_030405_HIIALAKAI.all.mb56.gz 18.40MB Simrad multibeam vendor format
0298_20150207_141653_HIIALAKAI.all.mb56.gz 4.28MB Simrad multibeam vendor format
0298_20150304_033405_HIIALAKAI.all.mb56.gz 16.95MB Simrad multibeam vendor format
0299_20150207_144653_HIIALAKAI.all.mb56.gz 4.34MB Simrad multibeam vendor format
0299_20150304_040405_HIIALAKAI.all.mb56.gz 4.81MB Simrad multibeam vendor format
0300_20150207_151653_HIIALAKAI.all.mb56.gz 4.32MB Simrad multibeam vendor format
0300_20150304_043405_HIIALAKAI.all.mb56.gz 4.51MB Simrad multibeam vendor format
0301_20150207_154653_HIIALAKAI.all.mb56.gz 4.55MB Simrad multibeam vendor format
0301_20150304_050405_HIIALAKAI.all.mb56.gz 0.89MB Simrad multibeam vendor format
0302_20150207_161654_HIIALAKAI.all.mb56.gz 5.16MB Simrad multibeam vendor format
0302_20150304_051018_HIIALAKAI.all.mb56.gz 4.55MB Simrad multibeam vendor format
0303_20150207_164654_HIIALAKAI.all.mb56.gz 7.25MB Simrad multibeam vendor format
0303_20150304_054018_HIIALAKAI.all.mb56.gz 4.50MB Simrad multibeam vendor format
0304_20150207_171654_HIIALAKAI.all.mb56.gz 8.09MB Simrad multibeam vendor format
0304_20150304_061018_HIIALAKAI.all.mb56.gz 4.36MB Simrad multibeam vendor format
0305_20150207_174654_HIIALAKAI.all.mb56.gz 7.77MB Simrad multibeam vendor format
0305_20150304_064018_HIIALAKAI.all.mb56.gz 3.47MB Simrad multibeam vendor format
0306_20150207_181654_HIIALAKAI.all.mb56.gz 7.60MB Simrad multibeam vendor format
0306_20150304_070436_HIIALAKAI.all.mb56.gz 19.7KB Simrad multibeam vendor format
0307_20150207_184654_HIIALAKAI.all.mb56.gz 7.12MB Simrad multibeam vendor format
0307_20150304_070444_HIIALAKAI.all.mb56.gz 4.29MB Simrad multibeam vendor format
0308_20150207_191654_HIIALAKAI.all.mb56.gz 7.07MB Simrad multibeam vendor format
0308_20150304_073444_HIIALAKAI.all.mb56.gz 4.12MB Simrad multibeam vendor format
0309_20150207_194654_HIIALAKAI.all.mb56.gz 7.29MB Simrad multibeam vendor format
0309_20150304_080444_HIIALAKAI.all.mb56.gz 4.26MB Simrad multibeam vendor format
0310_20150207_201654_HIIALAKAI.all.mb56.gz 7.52MB Simrad multibeam vendor format
0310_20150304_083444_HIIALAKAI.all.mb56.gz 4.25MB Simrad multibeam vendor format
0311_20150207_204654_HIIALAKAI.all.mb56.gz 7.01MB Simrad multibeam vendor format
0311_20150304_090444_HIIALAKAI.all.mb56.gz 4.34MB Simrad multibeam vendor format
0312_20150207_211654_HIIALAKAI.all.mb56.gz 6.74MB Simrad multibeam vendor format
0312_20150304_093444_HIIALAKAI.all.mb56.gz 4.33MB Simrad multibeam vendor format
0313_20150207_214654_HIIALAKAI.all.mb56.gz 7.21MB Simrad multibeam vendor format
0313_20150304_100444_HIIALAKAI.all.mb56.gz 4.38MB Simrad multibeam vendor format
0314_20150207_221654_HIIALAKAI.all.mb56.gz 7.60MB Simrad multibeam vendor format
0314_20150304_103444_HIIALAKAI.all.mb56.gz 4.68MB Simrad multibeam vendor format
0315_20150207_224654_HIIALAKAI.all.mb56.gz 7.45MB Simrad multibeam vendor format
0315_20150304_110444_HIIALAKAI.all.mb56.gz 6.06MB Simrad multibeam vendor format
0316_20150207_231654_HIIALAKAI.all.mb56.gz 7.53MB Simrad multibeam vendor format
0316_20150304_113444_HIIALAKAI.all.mb56.gz 6.22MB Simrad multibeam vendor format
0317_20150207_234654_HIIALAKAI.all.mb56.gz 7.26MB Simrad multibeam vendor format
0317_20150304_120444_HIIALAKAI.all.mb56.gz 4.73MB Simrad multibeam vendor format
0318_20150208_001654_HIIALAKAI.all.mb56.gz 7.23MB Simrad multibeam vendor format
0318_20150304_123444_HIIALAKAI.all.mb56.gz 4.41MB Simrad multibeam vendor format
0319_20150208_004654_HIIALAKAI.all.mb56.gz 7.95MB Simrad multibeam vendor format
0319_20150304_130444_HIIALAKAI.all.mb56.gz 4.57MB Simrad multibeam vendor format
0320_20150208_011654_HIIALAKAI.all.mb56.gz 7.95MB Simrad multibeam vendor format
0320_20150304_133444_HIIALAKAI.all.mb56.gz 4.29MB Simrad multibeam vendor format
0321_20150208_014654_HIIALAKAI.all.mb56.gz 5.53MB Simrad multibeam vendor format
0321_20150304_140444_HIIALAKAI.all.mb56.gz 4.34MB Simrad multibeam vendor format
0322_20150208_021523_HIIALAKAI.all.mb56.gz 323.6KB Simrad multibeam vendor format
0322_20150304_143444_HIIALAKAI.all.mb56.gz 4.36MB Simrad multibeam vendor format
0323_20150208_032037_HIIALAKAI.all.mb56.gz 1.8KB Simrad multibeam vendor format
0323_20150304_150444_HIIALAKAI.all.mb56.gz 4.36MB Simrad multibeam vendor format
0324_20150208_032041_HIIALAKAI.all.mb56.gz 5.97MB Simrad multibeam vendor format
0324_20150304_153444_HIIALAKAI.all.mb56.gz 4.50MB Simrad multibeam vendor format
0325_20150208_035041_HIIALAKAI.all.mb56.gz 4.02MB Simrad multibeam vendor format
0325_20150304_160445_HIIALAKAI.all.mb56.gz 4.39MB Simrad multibeam vendor format
0326_20150208_042041_HIIALAKAI.all.mb56.gz 3.47MB Simrad multibeam vendor format
0326_20150304_163445_HIIALAKAI.all.mb56.gz 6.33MB Simrad multibeam vendor format
0327_20150208_045041_HIIALAKAI.all.mb56.gz 1.25MB Simrad multibeam vendor format
0327_20150304_170445_HIIALAKAI.all.mb56.gz 22.58MB Simrad multibeam vendor format
0328_20150304_173445_HIIALAKAI.all.mb56.gz 16.76MB Simrad multibeam vendor format
0329_20150304_180445_HIIALAKAI.all.mb56.gz 23.08MB Simrad multibeam vendor format
0330_20150304_183445_HIIALAKAI.all.mb56.gz 22.32MB Simrad multibeam vendor format
0331_20150304_190445_HIIALAKAI.all.mb56.gz 23.32MB Simrad multibeam vendor format
0332_20150304_193445_HIIALAKAI.all.mb56.gz 23.35MB Simrad multibeam vendor format
0333_20150304_200445_HIIALAKAI.all.mb56.gz 23.77MB Simrad multibeam vendor format
0334_20150304_203445_HIIALAKAI.all.mb56.gz 23.22MB Simrad multibeam vendor format
0335_20150304_210445_HIIALAKAI.all.mb56.gz 20.77MB Simrad multibeam vendor format
0336_20150304_213445_HIIALAKAI.all.mb56.gz 23.50MB Simrad multibeam vendor format
0337_20150304_220445_HIIALAKAI.all.mb56.gz 24.24MB Simrad multibeam vendor format
0338_20150304_223445_HIIALAKAI.all.mb56.gz 24.16MB Simrad multibeam vendor format
0339_20150304_230445_HIIALAKAI.all.mb56.gz 23.40MB Simrad multibeam vendor format
0340_20150304_233445_HIIALAKAI.all.mb56.gz 23.31MB Simrad multibeam vendor format
0341_20150305_000445_HIIALAKAI.all.mb56.gz 23.52MB Simrad multibeam vendor format
0342_20150305_003445_HIIALAKAI.all.mb56.gz 22.23MB Simrad multibeam vendor format
0343_20150305_010445_HIIALAKAI.all.mb56.gz 23.48MB Simrad multibeam vendor format
0344_20150305_013445_HIIALAKAI.all.mb56.gz 23.44MB Simrad multibeam vendor format
0345_20150305_020445_HIIALAKAI.all.mb56.gz 23.73MB Simrad multibeam vendor format
0346_20150305_023445_HIIALAKAI.all.mb56.gz 21.79MB Simrad multibeam vendor format
0347_20150305_030445_HIIALAKAI.all.mb56.gz 22.59MB Simrad multibeam vendor format
0348_20150305_033445_HIIALAKAI.all.mb56.gz 16.41MB Simrad multibeam vendor format
0349_20150305_040445_HIIALAKAI.all.mb56.gz 23.83MB Simrad multibeam vendor format
0350_20150305_043445_HIIALAKAI.all.mb56.gz 22.43MB Simrad multibeam vendor format
0351_20150305_050446_HIIALAKAI.all.mb56.gz 22.39MB Simrad multibeam vendor format
0352_20150305_053446_HIIALAKAI.all.mb56.gz 20.39MB Simrad multibeam vendor format
0353_20150305_060446_HIIALAKAI.all.mb56.gz 20.45MB Simrad multibeam vendor format
0354_20150305_063446_HIIALAKAI.all.mb56.gz 20.73MB Simrad multibeam vendor format
0355_20150305_070446_HIIALAKAI.all.mb56.gz 16.65MB Simrad multibeam vendor format
0356_20150305_073446_HIIALAKAI.all.mb56.gz 32.5KB Simrad multibeam vendor format
0357_20150305_073455_HIIALAKAI.all.mb56.gz 6.1KB Simrad multibeam vendor format
0358_20150305_073503_HIIALAKAI.all.mb56.gz 4.95MB Simrad multibeam vendor format
0359_20150305_075840_HIIALAKAI.all.mb56.gz 4.6KB Simrad multibeam vendor format
0360_20150305_075842_HIIALAKAI.all.mb56.gz 6.34MB Simrad multibeam vendor format
0361_20150305_082842_HIIALAKAI.all.mb56.gz 5.32MB Simrad multibeam vendor format
0362_20150305_085842_HIIALAKAI.all.mb56.gz 1.43MB Simrad multibeam vendor format
0363_20150305_090746_HIIALAKAI.all.mb56.gz 13.7KB Simrad multibeam vendor format
0364_20150305_090750_HIIALAKAI.all.mb56.gz 4.44MB Simrad multibeam vendor format
0365_20150305_093750_HIIALAKAI.all.mb56.gz 4.85MB Simrad multibeam vendor format
0366_20150305_100750_HIIALAKAI.all.mb56.gz 4.40MB Simrad multibeam vendor format
0367_20150305_103750_HIIALAKAI.all.mb56.gz 4.19MB Simrad multibeam vendor format
0368_20150305_110750_HIIALAKAI.all.mb56.gz 4.25MB Simrad multibeam vendor format
0369_20150305_113751_HIIALAKAI.all.mb56.gz 4.44MB Simrad multibeam vendor format
0370_20150305_120751_HIIALAKAI.all.mb56.gz 5.02MB Simrad multibeam vendor format
0371_20150305_123751_HIIALAKAI.all.mb56.gz 4.65MB Simrad multibeam vendor format
0372_20150305_130751_HIIALAKAI.all.mb56.gz 5.22MB Simrad multibeam vendor format
0373_20150305_133751_HIIALAKAI.all.mb56.gz 6.26MB Simrad multibeam vendor format
0374_20150305_140751_HIIALAKAI.all.mb56.gz 5.59MB Simrad multibeam vendor format
0375_20150305_143751_HIIALAKAI.all.mb56.gz 16.74MB Simrad multibeam vendor format
0376_20150305_150751_HIIALAKAI.all.mb56.gz 10.69MB Simrad multibeam vendor format
0377_20150305_153751_HIIALAKAI.all.mb56.gz 5.42MB Simrad multibeam vendor format
0378_20150305_160751_HIIALAKAI.all.mb56.gz 4.66MB Simrad multibeam vendor format
0379_20150305_163751_HIIALAKAI.all.mb56.gz 5.85MB Simrad multibeam vendor format
0380_20150305_170751_HIIALAKAI.all.mb56.gz 18.86MB Simrad multibeam vendor format
0381_20150305_173751_HIIALAKAI.all.mb56.gz 5.24MB Simrad multibeam vendor format
0382_20150306_034755_HIIALAKAI.all.mb56.gz 9.3KB Simrad multibeam vendor format
0383_20150306_034759_HIIALAKAI.all.mb56.gz 125.2KB Simrad multibeam vendor format
0384_20150306_034912_HIIALAKAI.all.mb56.gz 21.45MB Simrad multibeam vendor format
0385_20150306_041912_HIIALAKAI.all.mb56.gz 11.61MB Simrad multibeam vendor format
0386_20150306_044912_HIIALAKAI.all.mb56.gz 7.22MB Simrad multibeam vendor format
0387_20150306_051912_HIIALAKAI.all.mb56.gz 8.84MB Simrad multibeam vendor format
0388_20150306_054912_HIIALAKAI.all.mb56.gz 9.29MB Simrad multibeam vendor format
0389_20150306_061912_HIIALAKAI.all.mb56.gz 5.96MB Simrad multibeam vendor format
0390_20150306_064912_HIIALAKAI.all.mb56.gz 6.37MB Simrad multibeam vendor format
0391_20150306_071912_HIIALAKAI.all.mb56.gz 5.29MB Simrad multibeam vendor format
0392_20150306_074912_HIIALAKAI.all.mb56.gz 5.67MB Simrad multibeam vendor format
0393_20150306_081912_HIIALAKAI.all.mb56.gz 4.61MB Simrad multibeam vendor format
0394_20150306_084912_HIIALAKAI.all.mb56.gz 4.23MB Simrad multibeam vendor format
0395_20150306_091912_HIIALAKAI.all.mb56.gz 4.22MB Simrad multibeam vendor format
0396_20150306_094912_HIIALAKAI.all.mb56.gz 4.21MB Simrad multibeam vendor format
0397_20150306_101912_HIIALAKAI.all.mb56.gz 4.47MB Simrad multibeam vendor format
0398_20150306_104912_HIIALAKAI.all.mb56.gz 4.32MB Simrad multibeam vendor format
0399_20150306_111912_HIIALAKAI.all.mb56.gz 4.81MB Simrad multibeam vendor format
0400_20150306_114912_HIIALAKAI.all.mb56.gz 6.10MB Simrad multibeam vendor format
0401_20150306_121912_HIIALAKAI.all.mb56.gz 5.38MB Simrad multibeam vendor format
0402_20150306_124912_HIIALAKAI.all.mb56.gz 4.66MB Simrad multibeam vendor format
0403_20150306_131912_HIIALAKAI.all.mb56.gz 4.67MB Simrad multibeam vendor format
0404_20150306_134912_HIIALAKAI.all.mb56.gz 4.33MB Simrad multibeam vendor format
0405_20150306_141912_HIIALAKAI.all.mb56.gz 4.51MB Simrad multibeam vendor format
0406_20150306_144912_HIIALAKAI.all.mb56.gz 5.57MB Simrad multibeam vendor format
0407_20150306_151913_HIIALAKAI.all.mb56.gz 19.23MB Simrad multibeam vendor format
0408_20150306_154913_HIIALAKAI.all.mb56.gz 8.96MB Simrad multibeam vendor format
0409_20150306_161913_HIIALAKAI.all.mb56.gz 6.44MB Simrad multibeam vendor format
0410_20150306_164913_HIIALAKAI.all.mb56.gz 14.30MB Simrad multibeam vendor format
0411_20150306_171913_HIIALAKAI.all.mb56.gz 22.23MB Simrad multibeam vendor format
0412_20150306_174913_HIIALAKAI.all.mb56.gz 21.15MB Simrad multibeam vendor format
0413_20150306_181913_HIIALAKAI.all.mb56.gz 24.98MB Simrad multibeam vendor format
0414_20150306_184913_HIIALAKAI.all.mb56.gz 24.14MB Simrad multibeam vendor format
0415_20150306_191913_HIIALAKAI.all.mb56.gz 11.93MB Simrad multibeam vendor format
0416_20150306_194913_HIIALAKAI.all.mb56.gz 12.41MB Simrad multibeam vendor format
0417_20150306_201913_HIIALAKAI.all.mb56.gz 7.64MB Simrad multibeam vendor format
0418_20150306_204913_HIIALAKAI.all.mb56.gz 6.58MB Simrad multibeam vendor format
0419_20150306_211913_HIIALAKAI.all.mb56.gz 8.13MB Simrad multibeam vendor format
0420_20150306_214913_HIIALAKAI.all.mb56.gz 11.24MB Simrad multibeam vendor format
0421_20150306_221913_HIIALAKAI.all.mb56.gz 16.51MB Simrad multibeam vendor format
0422_20150306_224913_HIIALAKAI.all.mb56.gz 21.84MB Simrad multibeam vendor format
0423_20150306_231913_HIIALAKAI.all.mb56.gz 23.31MB Simrad multibeam vendor format
0424_20150306_234913_HIIALAKAI.all.mb56.gz 20.55MB Simrad multibeam vendor format
0425_20150307_001913_HIIALAKAI.all.mb56.gz 23.20MB Simrad multibeam vendor format
0426_20150307_004913_HIIALAKAI.all.mb56.gz 16.48MB Simrad multibeam vendor format
0427_20150307_011913_HIIALAKAI.all.mb56.gz 22.40MB Simrad multibeam vendor format
0428_20150307_014913_HIIALAKAI.all.mb56.gz 21.87MB Simrad multibeam vendor format
0429_20150307_021913_HIIALAKAI.all.mb56.gz 21.67MB Simrad multibeam vendor format
0430_20150307_024913_HIIALAKAI.all.mb56.gz 21.41MB Simrad multibeam vendor format
0431_20150307_031914_HIIALAKAI.all.mb56.gz 19.76MB Simrad multibeam vendor format
0432_20150307_034914_HIIALAKAI.all.mb56.gz 13.15MB Simrad multibeam vendor format
0433_20150307_041914_HIIALAKAI.all.mb56.gz 4.83MB Simrad multibeam vendor format
0434_20150307_044914_HIIALAKAI.all.mb56.gz 3.60MB Simrad multibeam vendor format
0435_20150307_051914_HIIALAKAI.all.mb56.gz 3.34MB Simrad multibeam vendor format
0436_20150307_054914_HIIALAKAI.all.mb56.gz 3.64MB Simrad multibeam vendor format
0437_20150307_061914_HIIALAKAI.all.mb56.gz 4.44MB Simrad multibeam vendor format
0438_20150307_064914_HIIALAKAI.all.mb56.gz 4.33MB Simrad multibeam vendor format
0439_20150307_071914_HIIALAKAI.all.mb56.gz 4.42MB Simrad multibeam vendor format
0440_20150307_074914_HIIALAKAI.all.mb56.gz 4.36MB Simrad multibeam vendor format
0441_20150307_081914_HIIALAKAI.all.mb56.gz 4.32MB Simrad multibeam vendor format
0442_20150307_084914_HIIALAKAI.all.mb56.gz 4.39MB Simrad multibeam vendor format
0443_20150307_091914_HIIALAKAI.all.mb56.gz 4.95MB Simrad multibeam vendor format
0444_20150307_094914_HIIALAKAI.all.mb56.gz 6.18MB Simrad multibeam vendor format
0445_20150307_101914_HIIALAKAI.all.mb56.gz 3.57MB Simrad multibeam vendor format
0446_20150307_104251_HIIALAKAI.all.mb56.gz 5.9KB Simrad multibeam vendor format
0447_20150307_104253_HIIALAKAI.all.mb56.gz 4.58MB Simrad multibeam vendor format
0448_20150307_111253_HIIALAKAI.all.mb56.gz 5.28MB Simrad multibeam vendor format
0449_20150307_114253_HIIALAKAI.all.mb56.gz 6.21MB Simrad multibeam vendor format
0450_20150307_121254_HIIALAKAI.all.mb56.gz 4.75MB Simrad multibeam vendor format
0451_20150307_124254_HIIALAKAI.all.mb56.gz 4.41MB Simrad multibeam vendor format
0452_20150307_131254_HIIALAKAI.all.mb56.gz 4.45MB Simrad multibeam vendor format
0453_20150307_134254_HIIALAKAI.all.mb56.gz 4.39MB Simrad multibeam vendor format
0454_20150307_141254_HIIALAKAI.all.mb56.gz 4.50MB Simrad multibeam vendor format
0455_20150307_144254_HIIALAKAI.all.mb56.gz 4.36MB Simrad multibeam vendor format
0456_20150307_151254_HIIALAKAI.all.mb56.gz 4.26MB Simrad multibeam vendor format
0457_20150307_154254_HIIALAKAI.all.mb56.gz 4.50MB Simrad multibeam vendor format
0458_20150307_161254_HIIALAKAI.all.mb56.gz 4.78MB Simrad multibeam vendor format
0459_20150307_164254_HIIALAKAI.all.mb56.gz 172.4KB Simrad multibeam vendor format
0460_20150312_192146_HIIALAKAI.all.mb56.gz 13.0KB Simrad multibeam vendor format
0461_20150312_192442_HIIALAKAI.all.mb56.gz 42.91MB Simrad multibeam vendor format
0475_20150313_040134_HIIALAKAI.all.mb56.gz 35.7KB Simrad multibeam vendor format
0476_20150313_040136_HIIALAKAI.all.mb56.gz 21.76MB Simrad multibeam vendor format
0477_20150313_043136_HIIALAKAI.all.mb56.gz 12.99MB Simrad multibeam vendor format
0478_20150313_050136_HIIALAKAI.all.mb56.gz 5.07MB Simrad multibeam vendor format
0479_20150313_053136_HIIALAKAI.all.mb56.gz 4.69MB Simrad multibeam vendor format
0480_20150313_060136_HIIALAKAI.all.mb56.gz 5.41MB Simrad multibeam vendor format
0481_20150313_063136_HIIALAKAI.all.mb56.gz 6.53MB Simrad multibeam vendor format
0482_20150313_070136_HIIALAKAI.all.mb56.gz 4.74MB Simrad multibeam vendor format
0483_20150313_073136_HIIALAKAI.all.mb56.gz 4.14MB Simrad multibeam vendor format
0484_20150313_080136_HIIALAKAI.all.mb56.gz 4.19MB Simrad multibeam vendor format
0485_20150313_083136_HIIALAKAI.all.mb56.gz 4.56MB Simrad multibeam vendor format
0486_20150313_090136_HIIALAKAI.all.mb56.gz 1.62MB Simrad multibeam vendor format
0487_20150314_050138_HIIALAKAI.all.mb56.gz 16.2KB Simrad multibeam vendor format
0488_20150314_050142_HIIALAKAI.all.mb56.gz 66.9KB Simrad multibeam vendor format
0489_20150314_050202_HIIALAKAI.all.mb56.gz 7.5KB Simrad multibeam vendor format
0490_20150323_100718_HIIALAKAI.all.mb56.gz 10.46MB Simrad multibeam vendor format
0491_20150323_103718_HIIALAKAI.all.mb56.gz 2.47MB Simrad multibeam vendor format
0492_20150324_021036_HIIALAKAI.all.mb56.gz 15.3KB Simrad multibeam vendor format
0493_20150324_021054_HIIALAKAI.all.mb56.gz 6.21MB Simrad multibeam vendor format
0494_20150324_024053_HIIALAKAI.all.mb56.gz 7.36MB Simrad multibeam vendor format
0495_20150324_031053_HIIALAKAI.all.mb56.gz 7.97MB Simrad multibeam vendor format
0496_20150324_034053_HIIALAKAI.all.mb56.gz 8.35MB Simrad multibeam vendor format
0497_20150324_041053_HIIALAKAI.all.mb56.gz 8.16MB Simrad multibeam vendor format
0498_20150324_044054_HIIALAKAI.all.mb56.gz 6.08MB Simrad multibeam vendor format
0499_20150324_051054_HIIALAKAI.all.mb56.gz 4.39MB Simrad multibeam vendor format
0500_20150324_054054_HIIALAKAI.all.mb56.gz 1.13MB Simrad multibeam vendor format
0501_20150324_054849_HIIALAKAI.all.mb56.gz 4.23MB Simrad multibeam vendor format
0502_20150324_061849_HIIALAKAI.all.mb56.gz 4.22MB Simrad multibeam vendor format
0503_20150324_064849_HIIALAKAI.all.mb56.gz 4.54MB Simrad multibeam vendor format
0504_20150324_071849_HIIALAKAI.all.mb56.gz 4.58MB Simrad multibeam vendor format
0505_20150324_074849_HIIALAKAI.all.mb56.gz 4.79MB Simrad multibeam vendor format
0506_20150324_081849_HIIALAKAI.all.mb56.gz 4.99MB Simrad multibeam vendor format
0507_20150324_084849_HIIALAKAI.all.mb56.gz 5.02MB Simrad multibeam vendor format
0508_20150324_091849_HIIALAKAI.all.mb56.gz 5.47MB Simrad multibeam vendor format
0509_20150324_094849_HIIALAKAI.all.mb56.gz 6.14MB Simrad multibeam vendor format
0510_20150324_101849_HIIALAKAI.all.mb56.gz 5.57MB Simrad multibeam vendor format
0511_20150324_104849_HIIALAKAI.all.mb56.gz 5.49MB Simrad multibeam vendor format
0512_20150324_111849_HIIALAKAI.all.mb56.gz 7.24MB Simrad multibeam vendor format
0513_20150324_114849_HIIALAKAI.all.mb56.gz 6.31MB Simrad multibeam vendor format
0514_20150324_121849_HIIALAKAI.all.mb56.gz 5.52MB Simrad multibeam vendor format
0515_20150324_124849_HIIALAKAI.all.mb56.gz 8.84MB Simrad multibeam vendor format
0516_20150324_131849_HIIALAKAI.all.mb56.gz 7.31MB Simrad multibeam vendor format
0517_20150324_134849_HIIALAKAI.all.mb56.gz 7.12MB Simrad multibeam vendor format
0518_20150324_141849_HIIALAKAI.all.mb56.gz 10.86MB Simrad multibeam vendor format
0519_20150324_144849_HIIALAKAI.all.mb56.gz 10.83MB Simrad multibeam vendor format
0520_20150324_151849_HIIALAKAI.all.mb56.gz 11.25MB Simrad multibeam vendor format
0521_20150324_154849_HIIALAKAI.all.mb56.gz 6.89MB Simrad multibeam vendor format
0522_20150324_161849_HIIALAKAI.all.mb56.gz 8.35MB Simrad multibeam vendor format
0523_20150324_164849_HIIALAKAI.all.mb56.gz 8.05MB Simrad multibeam vendor format
0524_20150324_171849_HIIALAKAI.all.mb56.gz 8.27MB Simrad multibeam vendor format
0525_20150324_174849_HIIALAKAI.all.mb56.gz 7.68MB Simrad multibeam vendor format
0526_20150324_181849_HIIALAKAI.all.mb56.gz 9.31MB Simrad multibeam vendor format
0527_20150325_050138_HIIALAKAI.all.mb56.gz 5.22MB Simrad multibeam vendor format
0528_20150325_053138_HIIALAKAI.all.mb56.gz 4.98MB Simrad multibeam vendor format
0529_20150325_060138_HIIALAKAI.all.mb56.gz 4.67MB Simrad multibeam vendor format
0530_20150325_063138_HIIALAKAI.all.mb56.gz 4.92MB Simrad multibeam vendor format
0531_20150325_070138_HIIALAKAI.all.mb56.gz 4.76MB Simrad multibeam vendor format
0532_20150325_073138_HIIALAKAI.all.mb56.gz 4.38MB Simrad multibeam vendor format
0533_20150325_080138_HIIALAKAI.all.mb56.gz 66.6KB Simrad multibeam vendor format
0534_20150328_021822_HIIALAKAI.all.mb56.gz 6.44MB Simrad multibeam vendor format
0535_20150328_024822_HIIALAKAI.all.mb56.gz 5.59MB Simrad multibeam vendor format
0536_20150328_031822_HIIALAKAI.all.mb56.gz 5.13MB Simrad multibeam vendor format
0537_20150328_034822_HIIALAKAI.all.mb56.gz 4.82MB Simrad multibeam vendor format
0538_20150328_041822_HIIALAKAI.all.mb56.gz 4.21MB Simrad multibeam vendor format
0541_20150328_061545_HIIALAKAI.all.mb56.gz 4.49MB Simrad multibeam vendor format
0542_20150328_064545_HIIALAKAI.all.mb56.gz 5.29MB Simrad multibeam vendor format
0543_20150328_071545_HIIALAKAI.all.mb56.gz 5.94MB Simrad multibeam vendor format
0544_20150328_074545_HIIALAKAI.all.mb56.gz 5.44MB Simrad multibeam vendor format
0545_20150328_081545_HIIALAKAI.all.mb56.gz 5.21MB Simrad multibeam vendor format
0546_20150328_084545_HIIALAKAI.all.mb56.gz 13.39MB Simrad multibeam vendor format
0547_20150328_091545_HIIALAKAI.all.mb56.gz 22.81MB Simrad multibeam vendor format
0548_20150328_094545_HIIALAKAI.all.mb56.gz 20.82MB Simrad multibeam vendor format
0549_20150328_101545_HIIALAKAI.all.mb56.gz 19.63MB Simrad multibeam vendor format
0550_20150328_104545_HIIALAKAI.all.mb56.gz 20.32MB Simrad multibeam vendor format
0551_20150328_111545_HIIALAKAI.all.mb56.gz 19.62MB Simrad multibeam vendor format
0552_20150328_114545_HIIALAKAI.all.mb56.gz 19.53MB Simrad multibeam vendor format
0553_20150328_121545_HIIALAKAI.all.mb56.gz 19.94MB Simrad multibeam vendor format
0554_20150328_124545_HIIALAKAI.all.mb56.gz 18.21MB Simrad multibeam vendor format
0555_20150328_131545_HIIALAKAI.all.mb56.gz 21.73MB Simrad multibeam vendor format
0556_20150328_134546_HIIALAKAI.all.mb56.gz 19.18MB Simrad multibeam vendor format
0557_20150328_141546_HIIALAKAI.all.mb56.gz 19.48MB Simrad multibeam vendor format
0558_20150328_144546_HIIALAKAI.all.mb56.gz 14.25MB Simrad multibeam vendor format
0559_20150328_151546_HIIALAKAI.all.mb56.gz 20.35MB Simrad multibeam vendor format
0560_20150328_154546_HIIALAKAI.all.mb56.gz 21.75MB Simrad multibeam vendor format
0561_20150328_161546_HIIALAKAI.all.mb56.gz 14.01MB Simrad multibeam vendor format
0562_20150328_164546_HIIALAKAI.all.mb56.gz 16.84MB Simrad multibeam vendor format
0563_20150328_171546_HIIALAKAI.all.mb56.gz 18.78MB Simrad multibeam vendor format
0564_20150328_174546_HIIALAKAI.all.mb56.gz 18.92MB Simrad multibeam vendor format
0565_20150328_181546_HIIALAKAI.all.mb56.gz 20.35MB Simrad multibeam vendor format
0566_20150328_184546_HIIALAKAI.all.mb56.gz 19.69MB Simrad multibeam vendor format
0567_20150328_191546_HIIALAKAI.all.mb56.gz 19.37MB Simrad multibeam vendor format
0568_20150328_194546_HIIALAKAI.all.mb56.gz 20.01MB Simrad multibeam vendor format
0569_20150328_201546_HIIALAKAI.all.mb56.gz 19.96MB Simrad multibeam vendor format
0570_20150328_204546_HIIALAKAI.all.mb56.gz 20.77MB Simrad multibeam vendor format
0571_20150328_211546_HIIALAKAI.all.mb56.gz 21.16MB Simrad multibeam vendor format
0572_20150328_214546_HIIALAKAI.all.mb56.gz 19.62MB Simrad multibeam vendor format
0573_20150328_221546_HIIALAKAI.all.mb56.gz 20.32MB Simrad multibeam vendor format
0574_20150328_224546_HIIALAKAI.all.mb56.gz 18.89MB Simrad multibeam vendor format
0575_20150328_231546_HIIALAKAI.all.mb56.gz 17.87MB Simrad multibeam vendor format
0576_20150328_234546_HIIALAKAI.all.mb56.gz 19.50MB Simrad multibeam vendor format
0577_20150329_001546_HIIALAKAI.all.mb56.gz 18.70MB Simrad multibeam vendor format
0578_20150329_004546_HIIALAKAI.all.mb56.gz 20.71MB Simrad multibeam vendor format
0579_20150329_011546_HIIALAKAI.all.mb56.gz 20.72MB Simrad multibeam vendor format
0580_20150329_014546_HIIALAKAI.all.mb56.gz 20.18MB Simrad multibeam vendor format
0581_20150329_021546_HIIALAKAI.all.mb56.gz 19.07MB Simrad multibeam vendor format
0582_20150329_024546_HIIALAKAI.all.mb56.gz 20.06MB Simrad multibeam vendor format
0583_20150329_031546_HIIALAKAI.all.mb56.gz 18.85MB Simrad multibeam vendor format
0584_20150329_034547_HIIALAKAI.all.mb56.gz 11.54MB Simrad multibeam vendor format
0585_20150329_041547_HIIALAKAI.all.mb56.gz 4.27MB Simrad multibeam vendor format
0586_20150329_044547_HIIALAKAI.all.mb56.gz 3.51MB Simrad multibeam vendor format
0587_20150329_051547_HIIALAKAI.all.mb56.gz 3.22MB Simrad multibeam vendor format
0588_20150329_054547_HIIALAKAI.all.mb56.gz 1.98MB Simrad multibeam vendor format
0589_20150329_071606_HIIALAKAI.all.mb56.gz 11.29MB Simrad multibeam vendor format
0590_20150329_074607_HIIALAKAI.all.mb56.gz 20.38MB Simrad multibeam vendor format
0591_20150329_081607_HIIALAKAI.all.mb56.gz 9.47MB Simrad multibeam vendor format
0592_20150329_084607_HIIALAKAI.all.mb56.gz 1.28MB Simrad multibeam vendor format
0593_20150329_085314_HIIALAKAI.all.mb56.gz 4.47MB Simrad multibeam vendor format
0594_20150329_092314_HIIALAKAI.all.mb56.gz 4.36MB Simrad multibeam vendor format
0595_20150329_095315_HIIALAKAI.all.mb56.gz 4.79MB Simrad multibeam vendor format
0596_20150329_102315_HIIALAKAI.all.mb56.gz 5.52MB Simrad multibeam vendor format
0597_20150329_105315_HIIALAKAI.all.mb56.gz 4.45MB Simrad multibeam vendor format
0598_20150329_112315_HIIALAKAI.all.mb56.gz 4.61MB Simrad multibeam vendor format
0599_20150329_115315_HIIALAKAI.all.mb56.gz 4.92MB Simrad multibeam vendor format
0600_20150329_122315_HIIALAKAI.all.mb56.gz 5.53MB Simrad multibeam vendor format
0601_20150329_125315_HIIALAKAI.all.mb56.gz 6.37MB Simrad multibeam vendor format
0602_20150329_132315_HIIALAKAI.all.mb56.gz 7.77MB Simrad multibeam vendor format
0603_20150329_135315_HIIALAKAI.all.mb56.gz 20.43MB Simrad multibeam vendor format
0604_20150329_142315_HIIALAKAI.all.mb56.gz 19.57MB Simrad multibeam vendor format
0605_20150329_145315_HIIALAKAI.all.mb56.gz 19.60MB Simrad multibeam vendor format
0606_20150329_152315_HIIALAKAI.all.mb56.gz 22.04MB Simrad multibeam vendor format
0607_20150329_155315_HIIALAKAI.all.mb56.gz 15.39MB Simrad multibeam vendor format
0608_20150329_162315_HIIALAKAI.all.mb56.gz 10.71MB Simrad multibeam vendor format
0609_20150329_165315_HIIALAKAI.all.mb56.gz 19.30MB Simrad multibeam vendor format
0610_20150329_172315_HIIALAKAI.all.mb56.gz 19.85MB Simrad multibeam vendor format
0611_20150329_175315_HIIALAKAI.all.mb56.gz 19.13MB Simrad multibeam vendor format
0612_20150329_182315_HIIALAKAI.all.mb56.gz 22.18MB Simrad multibeam vendor format
0613_20150329_185315_HIIALAKAI.all.mb56.gz 20.67MB Simrad multibeam vendor format
0614_20150329_192315_HIIALAKAI.all.mb56.gz 19.95MB Simrad multibeam vendor format
0615_20150329_195315_HIIALAKAI.all.mb56.gz 19.88MB Simrad multibeam vendor format
0616_20150329_202315_HIIALAKAI.all.mb56.gz 20.21MB Simrad multibeam vendor format
0617_20150329_205315_HIIALAKAI.all.mb56.gz 20.67MB Simrad multibeam vendor format
0618_20150329_212315_HIIALAKAI.all.mb56.gz 20.53MB Simrad multibeam vendor format
0619_20150329_215315_HIIALAKAI.all.mb56.gz 20.22MB Simrad multibeam vendor format
0620_20150329_222315_HIIALAKAI.all.mb56.gz 20.26MB Simrad multibeam vendor format
0621_20150329_225315_HIIALAKAI.all.mb56.gz 19.76MB Simrad multibeam vendor format
0622_20150329_232315_HIIALAKAI.all.mb56.gz 18.48MB Simrad multibeam vendor format
0623_20150329_235316_HIIALAKAI.all.mb56.gz 19.00MB Simrad multibeam vendor format
0624_20150330_002316_HIIALAKAI.all.mb56.gz 19.37MB Simrad multibeam vendor format
0625_20150330_005316_HIIALAKAI.all.mb56.gz 18.38MB Simrad multibeam vendor format
0626_20150330_012316_HIIALAKAI.all.mb56.gz 18.79MB Simrad multibeam vendor format
0627_20150330_015316_HIIALAKAI.all.mb56.gz 4.36MB Simrad multibeam vendor format

Full Resolution Bathymetry (processed): 357

Files File Size Description
0001_20150208_091902_HIIALAKAI-MBE.gsf.mb121.gz 7.95MB SAIC Generic Sensor Format (GSF)
0002_20150208_094903_HIIALAKAI-MBE.gsf.mb121.gz 7.27MB SAIC Generic Sensor Format (GSF)
0003_20150208_101903_HIIALAKAI-MBE.gsf.mb121.gz 7.50MB SAIC Generic Sensor Format (GSF)
0004_20150208_104903_HIIALAKAI-MBE.gsf.mb121.gz 7.32MB SAIC Generic Sensor Format (GSF)
0005_20150208_111903_HIIALAKAI-MBE.gsf.mb121.gz 7.16MB SAIC Generic Sensor Format (GSF)
0006_20150208_114903_HIIALAKAI-MBE.gsf.mb121.gz 7.44MB SAIC Generic Sensor Format (GSF)
0007_20150208_121903_HIIALAKAI-MBE.gsf.mb121.gz 7.47MB SAIC Generic Sensor Format (GSF)
0008_20150208_124903_HIIALAKAI-MBE.gsf.mb121.gz 7.94MB SAIC Generic Sensor Format (GSF)
0009_20150208_131903_HIIALAKAI-MBE.gsf.mb121.gz 7.47MB SAIC Generic Sensor Format (GSF)
0010_20150208_134903_HIIALAKAI-MBE.gsf.mb121.gz 7.39MB SAIC Generic Sensor Format (GSF)
0011_20150208_141903_HIIALAKAI-MBE.gsf.mb121.gz 8.23MB SAIC Generic Sensor Format (GSF)
0012_20150208_144903_HIIALAKAI-MBE.gsf.mb121.gz 7.35MB SAIC Generic Sensor Format (GSF)
0013_20150208_151903_HIIALAKAI-MBE.gsf.mb121.gz 7.70MB SAIC Generic Sensor Format (GSF)
0014_20150208_154903_HIIALAKAI-MBE.gsf.mb121.gz 8.08MB SAIC Generic Sensor Format (GSF)
0015_20150208_161903_HIIALAKAI-MBE.gsf.mb121.gz 8.06MB SAIC Generic Sensor Format (GSF)
0016_20150208_164903_HIIALAKAI-MBE.gsf.mb121.gz 12.66MB SAIC Generic Sensor Format (GSF)
0017_20150208_171903_HIIALAKAI-MBE.gsf.mb121.gz 13.93MB SAIC Generic Sensor Format (GSF)
0018_20150208_174903_HIIALAKAI-MBE.gsf.mb121.gz 10.62MB SAIC Generic Sensor Format (GSF)
0019_20150208_181903_HIIALAKAI-MBE.gsf.mb121.gz 18.87MB SAIC Generic Sensor Format (GSF)
0020_20150208_184903_HIIALAKAI-MBE.gsf.mb121.gz 21.78MB SAIC Generic Sensor Format (GSF)
0021_20150208_191903_HIIALAKAI-MBE.gsf.mb121.gz 17.04MB SAIC Generic Sensor Format (GSF)
0022_20150208_194903_HIIALAKAI-MBE.gsf.mb121.gz 12.13MB SAIC Generic Sensor Format (GSF)
0023_20150208_201903_HIIALAKAI-MBE.gsf.mb121.gz 10.52MB SAIC Generic Sensor Format (GSF)
0024_20150208_204903_HIIALAKAI-MBE.gsf.mb121.gz 14.89MB SAIC Generic Sensor Format (GSF)
0025_20150208_211903_HIIALAKAI-MBE.gsf.mb121.gz 15.92MB SAIC Generic Sensor Format (GSF)
0026_20150208_214903_HIIALAKAI-MBE.gsf.mb121.gz 9.78MB SAIC Generic Sensor Format (GSF)
0027_20150208_221904_HIIALAKAI-MBE.gsf.mb121.gz 11.41MB SAIC Generic Sensor Format (GSF)
0028_20150208_224904_HIIALAKAI-MBE.gsf.mb121.gz 3.20MB SAIC Generic Sensor Format (GSF)
0029_20150208_225844_HIIALAKAI-MBE.gsf.mb121.gz 10.65MB SAIC Generic Sensor Format (GSF)
0030_20150208_232844_HIIALAKAI-MBE.gsf.mb121.gz 11.04MB SAIC Generic Sensor Format (GSF)
0031_20150208_235844_HIIALAKAI-MBE.gsf.mb121.gz 10.23MB SAIC Generic Sensor Format (GSF)
0032_20150209_002844_HIIALAKAI-MBE.gsf.mb121.gz 11.16MB SAIC Generic Sensor Format (GSF)
0033_20150209_005844_HIIALAKAI-MBE.gsf.mb121.gz 15.01MB SAIC Generic Sensor Format (GSF)
0034_20150209_012844_HIIALAKAI-MBE.gsf.mb121.gz 15.88MB SAIC Generic Sensor Format (GSF)
0035_20150209_015844_HIIALAKAI-MBE.gsf.mb121.gz 12.12MB SAIC Generic Sensor Format (GSF)
0036_20150209_022844_HIIALAKAI-MBE.gsf.mb121.gz 11.29MB SAIC Generic Sensor Format (GSF)
0037_20150209_025844_HIIALAKAI-MBE.gsf.mb121.gz 12.87MB SAIC Generic Sensor Format (GSF)
0038_20150209_032844_HIIALAKAI-MBE.gsf.mb121.gz 10.59MB SAIC Generic Sensor Format (GSF)
0039_20150209_035844_HIIALAKAI-MBE.gsf.mb121.gz 15.12MB SAIC Generic Sensor Format (GSF)
0040_20150209_042844_HIIALAKAI-MBE.gsf.mb121.gz 16.24MB SAIC Generic Sensor Format (GSF)
0041_20150209_045845_HIIALAKAI-MBE.gsf.mb121.gz 8.89MB SAIC Generic Sensor Format (GSF)
0042_20150209_052844_HIIALAKAI-MBE.gsf.mb121.gz 7.80MB SAIC Generic Sensor Format (GSF)
0043_20150209_055845_HIIALAKAI-MBE.gsf.mb121.gz 7.25MB SAIC Generic Sensor Format (GSF)
0044_20150209_062845_HIIALAKAI-MBE.gsf.mb121.gz 7.59MB SAIC Generic Sensor Format (GSF)
0045_20150209_065845_HIIALAKAI-MBE.gsf.mb121.gz 7.53MB SAIC Generic Sensor Format (GSF)
0046_20150209_072845_HIIALAKAI-MBE.gsf.mb121.gz 7.57MB SAIC Generic Sensor Format (GSF)
0047_20150209_075845_HIIALAKAI-MBE.gsf.mb121.gz 7.62MB SAIC Generic Sensor Format (GSF)
0048_20150209_082845_HIIALAKAI-MBE.gsf.mb121.gz 7.22MB SAIC Generic Sensor Format (GSF)
0049_20150209_085845_HIIALAKAI-MBE.gsf.mb121.gz 7.63MB SAIC Generic Sensor Format (GSF)
0050_20150209_092845_HIIALAKAI-MBE.gsf.mb121.gz 7.70MB SAIC Generic Sensor Format (GSF)
0051_20150209_095845_HIIALAKAI-MBE.gsf.mb121.gz 7.55MB SAIC Generic Sensor Format (GSF)
0052_20150209_102845_HIIALAKAI-MBE.gsf.mb121.gz 7.14MB SAIC Generic Sensor Format (GSF)
0053_20150209_105845_HIIALAKAI-MBE.gsf.mb121.gz 7.34MB SAIC Generic Sensor Format (GSF)
0054_20150209_112845_HIIALAKAI-MBE.gsf.mb121.gz 7.83MB SAIC Generic Sensor Format (GSF)
0055_20150209_115845_HIIALAKAI-MBE.gsf.mb121.gz 7.23MB SAIC Generic Sensor Format (GSF)
0056_20150209_122845_HIIALAKAI-MBE.gsf.mb121.gz 7.61MB SAIC Generic Sensor Format (GSF)
0057_20150209_125845_HIIALAKAI-MBE.gsf.mb121.gz 7.35MB SAIC Generic Sensor Format (GSF)
0058_20150209_132845_HIIALAKAI-MBE.gsf.mb121.gz 7.14MB SAIC Generic Sensor Format (GSF)
0059_20150209_135845_HIIALAKAI-MBE.gsf.mb121.gz 7.44MB SAIC Generic Sensor Format (GSF)
0060_20150209_142845_HIIALAKAI-MBE.gsf.mb121.gz 7.68MB SAIC Generic Sensor Format (GSF)
0061_20150209_145845_HIIALAKAI-MBE.gsf.mb121.gz 7.19MB SAIC Generic Sensor Format (GSF)
0062_20150209_152845_HIIALAKAI-MBE.gsf.mb121.gz 7.49MB SAIC Generic Sensor Format (GSF)
0063_20150209_155846_HIIALAKAI-MBE.gsf.mb121.gz 7.21MB SAIC Generic Sensor Format (GSF)
0064_20150209_162845_HIIALAKAI-MBE.gsf.mb121.gz 8.41MB SAIC Generic Sensor Format (GSF)
0065_20150209_165845_HIIALAKAI-MBE.gsf.mb121.gz 10.92MB SAIC Generic Sensor Format (GSF)
0066_20150209_172845_HIIALAKAI-MBE.gsf.mb121.gz 11.44MB SAIC Generic Sensor Format (GSF)
0067_20150209_175845_HIIALAKAI-MBE.gsf.mb121.gz 11.40MB SAIC Generic Sensor Format (GSF)
0068_20150209_182845_HIIALAKAI-MBE.gsf.mb121.gz 16.16MB SAIC Generic Sensor Format (GSF)
0069_20150209_185845_HIIALAKAI-MBE.gsf.mb121.gz 21.61MB SAIC Generic Sensor Format (GSF)
0070_20150209_192845_HIIALAKAI-MBE.gsf.mb121.gz 16.21MB SAIC Generic Sensor Format (GSF)
0071_20150209_195845_HIIALAKAI-MBE.gsf.mb121.gz 11.29MB SAIC Generic Sensor Format (GSF)
0072_20150209_202846_HIIALAKAI-MBE.gsf.mb121.gz 10.16MB SAIC Generic Sensor Format (GSF)
0073_20150209_205846_HIIALAKAI-MBE.gsf.mb121.gz 9.48MB SAIC Generic Sensor Format (GSF)
0074_20150209_212846_HIIALAKAI-MBE.gsf.mb121.gz 16.42MB SAIC Generic Sensor Format (GSF)
0075_20150209_215846_HIIALAKAI-MBE.gsf.mb121.gz 16.29MB SAIC Generic Sensor Format (GSF)
0076_20150209_222846_HIIALAKAI-MBE.gsf.mb121.gz 9.89MB SAIC Generic Sensor Format (GSF)
0077_20150209_225846_HIIALAKAI-MBE.gsf.mb121.gz 11.52MB SAIC Generic Sensor Format (GSF)
0078_20150209_232846_HIIALAKAI-MBE.gsf.mb121.gz 12.01MB SAIC Generic Sensor Format (GSF)
0079_20150209_235846_HIIALAKAI-MBE.gsf.mb121.gz 16.52MB SAIC Generic Sensor Format (GSF)
0080_20150210_002846_HIIALAKAI-MBE.gsf.mb121.gz 15.78MB SAIC Generic Sensor Format (GSF)
0081_20150210_005846_HIIALAKAI-MBE.gsf.mb121.gz 10.17MB SAIC Generic Sensor Format (GSF)
0082_20150210_012846_HIIALAKAI-MBE.gsf.mb121.gz 10.99MB SAIC Generic Sensor Format (GSF)
0083_20150210_015846_HIIALAKAI-MBE.gsf.mb121.gz 7.10MB SAIC Generic Sensor Format (GSF)
0084_20150210_024054_HIIALAKAI-MBE.gsf.mb121.gz 17.93MB SAIC Generic Sensor Format (GSF)
0085_20150210_031054_HIIALAKAI-MBE.gsf.mb121.gz 16.49MB SAIC Generic Sensor Format (GSF)
0086_20150210_034054_HIIALAKAI-MBE.gsf.mb121.gz 11.68MB SAIC Generic Sensor Format (GSF)
0087_20150210_041054_HIIALAKAI-MBE.gsf.mb121.gz 9.54MB SAIC Generic Sensor Format (GSF)
0088_20150210_044054_HIIALAKAI-MBE.gsf.mb121.gz 8.26MB SAIC Generic Sensor Format (GSF)
0089_20150210_051054_HIIALAKAI-MBE.gsf.mb121.gz 61.2KB SAIC Generic Sensor Format (GSF)
0090_20150210_051114_HIIALAKAI-MBE.gsf.mb121.gz 7.53MB SAIC Generic Sensor Format (GSF)
0091_20150210_054114_HIIALAKAI-MBE.gsf.mb121.gz 6.97MB SAIC Generic Sensor Format (GSF)
0092_20150210_061114_HIIALAKAI-MBE.gsf.mb121.gz 1.65MB SAIC Generic Sensor Format (GSF)
0093_20150210_061816_HIIALAKAI-MBE.gsf.mb121.gz 7.67MB SAIC Generic Sensor Format (GSF)
0094_20150210_064816_HIIALAKAI-MBE.gsf.mb121.gz 7.17MB SAIC Generic Sensor Format (GSF)
0095_20150210_071816_HIIALAKAI-MBE.gsf.mb121.gz 7.43MB SAIC Generic Sensor Format (GSF)
0096_20150210_074816_HIIALAKAI-MBE.gsf.mb121.gz 7.31MB SAIC Generic Sensor Format (GSF)
0097_20150210_081816_HIIALAKAI-MBE.gsf.mb121.gz 7.11MB SAIC Generic Sensor Format (GSF)
0098_20150210_084816_HIIALAKAI-MBE.gsf.mb121.gz 7.22MB SAIC Generic Sensor Format (GSF)
0099_20150210_091816_HIIALAKAI-MBE.gsf.mb121.gz 7.57MB SAIC Generic Sensor Format (GSF)
0100_20150210_094816_HIIALAKAI-MBE.gsf.mb121.gz 7.20MB SAIC Generic Sensor Format (GSF)
0101_20150210_101816_HIIALAKAI-MBE.gsf.mb121.gz 7.34MB SAIC Generic Sensor Format (GSF)
0102_20150210_104816_HIIALAKAI-MBE.gsf.mb121.gz 7.04MB SAIC Generic Sensor Format (GSF)
0103_20150210_111816_HIIALAKAI-MBE.gsf.mb121.gz 6.97MB SAIC Generic Sensor Format (GSF)
0104_20150210_114816_HIIALAKAI-MBE.gsf.mb121.gz 7.39MB SAIC Generic Sensor Format (GSF)
0105_20150210_121816_HIIALAKAI-MBE.gsf.mb121.gz 7.17MB SAIC Generic Sensor Format (GSF)
0106_20150210_124816_HIIALAKAI-MBE.gsf.mb121.gz 7.02MB SAIC Generic Sensor Format (GSF)
0107_20150210_131816_HIIALAKAI-MBE.gsf.mb121.gz 7.39MB SAIC Generic Sensor Format (GSF)
0108_20150210_134816_HIIALAKAI-MBE.gsf.mb121.gz 7.02MB SAIC Generic Sensor Format (GSF)
0109_20150210_141816_HIIALAKAI-MBE.gsf.mb121.gz 7.08MB SAIC Generic Sensor Format (GSF)
0110_20150210_144816_HIIALAKAI-MBE.gsf.mb121.gz 7.29MB SAIC Generic Sensor Format (GSF)
0111_20150210_151817_HIIALAKAI-MBE.gsf.mb121.gz 7.46MB SAIC Generic Sensor Format (GSF)
0112_20150210_154817_HIIALAKAI-MBE.gsf.mb121.gz 7.07MB SAIC Generic Sensor Format (GSF)
0113_20150210_161817_HIIALAKAI-MBE.gsf.mb121.gz 8.43MB SAIC Generic Sensor Format (GSF)
0114_20150210_164817_HIIALAKAI-MBE.gsf.mb121.gz 15.92MB SAIC Generic Sensor Format (GSF)
0115_20150210_171817_HIIALAKAI-MBE.gsf.mb121.gz 16.33MB SAIC Generic Sensor Format (GSF)
0116_20150210_174817_HIIALAKAI-MBE.gsf.mb121.gz 17.07MB SAIC Generic Sensor Format (GSF)
0117_20150210_181817_HIIALAKAI-MBE.gsf.mb121.gz 18.06MB SAIC Generic Sensor Format (GSF)
0118_20150210_184817_HIIALAKAI-MBE.gsf.mb121.gz 15.40MB SAIC Generic Sensor Format (GSF)
0119_20150210_191817_HIIALAKAI-MBE.gsf.mb121.gz 17.64MB SAIC Generic Sensor Format (GSF)
0120_20150210_194817_HIIALAKAI-MBE.gsf.mb121.gz 10.40MB SAIC Generic Sensor Format (GSF)
0121_20150210_201817_HIIALAKAI-MBE.gsf.mb121.gz 10.40MB SAIC Generic Sensor Format (GSF)
0122_20150210_204817_HIIALAKAI-MBE.gsf.mb121.gz 9.65MB SAIC Generic Sensor Format (GSF)
0123_20150210_211817_HIIALAKAI-MBE.gsf.mb121.gz 10.79MB SAIC Generic Sensor Format (GSF)
0124_20150210_214817_HIIALAKAI-MBE.gsf.mb121.gz 11.02MB SAIC Generic Sensor Format (GSF)
0125_20150210_221817_HIIALAKAI-MBE.gsf.mb121.gz 10.26MB SAIC Generic Sensor Format (GSF)
0126_20150210_224817_HIIALAKAI-MBE.gsf.mb121.gz 10.58MB SAIC Generic Sensor Format (GSF)
0127_20150210_231817_HIIALAKAI-MBE.gsf.mb121.gz 10.16MB SAIC Generic Sensor Format (GSF)
0128_20150210_234817_HIIALAKAI-MBE.gsf.mb121.gz 11.15MB SAIC Generic Sensor Format (GSF)
0129_20150211_001817_HIIALAKAI-MBE.gsf.mb121.gz 15.88MB SAIC Generic Sensor Format (GSF)
0130_20150211_004817_HIIALAKAI-MBE.gsf.mb121.gz 15.31MB SAIC Generic Sensor Format (GSF)
0131_20150211_011817_HIIALAKAI-MBE.gsf.mb121.gz 10.15MB SAIC Generic Sensor Format (GSF)
0132_20150211_014817_HIIALAKAI-MBE.gsf.mb121.gz 4.82MB SAIC Generic Sensor Format (GSF)
0133_20150211_023030_HIIALAKAI-MBE.gsf.mb121.gz 12.22MB SAIC Generic Sensor Format (GSF)
0134_20150211_030030_HIIALAKAI-MBE.gsf.mb121.gz 8.93MB SAIC Generic Sensor Format (GSF)
0136_20150211_032804_HIIALAKAI-MBE.gsf.mb121.gz 9.23MB SAIC Generic Sensor Format (GSF)
0138_20150211_035452_HIIALAKAI-MBE.gsf.mb121.gz 15.37MB SAIC Generic Sensor Format (GSF)
0139_20150211_042452_HIIALAKAI-MBE.gsf.mb121.gz 10.66MB SAIC Generic Sensor Format (GSF)
0140_20150211_044610_HIIALAKAI-MBE.gsf.mb121.gz 6.74MB SAIC Generic Sensor Format (GSF)
0142_20150211_051334_HIIALAKAI-MBE.gsf.mb121.gz 7.99MB SAIC Generic Sensor Format (GSF)
0143_20150211_054334_HIIALAKAI-MBE.gsf.mb121.gz 5.54MB SAIC Generic Sensor Format (GSF)
0144_20150211_060607_HIIALAKAI-MBE.gsf.mb121.gz 7.19MB SAIC Generic Sensor Format (GSF)
0145_20150211_063607_HIIALAKAI-MBE.gsf.mb121.gz 7.05MB SAIC Generic Sensor Format (GSF)
0146_20150211_070607_HIIALAKAI-MBE.gsf.mb121.gz 6.84MB SAIC Generic Sensor Format (GSF)
0147_20150211_073607_HIIALAKAI-MBE.gsf.mb121.gz 7.06MB SAIC Generic Sensor Format (GSF)
0148_20150211_080607_HIIALAKAI-MBE.gsf.mb121.gz 7.19MB SAIC Generic Sensor Format (GSF)
0149_20150211_083607_HIIALAKAI-MBE.gsf.mb121.gz 7.02MB SAIC Generic Sensor Format (GSF)
0150_20150211_090607_HIIALAKAI-MBE.gsf.mb121.gz 7.20MB SAIC Generic Sensor Format (GSF)
0151_20150211_093607_HIIALAKAI-MBE.gsf.mb121.gz 7.13MB SAIC Generic Sensor Format (GSF)
0152_20150211_100607_HIIALAKAI-MBE.gsf.mb121.gz 1.02MB SAIC Generic Sensor Format (GSF)
0153_20150211_102812_HIIALAKAI-MBE.gsf.mb121.gz 44.5KB SAIC Generic Sensor Format (GSF)
0154_20150211_102832_HIIALAKAI-MBE.gsf.mb121.gz 61.9KB SAIC Generic Sensor Format (GSF)
0155_20150204_022106_HIIALAKAI.post-draft-MBE.gsf.mb121.gz 1.42MB SAIC Generic Sensor Format (GSF)
0155_20150211_102850_HIIALAKAI-MBE.gsf.mb121.gz 194.8KB SAIC Generic Sensor Format (GSF)
0156_20150204_022658_HIIALAKAI.post-draft-MBE.gsf.mb121.gz 3.54MB SAIC Generic Sensor Format (GSF)
0157_20150204_024120_HIIALAKAI.post-draft-MBE.gsf.mb121.gz 3.52MB SAIC Generic Sensor Format (GSF)
0157_20150211_103001_HIIALAKAI-MBE.gsf.mb121.gz 374.6KB SAIC Generic Sensor Format (GSF)
0158_20150204_025238_HIIALAKAI.post-draft-MBE.gsf.mb121.gz 11.73MB SAIC Generic Sensor Format (GSF)
0158_20150211_103137_HIIALAKAI-MBE.gsf.mb121.gz 3.32MB SAIC Generic Sensor Format (GSF)
0159_20150204_032238_HIIALAKAI.post-draft-MBE.gsf.mb121.gz 10.78MB SAIC Generic Sensor Format (GSF)
0159_20150211_104423_HIIALAKAI-MBE.gsf.mb121.gz 56.8KB SAIC Generic Sensor Format (GSF)
0160_20150204_035239_HIIALAKAI.post-draft-MBE.gsf.mb121.gz 10.27MB SAIC Generic Sensor Format (GSF)
0161_20150204_042239_HIIALAKAI.post-draft-MBE.gsf.mb121.gz 10.31MB SAIC Generic Sensor Format (GSF)
0161_20150211_104635_HIIALAKAI-MBE.gsf.mb121.gz 6.97MB SAIC Generic Sensor Format (GSF)
0162_20150204_045239_HIIALAKAI.post-draft-MBE.gsf.mb121.gz 9.13MB SAIC Generic Sensor Format (GSF)
0162_20150211_111635_HIIALAKAI-MBE.gsf.mb121.gz 7.28MB SAIC Generic Sensor Format (GSF)
0163_20150204_052239_HIIALAKAI.post-draft-MBE.gsf.mb121.gz 11.94MB SAIC Generic Sensor Format (GSF)
0163_20150211_114635_HIIALAKAI-MBE.gsf.mb121.gz 7.19MB SAIC Generic Sensor Format (GSF)
0164_20150204_055239_HIIALAKAI.post-draft-MBE.gsf.mb121.gz 9.98MB SAIC Generic Sensor Format (GSF)
0164_20150211_121635_HIIALAKAI-MBE.gsf.mb121.gz 7.59MB SAIC Generic Sensor Format (GSF)
0165_20150204_060804_HIIALAKAI.post-draft-MBE.gsf.mb121.gz 0.54MB SAIC Generic Sensor Format (GSF)
0165_20150211_124635_HIIALAKAI-MBE.gsf.mb121.gz 7.31MB SAIC Generic Sensor Format (GSF)
0166_20150204_061036_HIIALAKAI.post-draft-MBE.gsf.mb121.gz 0.83MB SAIC Generic Sensor Format (GSF)
0166_20150211_131635_HIIALAKAI-MBE.gsf.mb121.gz 6.98MB SAIC Generic Sensor Format (GSF)
0167_20150204_061257_HIIALAKAI.post-draft-MBE.gsf.mb121.gz 9.07MB SAIC Generic Sensor Format (GSF)
0167_20150211_134635_HIIALAKAI-MBE.gsf.mb121.gz 7.04MB SAIC Generic Sensor Format (GSF)
0168_20150204_064257_HIIALAKAI.post-draft-MBE.gsf.mb121.gz 7.39MB SAIC Generic Sensor Format (GSF)
0168_20150211_141635_HIIALAKAI-MBE.gsf.mb121.gz 7.60MB SAIC Generic Sensor Format (GSF)
0169_20150211_144635_HIIALAKAI-MBE.gsf.mb121.gz 7.21MB SAIC Generic Sensor Format (GSF)
0170_20150204_074212_HIIALAKAI.post-draft-MBE.gsf.mb121.gz 7.53MB SAIC Generic Sensor Format (GSF)
0170_20150211_151635_HIIALAKAI-MBE.gsf.mb121.gz 7.08MB SAIC Generic Sensor Format (GSF)
0171_20150204_081212_HIIALAKAI.post-draft-MBE.gsf.mb121.gz 8.14MB SAIC Generic Sensor Format (GSF)
0171_20150211_154635_HIIALAKAI-MBE.gsf.mb121.gz 7.87MB SAIC Generic Sensor Format (GSF)
0172_20150204_084212_HIIALAKAI.post-draft-MBE.gsf.mb121.gz 8.74MB SAIC Generic Sensor Format (GSF)
0172_20150211_161635_HIIALAKAI-MBE.gsf.mb121.gz 9.32MB SAIC Generic Sensor Format (GSF)
0173_20150204_091212_HIIALAKAI.post-draft-MBE.gsf.mb121.gz 6.30MB SAIC Generic Sensor Format (GSF)
0173_20150211_164635_HIIALAKAI-MBE.gsf.mb121.gz 11.61MB SAIC Generic Sensor Format (GSF)
0174_20150204_095133_HIIALAKAI.post-draft-MBE.gsf.mb121.gz 7.97MB SAIC Generic Sensor Format (GSF)
0174_20150211_171635_HIIALAKAI-MBE.gsf.mb121.gz 10.62MB SAIC Generic Sensor Format (GSF)
0175_20150204_102133_HIIALAKAI.post-draft-MBE.gsf.mb121.gz 7.32MB SAIC Generic Sensor Format (GSF)
0175_20150211_174635_HIIALAKAI-MBE.gsf.mb121.gz 10.44MB SAIC Generic Sensor Format (GSF)
0176_20150204_105133_HIIALAKAI.post-draft-MBE.gsf.mb121.gz 7.11MB SAIC Generic Sensor Format (GSF)
0176_20150211_181635_HIIALAKAI-MBE.gsf.mb121.gz 11.19MB SAIC Generic Sensor Format (GSF)
0177_20150204_112133_HIIALAKAI.post-draft-MBE.gsf.mb121.gz 1.28MB SAIC Generic Sensor Format (GSF)
0177_20150211_184635_HIIALAKAI-MBE.gsf.mb121.gz 10.61MB SAIC Generic Sensor Format (GSF)
0178_20150204_122449_HIIALAKAI.post-draft-MBE.gsf.mb121.gz 7.29MB SAIC Generic Sensor Format (GSF)
0178_20150211_191635_HIIALAKAI-MBE.gsf.mb121.gz 10.40MB SAIC Generic Sensor Format (GSF)
0179_20150204_125449_HIIALAKAI.post-draft-MBE.gsf.mb121.gz 7.41MB SAIC Generic Sensor Format (GSF)
0179_20150211_194635_HIIALAKAI-MBE.gsf.mb121.gz 10.41MB SAIC Generic Sensor Format (GSF)
0180_20150204_132449_HIIALAKAI.post-draft-MBE.gsf.mb121.gz 7.60MB SAIC Generic Sensor Format (GSF)
0180_20150211_201636_HIIALAKAI-MBE.gsf.mb121.gz 10.17MB SAIC Generic Sensor Format (GSF)
0181_20150204_135449_HIIALAKAI.post-draft-MBE.gsf.mb121.gz 7.69MB SAIC Generic Sensor Format (GSF)
0181_20150211_204636_HIIALAKAI-MBE.gsf.mb121.gz 10.63MB SAIC Generic Sensor Format (GSF)
0182_20150204_142449_HIIALAKAI.post-draft-MBE.gsf.mb121.gz 8.74MB SAIC Generic Sensor Format (GSF)
0182_20150211_211636_HIIALAKAI-MBE.gsf.mb121.gz 10.64MB SAIC Generic Sensor Format (GSF)
0183_20150204_145449_HIIALAKAI.post-draft-MBE.gsf.mb121.gz 9.33MB SAIC Generic Sensor Format (GSF)
0183_20150211_214636_HIIALAKAI-MBE.gsf.mb121.gz 10.32MB SAIC Generic Sensor Format (GSF)
0184_20150204_152449_HIIALAKAI.post-draft-MBE.gsf.mb121.gz 10.13MB SAIC Generic Sensor Format (GSF)
0184_20150211_221636_HIIALAKAI-MBE.gsf.mb121.gz 12.20MB SAIC Generic Sensor Format (GSF)
0185_20150204_155449_HIIALAKAI.post-draft-MBE.gsf.mb121.gz 10.66MB SAIC Generic Sensor Format (GSF)
0185_20150211_224636_HIIALAKAI-MBE.gsf.mb121.gz 10.17MB SAIC Generic Sensor Format (GSF)
0186_20150204_162449_HIIALAKAI.post-draft-MBE.gsf.mb121.gz 10.78MB SAIC Generic Sensor Format (GSF)
0186_20150211_231636_HIIALAKAI-MBE.gsf.mb121.gz 10.62MB SAIC Generic Sensor Format (GSF)
0187_20150204_165449_HIIALAKAI.post-draft-MBE.gsf.mb121.gz 15.52MB SAIC Generic Sensor Format (GSF)
0187_20150211_234636_HIIALAKAI-MBE.gsf.mb121.gz 10.35MB SAIC Generic Sensor Format (GSF)
0188_20150204_172449_HIIALAKAI.post-draft-MBE.gsf.mb121.gz 15.07MB SAIC Generic Sensor Format (GSF)
0188_20150212_001636_HIIALAKAI-MBE.gsf.mb121.gz 10.46MB SAIC Generic Sensor Format (GSF)
0189_20150204_175449_HIIALAKAI.post-draft-MBE.gsf.mb121.gz 10.93MB SAIC Generic Sensor Format (GSF)
0189_20150212_004636_HIIALAKAI-MBE.gsf.mb121.gz 10.29MB SAIC Generic Sensor Format (GSF)
0190_20150204_182449_HIIALAKAI.post-draft-MBE.gsf.mb121.gz 11.01MB SAIC Generic Sensor Format (GSF)
0190_20150212_011636_HIIALAKAI-MBE.gsf.mb121.gz 12.16MB SAIC Generic Sensor Format (GSF)
0191_20150204_185449_HIIALAKAI.post-draft-MBE.gsf.mb121.gz 10.37MB SAIC Generic Sensor Format (GSF)
0191_20150212_014636_HIIALAKAI-MBE.gsf.mb121.gz 9.53MB SAIC Generic Sensor Format (GSF)
0192_20150204_192449_HIIALAKAI.post-draft-MBE.gsf.mb121.gz 10.29MB SAIC Generic Sensor Format (GSF)
0192_20150212_034940_HIIALAKAI-MBE.gsf.mb121.gz 9.95MB SAIC Generic Sensor Format (GSF)
0193_20150204_195449_HIIALAKAI.post-draft-MBE.gsf.mb121.gz 10.49MB SAIC Generic Sensor Format (GSF)
0193_20150212_041940_HIIALAKAI-MBE.gsf.mb121.gz 16.71MB SAIC Generic Sensor Format (GSF)
0194_20150204_202449_HIIALAKAI.post-draft-MBE.gsf.mb121.gz 9.16MB SAIC Generic Sensor Format (GSF)
0194_20150212_044940_HIIALAKAI-MBE.gsf.mb121.gz 13.55MB SAIC Generic Sensor Format (GSF)
0195_20150204_205449_HIIALAKAI.post-draft-MBE.gsf.mb121.gz 7.79MB SAIC Generic Sensor Format (GSF)
0195_20150212_051940_HIIALAKAI-MBE.gsf.mb121.gz 4.02MB SAIC Generic Sensor Format (GSF)
0196_20150204_212449_HIIALAKAI.post-draft-MBE.gsf.mb121.gz 8.32MB SAIC Generic Sensor Format (GSF)
0197_20150204_215449_HIIALAKAI.post-draft-MBE.gsf.mb121.gz 7.40MB SAIC Generic Sensor Format (GSF)
0197_20150212_053659_HIIALAKAI-MBE.gsf.mb121.gz 0.97MB SAIC Generic Sensor Format (GSF)
0198_20150204_222449_HIIALAKAI.post-draft-MBE.gsf.mb121.gz 5.27MB SAIC Generic Sensor Format (GSF)
0199_20150205_021325_HIIALAKAI.post-draft-MBE.gsf.mb121.gz 1.78MB SAIC Generic Sensor Format (GSF)
0200_20150205_035535_HIIALAKAI.post-draft-MBE.gsf.mb121.gz 8.28MB SAIC Generic Sensor Format (GSF)
0201_20150205_042535_HIIALAKAI.post-draft-MBE.gsf.mb121.gz 7.20MB SAIC Generic Sensor Format (GSF)
0202_20150205_045535_HIIALAKAI.post-draft-MBE.gsf.mb121.gz 1.57MB SAIC Generic Sensor Format (GSF)
0203_20150205_075554_HIIALAKAI.post-draft-MBE.gsf.mb121.gz 7.94MB SAIC Generic Sensor Format (GSF)
0204_20150205_082554_HIIALAKAI.post-draft-MBE.gsf.mb121.gz 8.01MB SAIC Generic Sensor Format (GSF)
0205_20150205_085555_HIIALAKAI.post-draft-MBE.gsf.mb121.gz 1.29MB SAIC Generic Sensor Format (GSF)
0206_20150205_090101_HIIALAKAI.post-draft-MBE.gsf.mb121.gz 0.73MB SAIC Generic Sensor Format (GSF)
0207_20150205_091238_HIIALAKAI.post-draft-MBE.gsf.mb121.gz 7.81MB SAIC Generic Sensor Format (GSF)
0208_20150205_094238_HIIALAKAI.post-draft-MBE.gsf.mb121.gz 7.74MB SAIC Generic Sensor Format (GSF)
0209_20150205_101238_HIIALAKAI.post-draft-MBE.gsf.mb121.gz 1.05MB SAIC Generic Sensor Format (GSF)
0210_20150205_104913_HIIALAKAI.post-draft-MBE.gsf.mb121.gz 7.44MB SAIC Generic Sensor Format (GSF)
0211_20150205_111913_HIIALAKAI.post-draft-MBE.gsf.mb121.gz 7.62MB SAIC Generic Sensor Format (GSF)
0212_20150205_114913_HIIALAKAI.post-draft-MBE.gsf.mb121.gz 3.32MB SAIC Generic Sensor Format (GSF)
0213_20150205_120501_HIIALAKAI.post-draft-MBE.gsf.mb121.gz 3.75MB SAIC Generic Sensor Format (GSF)
0214_20150205_121958_HIIALAKAI.post-draft-MBE.gsf.mb121.gz 8.10MB SAIC Generic Sensor Format (GSF)
0215_20150205_124958_HIIALAKAI.post-draft-MBE.gsf.mb121.gz 7.79MB SAIC Generic Sensor Format (GSF)
0216_20150205_131958_HIIALAKAI.post-draft-MBE.gsf.mb121.gz 7.56MB SAIC Generic Sensor Format (GSF)
0217_20150205_134958_HIIALAKAI.post-draft-MBE.gsf.mb121.gz 7.86MB SAIC Generic Sensor Format (GSF)
0218_20150205_141959_HIIALAKAI.post-draft-MBE.gsf.mb121.gz 8.51MB SAIC Generic Sensor Format (GSF)
0219_20150205_144959_HIIALAKAI.post-draft-MBE.gsf.mb121.gz 9.69MB SAIC Generic Sensor Format (GSF)
0220_20150205_151959_HIIALAKAI.post-draft-MBE.gsf.mb121.gz 9.95MB SAIC Generic Sensor Format (GSF)
0221_20150205_154959_HIIALAKAI.post-draft-MBE.gsf.mb121.gz 9.61MB SAIC Generic Sensor Format (GSF)
0222_20150205_161959_HIIALAKAI.post-draft-MBE.gsf.mb121.gz 10.18MB SAIC Generic Sensor Format (GSF)
0223_20150205_164959_HIIALAKAI.post-draft-MBE.gsf.mb121.gz 9.94MB SAIC Generic Sensor Format (GSF)
0224_20150205_171959_HIIALAKAI.post-draft-MBE.gsf.mb121.gz 10.80MB SAIC Generic Sensor Format (GSF)
0225_20150205_174959_HIIALAKAI.post-draft-MBE.gsf.mb121.gz 11.56MB SAIC Generic Sensor Format (GSF)
0226_20150205_181959_HIIALAKAI.post-draft-MBE.gsf.mb121.gz 15.89MB SAIC Generic Sensor Format (GSF)
0227_20150205_184959_HIIALAKAI.post-draft-MBE.gsf.mb121.gz 15.94MB SAIC Generic Sensor Format (GSF)
0228_20150205_191959_HIIALAKAI.post-draft-MBE.gsf.mb121.gz 10.88MB SAIC Generic Sensor Format (GSF)
0229_20150205_194959_HIIALAKAI.post-draft-MBE.gsf.mb121.gz 10.78MB SAIC Generic Sensor Format (GSF)
0230_20150205_201959_HIIALAKAI.post-draft-MBE.gsf.mb121.gz 10.61MB SAIC Generic Sensor Format (GSF)
0231_20150206_044438_HIIALAKAI.post-draft-MBE.gsf.mb121.gz 38.4KB SAIC Generic Sensor Format (GSF)
0232_20150206_044457_HIIALAKAI.post-draft-MBE.gsf.mb121.gz 1.35MB SAIC Generic Sensor Format (GSF)
0233_20150206_045004_HIIALAKAI.post-draft-MBE.gsf.mb121.gz 221.2KB SAIC Generic Sensor Format (GSF)
0235_20150206_045229_HIIALAKAI.post-draft-MBE.gsf.mb121.gz 8.75MB SAIC Generic Sensor Format (GSF)
0236_20150206_052229_HIIALAKAI.post-draft-MBE.gsf.mb121.gz 6.95MB SAIC Generic Sensor Format (GSF)
0238_20150206_055205_HIIALAKAI.post-draft-MBE.gsf.mb121.gz 7.40MB SAIC Generic Sensor Format (GSF)
0239_20150206_062205_HIIALAKAI.post-draft-MBE.gsf.mb121.gz 1.46MB SAIC Generic Sensor Format (GSF)
0241_20150206_062901_HIIALAKAI.post-draft-MBE.gsf.mb121.gz 8.16MB SAIC Generic Sensor Format (GSF)
0242_20150206_065901_HIIALAKAI.post-draft-MBE.gsf.mb121.gz 10.14MB SAIC Generic Sensor Format (GSF)
0243_20150206_072901_HIIALAKAI.post-draft-MBE.gsf.mb121.gz 7.84MB SAIC Generic Sensor Format (GSF)
0244_20150206_075901_HIIALAKAI.post-draft-MBE.gsf.mb121.gz 7.59MB SAIC Generic Sensor Format (GSF)
0245_20150206_082901_HIIALAKAI.post-draft-MBE.gsf.mb121.gz 5.71MB SAIC Generic Sensor Format (GSF)
0246_20150206_085335_HIIALAKAI.post-draft-MBE.gsf.mb121.gz 7.99MB SAIC Generic Sensor Format (GSF)
0247_20150206_092335_HIIALAKAI.post-draft-MBE.gsf.mb121.gz 7.86MB SAIC Generic Sensor Format (GSF)
0248_20150206_095335_HIIALAKAI.post-draft-MBE.gsf.mb121.gz 8.26MB SAIC Generic Sensor Format (GSF)
0249_20150206_102335_HIIALAKAI.post-draft-MBE.gsf.mb121.gz 8.48MB SAIC Generic Sensor Format (GSF)
0250_20150206_105335_HIIALAKAI.post-draft-MBE.gsf.mb121.gz 3.40MB SAIC Generic Sensor Format (GSF)
0251_20150206_110838_HIIALAKAI.post-draft-MBE.gsf.mb121.gz 0.93MB SAIC Generic Sensor Format (GSF)
0252_20150206_111211_HIIALAKAI.post-draft-MBE.gsf.mb121.gz 3.46MB SAIC Generic Sensor Format (GSF)
0253_20150206_112646_HIIALAKAI.post-draft-MBE.gsf.mb121.gz 1.00MB SAIC Generic Sensor Format (GSF)
0254_20150206_113338_HIIALAKAI.post-draft-MBE.gsf.mb121.gz 4.03MB SAIC Generic Sensor Format (GSF)
0255_20150206_115124_HIIALAKAI.post-draft-MBE.gsf.mb121.gz 8.31MB SAIC Generic Sensor Format (GSF)
0256_20150206_122124_HIIALAKAI.post-draft-MBE.gsf.mb121.gz 7.71MB SAIC Generic Sensor Format (GSF)
0257_20150206_125124_HIIALAKAI.post-draft-MBE.gsf.mb121.gz 7.93MB SAIC Generic Sensor Format (GSF)
0258_20150206_132124_HIIALAKAI.post-draft-MBE.gsf.mb121.gz 8.37MB SAIC Generic Sensor Format (GSF)
0259_20150206_135124_HIIALAKAI.post-draft-MBE.gsf.mb121.gz 8.03MB SAIC Generic Sensor Format (GSF)
0260_20150206_142124_HIIALAKAI.post-draft-MBE.gsf.mb121.gz 7.16MB SAIC Generic Sensor Format (GSF)
0261_20150206_145124_HIIALAKAI.post-draft-MBE.gsf.mb121.gz 7.23MB SAIC Generic Sensor Format (GSF)
0262_20150206_152124_HIIALAKAI.post-draft-MBE.gsf.mb121.gz 7.03MB SAIC Generic Sensor Format (GSF)
0263_20150206_155124_HIIALAKAI.post-draft-MBE.gsf.mb121.gz 7.05MB SAIC Generic Sensor Format (GSF)
0264_20150206_162124_HIIALAKAI.post-draft-MBE.gsf.mb121.gz 7.12MB SAIC Generic Sensor Format (GSF)
0265_20150206_165124_HIIALAKAI.post-draft-MBE.gsf.mb121.gz 7.39MB SAIC Generic Sensor Format (GSF)
0266_20150206_172124_HIIALAKAI.post-draft-MBE.gsf.mb121.gz 15.24MB SAIC Generic Sensor Format (GSF)
0267_20150206_175124_HIIALAKAI.post-draft-MBE.gsf.mb121.gz 16.79MB SAIC Generic Sensor Format (GSF)
0268_20150207_033744_HIIALAKAI.post-draft-MBE.gsf.mb121.gz 11.65MB SAIC Generic Sensor Format (GSF)
0269_20150207_040744_HIIALAKAI.post-draft-MBE.gsf.mb121.gz 7.81MB SAIC Generic Sensor Format (GSF)
0270_20150207_043744_HIIALAKAI.post-draft-MBE.gsf.mb121.gz 6.61MB SAIC Generic Sensor Format (GSF)
0271_20150207_051012_HIIALAKAI.post-draft-MBE.gsf.mb121.gz 0.77MB SAIC Generic Sensor Format (GSF)
0272_20150207_051338_HIIALAKAI.post-draft-MBE.gsf.mb121.gz 7.18MB SAIC Generic Sensor Format (GSF)
0273_20150207_054338_HIIALAKAI.post-draft-MBE.gsf.mb121.gz 1.35MB SAIC Generic Sensor Format (GSF)
0274_20150207_055810_HIIALAKAI.post-draft-MBE.gsf.mb121.gz 259.9KB SAIC Generic Sensor Format (GSF)
0275_20150207_055926_HIIALAKAI.post-draft-MBE.gsf.mb121.gz 151.9KB SAIC Generic Sensor Format (GSF)
0276_20150207_060013_HIIALAKAI.post-draft-MBE.gsf.mb121.gz 206.4KB SAIC Generic Sensor Format (GSF)
0278_20150207_060218_HIIALAKAI.post-draft-MBE.gsf.mb121.gz 7.06MB SAIC Generic Sensor Format (GSF)
0279_20150207_063218_HIIALAKAI.post-draft-MBE.gsf.mb121.gz 2.99MB SAIC Generic Sensor Format (GSF)
0281_20150207_064530_HIIALAKAI.post-draft-MBE.gsf.mb121.gz 2.20MB SAIC Generic Sensor Format (GSF)
0282_20150207_070903_HIIALAKAI.post-draft-MBE.gsf.mb121.gz 7.45MB SAIC Generic Sensor Format (GSF)
0283_20150207_073904_HIIALAKAI.post-draft-MBE.gsf.mb121.gz 7.53MB SAIC Generic Sensor Format (GSF)
0284_20150207_080904_HIIALAKAI.post-draft-MBE.gsf.mb121.gz 7.52MB SAIC Generic Sensor Format (GSF)
0285_20150207_083904_HIIALAKAI.post-draft-MBE.gsf.mb121.gz 1.67MB SAIC Generic Sensor Format (GSF)
0286_20150207_084639_HIIALAKAI.post-draft-MBE.gsf.mb121.gz 0.81MB SAIC Generic Sensor Format (GSF)
0287_20150207_085001_HIIALAKAI.post-draft-MBE.gsf.mb121.gz 6.29MB SAIC Generic Sensor Format (GSF)
0288_20150207_094117_HIIALAKAI.post-draft-MBE.gsf.mb121.gz 7.48MB SAIC Generic Sensor Format (GSF)
0289_20150207_101117_HIIALAKAI.post-draft-MBE.gsf.mb121.gz 3.27MB SAIC Generic Sensor Format (GSF)
0290_20150207_103053_HIIALAKAI.post-draft-MBE.gsf.mb121.gz 3.86MB SAIC Generic Sensor Format (GSF)
0291_20150207_104653_HIIALAKAI.post-draft-MBE.gsf.mb121.gz 7.01MB SAIC Generic Sensor Format (GSF)
0292_20150207_111653_HIIALAKAI.post-draft-MBE.gsf.mb121.gz 7.62MB SAIC Generic Sensor Format (GSF)
0293_20150207_114653_HIIALAKAI.post-draft-MBE.gsf.mb121.gz 7.78MB SAIC Generic Sensor Format (GSF)
0294_20150207_121653_HIIALAKAI.post-draft-MBE.gsf.mb121.gz 7.88MB SAIC Generic Sensor Format (GSF)
0295_20150207_124653_HIIALAKAI.post-draft-MBE.gsf.mb121.gz 7.63MB SAIC Generic Sensor Format (GSF)
0296_20150207_131653_HIIALAKAI.post-draft-MBE.gsf.mb121.gz 7.64MB SAIC Generic Sensor Format (GSF)
0297_20150207_134653_HIIALAKAI.post-draft-MBE.gsf.mb121.gz 7.42MB SAIC Generic Sensor Format (GSF)
0298_20150207_141653_HIIALAKAI.post-draft-MBE.gsf.mb121.gz 7.43MB SAIC Generic Sensor Format (GSF)
0299_20150207_144653_HIIALAKAI.post-draft-MBE.gsf.mb121.gz 7.47MB SAIC Generic Sensor Format (GSF)
0300_20150207_151653_HIIALAKAI.post-draft-MBE.gsf.mb121.gz 7.47MB SAIC Generic Sensor Format (GSF)
0301_20150207_154653_HIIALAKAI.post-draft-MBE.gsf.mb121.gz 7.58MB SAIC Generic Sensor Format (GSF)
0302_20150207_161654_HIIALAKAI.post-draft-MBE.gsf.mb121.gz 8.28MB SAIC Generic Sensor Format (GSF)
0303_20150207_164654_HIIALAKAI.post-draft-MBE.gsf.mb121.gz 10.80MB SAIC Generic Sensor Format (GSF)
0304_20150207_171654_HIIALAKAI.post-draft-MBE.gsf.mb121.gz 16.54MB SAIC Generic Sensor Format (GSF)
0305_20150207_174654_HIIALAKAI.post-draft-MBE.gsf.mb121.gz 16.23MB SAIC Generic Sensor Format (GSF)
0306_20150207_181654_HIIALAKAI.post-draft-MBE.gsf.mb121.gz 11.05MB SAIC Generic Sensor Format (GSF)
0307_20150207_184654_HIIALAKAI.post-draft-MBE.gsf.mb121.gz 15.52MB SAIC Generic Sensor Format (GSF)
0308_20150207_191654_HIIALAKAI.post-draft-MBE.gsf.mb121.gz 15.39MB SAIC Generic Sensor Format (GSF)
0309_20150207_194654_HIIALAKAI.post-draft-MBE.gsf.mb121.gz 10.88MB SAIC Generic Sensor Format (GSF)
0310_20150207_201654_HIIALAKAI.post-draft-MBE.gsf.mb121.gz 10.89MB SAIC Generic Sensor Format (GSF)
0311_20150207_204654_HIIALAKAI.post-draft-MBE.gsf.mb121.gz 10.44MB SAIC Generic Sensor Format (GSF)
0312_20150207_211654_HIIALAKAI.post-draft-MBE.gsf.mb121.gz 9.92MB SAIC Generic Sensor Format (GSF)
0313_20150207_214654_HIIALAKAI.post-draft-MBE.gsf.mb121.gz 10.47MB SAIC Generic Sensor Format (GSF)
0314_20150207_221654_HIIALAKAI.post-draft-MBE.gsf.mb121.gz 10.97MB SAIC Generic Sensor Format (GSF)
0315_20150207_224654_HIIALAKAI.post-draft-MBE.gsf.mb121.gz 11.05MB SAIC Generic Sensor Format (GSF)
0316_20150207_231654_HIIALAKAI.post-draft-MBE.gsf.mb121.gz 11.05MB SAIC Generic Sensor Format (GSF)
0317_20150207_234654_HIIALAKAI.post-draft-MBE.gsf.mb121.gz 10.80MB SAIC Generic Sensor Format (GSF)
0318_20150208_001654_HIIALAKAI.post-draft-MBE.gsf.mb121.gz 10.84MB SAIC Generic Sensor Format (GSF)
0319_20150208_004654_HIIALAKAI.post-draft-MBE.gsf.mb121.gz 11.58MB SAIC Generic Sensor Format (GSF)
0320_20150208_011654_HIIALAKAI.post-draft-MBE.gsf.mb121.gz 14.97MB SAIC Generic Sensor Format (GSF)
0321_20150208_014654_HIIALAKAI.post-draft-MBE.gsf.mb121.gz 12.87MB SAIC Generic Sensor Format (GSF)
0322_20150208_021523_HIIALAKAI.post-draft-MBE.gsf.mb121.gz 376.0KB SAIC Generic Sensor Format (GSF)
0324_20150208_032041_HIIALAKAI.post-draft-MBE.gsf.mb121.gz 9.01MB SAIC Generic Sensor Format (GSF)
0325_20150208_035041_HIIALAKAI.post-draft-MBE.gsf.mb121.gz 7.22MB SAIC Generic Sensor Format (GSF)
0326_20150208_042041_HIIALAKAI.post-draft-MBE.gsf.mb121.gz 7.11MB SAIC Generic Sensor Format (GSF)
0327_20150208_045041_HIIALAKAI.post-draft-MBE.gsf.mb121.gz 2.74MB SAIC Generic Sensor Format (GSF)

Products: 3

Files File Size Description
Baker_1501_EM300_40m.tif.gz 0.75MB GeoTIFF survey image
Combined_RAMP_MBES-report_11092017.pdf.gz 5.32MB PDF product
Howland_EM300_post_draft_40m_clean.tif.gz 1.06MB GeoTIFF survey image

Metadata Files: 2

Files File Size Description
Multibeam_HA-15-01_iso19115_draft.xml 98.2KB XML metadata file
multibeam_HA1501_NCEImetadata.xlsx 19.9KB Provider supplied metadata

Ancillary Files: 2

Files File Size Description
HA1501_post-processing_log.xlsx 75.8KB Supporting data
support.tar.gz 51.9KB Supporting data